     2.10           OBSERVATION DATA    G (GPS)             RINEX VERSION / TYPE
teqc 2000Feb29 simon 20011212 22:16:54UTC                   PGM / RUN BY / DATE
Linux 2.0.36|Pentium II|gcc|Linux|486/DX+                   COMMENT
BIT 2 OF LLI FLAGS DATA COLLECTED UNDER A/S CONDITION       COMMENT
GS38                                                        MARKER NAME
gs38                                                        MARKER NUMBER
WAP -Unknown-                                               OBSERVER / AGENCY
481 ASHTECH Z-XII3 4J30                                     REC # / TYPE / VERS
015 ASH701933_M                                             ANT # / TYPE
 -2408720.0000 -4562139.0000  3740408.0000                  APPROX POSITION XYZ
        1.2465        0.0000        0.0000                  ANTENNA: DELTA H/E/N
     1     1                                                WAVELENGTH FACT L1/2
     7    L1    L2    C1    P1    P2    S1    S2            # / TYPES OF OBSERV
    30.0000                                                 INTERVAL
SNR is mapped to RINEX snr flag value [1-9]                 COMMENT
L1: 1 -> 1; 90 -> 5; 210 -> 9                               COMMENT
L2: 1 -> 1; 150 -> 5; 250 -> 9                              COMMENT
Original height was 0.0000                                  COMMENT
New height found assuming measured height 1.3220            COMMENT
and assuming radial 0.1737 vertical -0.0640                 COMMENT
  2001    11    12    16     9   30.0000000     GPS         TIME OF FIRST OBS
                                                            END OF HEADER
 01 11 12 16  9 30.0000000  0  7G22G20G14G 1G29G25G11
     -6151.54253                  19062318.196
       229.000          74.000
     -4532.25553                  17667318.516
       240.000          74.000
      1757.19553                  21721065.551
       216.000          74.000
     -4643.08953                  19176073.838
       236.000          74.000
       719.69353                  19207912.607
       232.000          74.000
       754.73353                  18157868.716
       244.000          74.000
      6712.41457                  19433430.540                    19433439.254
       235.000         188.000
 01 11 12 16 10  0.0000000  0  7G22G20G14G 1G29G25G11
   -166916.09859   -104377.80756  19038331.681    19038331.233    19038342.059
       229.000         182.000
   -121342.68559    -76638.48057  17649710.545    17649710.333    17649717.717
       241.000         207.000
     30022.08145                  21727963.008
       215.000         138.000
   -122554.33259    -78815.47857  19157958.360    19157958.569    19157967.832
       237.000         196.000
     19202.96559     12295.90257  19210738.522    19210738.712    19210748.548
       232.000         193.000
     19878.60459     12946.54457  18160846.472    18160846.435    18160854.048
       244.000         212.000
     47580.03659     32360.05657  19439694.753    19439695.262    19439702.881
       235.000         188.000
 01 11 12 16 10 29.9990000  0  7G22G20G14G 1G29G25G11
   -292675.72949   -202372.28646  22012325.138    22012324.531    22012335.426
       230.000         185.000
   -213518.77349   -148464.04947  20630094.960    20630094.419    20630101.864
       242.000         207.000
     58231.78245                  24732777.217                    24732793.050
       211.000         142.000
   -217651.20149   -152916.97547  22137786.916    22137786.767    22137796.177
       236.000         194.000
     34086.70349     23893.42647  22211495.635    22211495.686    22211505.500
       232.000         192.000
     35773.82249     25332.31747  21161795.916    21161795.844    21161803.441
       244.000         212.000
     80706.82449     58172.94747  22443923.652    22443923.790    22443931.759
       236.000         189.000
 01 11 12 16 10 59.9990000  0  7G22G20G14G 1G29G25G11
   -418098.81149   -300104.50146  21988458.068    21988457.387    21988468.409
       231.000         186.000
   -305272.94549   -219960.83947  20612634.791    20612634.201    20612641.758
       241.000         208.000
    119342.55649     86507.76545  24739682.896    24739682.672    24739701.214
       205.000         142.000
   -312599.99549   -226903.08147  22119718.777    22119718.575    22119727.923
       237.000         195.000
     49136.73949     35620.53647  22214359.664    22214359.653    22214369.518
       231.000         191.000
     52054.93649     38018.79448  21164894.167    21164894.069    21164901.698
       243.000         213.000
    114194.62449     84267.15946  22450296.308    22450296.302    22450304.335
       232.000         185.000
 01 11 12 16 11 29.9990000  0  7G22G20G14G 1G29G25G11
   -543104.40849   -397511.41346  21964670.319    21964669.612    21964680.627
       231.000         186.000
   -396537.94949   -291076.45547  20595267.636    20595267.066    20595274.702
       241.000         208.000
    155733.47959    114863.91255  24746608.135    24746608.927    24746626.087
       206.000         139.000
   -407334.71149   -300722.37247  22101691.430    22101691.173    22101700.491
       237.000         194.000
     64378.79949     47497.26847  22217260.202    22217260.157    22217270.068
       230.000         190.000
     68745.27349     51024.14047  21168070.217    21168070.138    21168077.773
       244.000         212.000
    148059.87649    110655.49947  22456740.786    22456740.714    22456748.775
       236.000         189.000
 01 11 12 16 11 59.9990000  0  7G22G20G14G 1G29G25G11
   -667685.64149   -494587.64246  21940963.246    21940962.558    21940973.613
       231.000         187.000
   -487308.06149   -361806.44547  20577994.701    20577994.120    20578001.771
       241.000         209.000
    192230.82049    143302.94445  24753553.724    24753553.796    24753571.190
       202.000         135.000
   -501851.76349   -374372.05647  22083705.506    22083705.184    22083714.483
       236.000         194.000
     79816.54249     59526.47547  22220198.006    22220197.897    22220207.858
       231.000         190.000
     85846.84849     64349.93847  21171324.607    21171324.511    21171332.094
       245.000         212.000
    182303.42649    137338.60047  22463257.257    22463257.139    22463265.289
       233.000         188.000
 01 11 12 16 12 29.9990000  0  8G22G20G14G 1G29G25G11G13
   -791852.17549   -591340.73146  21917335.129    21917334.445    21917345.464
       230.000         187.000
   -577594.24149   -432159.34047  20560813.895    20560813.265    20560820.922
       242.000         209.000
    228821.50949    171814.68345  24760516.809    24760516.723    24760534.022
       202.000         132.000
   -596164.30649   -447862.37347  22065758.410    22065758.092    22065767.400
       237.000         194.000
     95437.10949     71698.15447  22223170.630    22223170.470    22223180.395
       230.000         190.000
    103344.27149     77984.18347  21174654.339    21174654.208    21174661.770
       244.000         212.000
    216909.14949    164303.91846  22469842.619    22469842.447    22469850.615
       235.000         187.000
   -332460.86859   -245102.94655  24999792.626    24999792.025    24999802.809
       209.000         133.000
 01 11 12 16 12 59.9990000  0  8G22G20G14G 1G29G25G11G13
   -915647.18949   -687804.32547  21893777.818    21893777.064    21893788.044
       231.000         188.000
   -667440.55749   -502169.48547  20543716.759    20543716.093    20543723.749
       242.000         209.000
    265459.36949    200363.25045  24767489.192    24767488.972    24767506.058
       208.000         133.000
   -690318.75849   -521229.51247  22047841.520    22047841.118    22047850.381
       237.000         195.000
    111193.83449     83975.93047  22226169.168    22226168.953    22226178.878
       231.000         191.000
    121189.37749     91889.33647  21178050.202    21178050.050    21178057.644
       243.000         211.000
    251827.61749    191512.93546  22476487.637    22476487.315    22476495.477
       233.000         187.000
   -450496.34049   -337078.82445  24977331.196    24977331.516    24977340.256
       211.000         137.000
 01 11 12 16 13 29.9990000  0  8G22G20G14G 1G29G25G11G13
  -1039091.35649   -783994.52747  21870287.133    21870286.413    21870297.417
       231.000         188.000
   -756868.80049   -571853.85947  20526699.120    20526698.491    20526706.140
       242.000         209.000
    302120.28349    228929.74545  24774465.729    24774465.567    24774482.659
       208.000         137.000
   -784339.39449   -594492.36247  22029950.020    22029949.616    22029958.888
       237.000         196.000
    127062.91149     96341.25047  22229189.090    22229188.817    22229198.789
       230.000         190.000
    139355.70849    106044.80347  21181507.242    21181507.033    21181514.634
       244.000         211.000
    287032.08449    218944.78846  22483186.964    22483186.588    22483194.788
       232.000         186.000
   -568492.73359   -429024.25555  24954877.373    24954877.911    24954888.082
       213.000         142.000
 01 11 12 16 13 59.9990000  0  8G22G20G14G 1G29G25G11G13
  -1162189.28649   -879914.92947  21846862.376    21846861.646    21846872.667
       231.000         188.000
   -845885.04349   -641217.19347  20509759.971    20509759.292    20509766.931
       242.000         209.000
    338796.50649    257508.17945  24781445.382    24781445.056    24781462.100
       209.000         145.000
   -878234.04249   -667657.03547  22012082.453    22012082.067    22012091.346
       238.000         197.000
    143036.24749    108787.80947  22232228.813    22232228.513    22232238.539
       230.000         191.000
    157833.47849    120442.95247  21185023.518    21185023.287    21185030.893
       244.000         211.000
    322511.56749    246590.96346  22489938.665    22489938.225    22489946.384
       233.000         186.000
   -686458.33149   -520945.68345  24932429.497    24932430.284    24932439.842
       208.000         143.000
 01 11 12 16 14 29.9990000  0  8G22G20G14G 1G29G25G11G13
  -1284959.55949   -975580.02447  21823499.924    21823499.217    21823510.267
       231.000         189.000
   -934508.64649   -710274.58047  20492895.505    20492894.831    20492902.457
       241.000         210.000
    375466.03349    286081.37145  24788423.620    24788423.239    24788440.393
       211.000         149.000
   -972024.60849   -740740.63147  21994234.840    21994234.385    21994243.580
       238.000         196.000
    159092.40449    121298.89447  22235284.289    22235283.981    22235294.047
       229.000         190.000
    176598.80649    135065.16147  21188594.483    21188594.250    21188601.893
       243.000         212.000
    358241.58049    274432.33246  22496737.933    22496737.489    22496745.722
       232.000         186.000
   -804414.84649   -612860.09745  24909983.107    24909983.447    24909993.089
       211.000         135.000
 01 11 12 16 14 59.9990000  0  8G22G20G14G 1G29G25G11G13
  -1407392.65749  -1070982.39147  21800201.618    21800200.934    21800212.008
       231.000         188.000
  -1022731.70849   -779019.85347  20476107.246    20476106.571    20476114.193
       241.000         210.000
    412134.99049    314654.10345  24795401.798    24795401.295    24795418.599
       209.000         152.000
  -1065705.16149   -813738.49147  21976408.034    21976407.569    21976416.766
       237.000         196.000
    175237.30649    133879.14047  22238356.692    22238356.342    22238366.445
       229.000         189.000
    195655.73949    149914.59547  21192221.006    21192220.728    21192228.381
       244.000         211.000
    394225.35749    302471.44847  22503585.602    22503585.076    22503593.404
       234.000         188.000
   -922356.25649   -704762.75945  24887539.772    24887540.121    24887549.437
       211.000         143.000
 01 11 12 16 15 29.9990000  0  8G22G20G14G 1G29G25G11G13
  -1529499.75749  -1166130.74247  21776965.388    21776964.707    21776975.780
       231.000         189.000
  -1110566.31549   -847462.44247  20459392.919    20459392.238    20459399.866
       241.000         210.000
    448789.12949    343215.31345  24802377.208    24802376.579    24802393.958
       213.000         154.000
  -1159289.96649   -886661.75447  21958599.454    21958598.997    21958608.188
       238.000         196.000
    191456.58049    146517.32947  22241443.336    22241442.880    22241453.017
       229.000         189.000
    214987.96449    164978.54247  21195899.902    21195899.595    21195907.240
       243.000         211.000
    430445.47649    330694.71446  22510478.174    22510477.641    22510485.985
       233.000         185.000
  -1040296.87649   -796664.69545  24865096.505    24865096.853    24865106.055
       212.000         148.000
 01 11 12 16 15 59.9990000  0  8G22G20G14G 1G29G25G11G13
  -1651301.76249  -1261041.36347  21753787.195    21753786.523    21753797.640
       232.000         189.000
  -1198034.72449   -915619.67747  20442748.254    20442747.578    20442755.223
       241.000         210.000
    485404.28349    371746.13145  24809345.266    24809344.421    24809361.889
       212.000         155.000
  -1252803.37749   -959529.38947  21940804.483    21940804.014    21940813.188
       237.000         196.000
    207726.04249    159194.63647  22244539.509    22244539.006    22244549.173
       229.000         189.000
    234568.95849    180236.33947  21199626.110    21199625.792    21199633.463
       243.000         211.000
    466874.69749    359080.93047  22517410.588    22517410.004    22517418.379
       233.000         188.000
  -1158261.07249   -888584.99545  24842648.961    24842649.167    24842658.529
       209.000         146.000
 01 11 12 16 16 29.9990000  0  8G22G20G14G 1G29G25G11G13
  -1772783.80949  -1355702.67647  21730669.879    21730669.230    21730680.332
       231.000         189.000
  -1285123.10749   -983480.78747  20426175.934    20426175.233    20426182.904
       241.000         210.000
    521992.03649    400255.60645  24816308.104    24816307.128    24816324.650
       212.000         150.000
  -1346233.86349  -1032332.40447  21923025.233    21923024.788    21923033.971
       237.000         196.000
    224057.34449    171920.11547  22247647.394    22247646.886    22247657.070
       228.000         188.000
    254408.55249    195695.63447  21203401.504    21203401.203    21203408.927
       244.000         211.000
    503521.70349    387636.82246  22524384.358    22524383.807    22524392.294
       230.000         185.000
  -1276237.40949   -980514.77645  24820198.961    24820199.069    24820208.564
       208.000         140.000
 01 11 12 16 16 59.9990000  0  8G22G20G14G 1G29G25G11G13
  -1893912.91949  -1450088.95947  21707619.766    21707619.106    21707630.251
       231.000         190.000
  -1371799.60449  -1051020.94247  20409681.957    20409681.268    20409688.957
       241.000         210.000
    558582.13149    428766.93345  24823271.387    24823270.330    24823287.816
       206.000         146.000
  -1439551.71249  -1105047.64847  21905267.488    21905267.022    21905276.211
       239.000         197.000
    240480.29449    184717.01546  22250772.646    22250772.173    22250782.405
       226.000         186.000
    274534.04849    211377.71747  21207231.361    21207231.033    21207238.800
       243.000         211.000
    540413.58149    416383.52546  22531404.682    22531404.174    22531412.730
       231.000         182.000
  -1394196.35449  -1072430.93045  24797752.216    24797752.261    24797761.823
       211.000         144.000
 01 11 12 16 17 29.9990000  0  8G22G20G14G 1G29G25G11G13
  -2014675.76349  -1544189.86047  21684639.349    21684638.675    21684649.819
       232.000         192.000
  -1458052.05749  -1118230.67747  20393268.710    20393268.003    20393275.688
       241.000         210.000
    595184.71349    457287.96745  24830236.881    24830235.779    24830253.487
       203.000         143.000
  -1532746.98449  -1177667.38447  21887533.071    21887532.599    21887541.740
       239.000         197.000
    257005.05249    197593.24246  22253917.249    22253916.811    22253927.131
       228.000         186.000
    294953.56549    227288.90347  21211117.139    21211116.804    21211124.590
       244.000         210.000
    577557.17549    445326.39446  22538472.976    22538472.471    22538481.013
       231.000         184.000
  -1512127.62549  -1164325.55945  24775310.811    24775310.739    24775320.211
       213.000         146.000
 01 11 12 16 17 59.9990000  0  8G22G20G14G 1G29G25G11G13
  -2135096.64249  -1638024.29647  21661724.017    21661723.326    21661734.489
       232.000         192.000
  -1543906.15649  -1185130.01047  20376931.290    20376930.543    20376938.202
       239.000         209.000
    631772.29649    485797.33045  24837199.532    24837198.413    24837216.251
       206.000         144.000
  -1625847.28849  -1250213.11547  21869816.648    21869816.213    21869825.341
       237.000         197.000
    273604.02049    210527.29647  22257076.095    22257075.640    22257085.979
       230.000         188.000
    315637.65949    243406.25847  21215053.347    21215052.950    21215060.747
       244.000         211.000
    614922.02149    474441.64246  22545583.456    22545582.898    22545591.509
       232.000         184.000
  -1630059.12349  -1256220.38445  24752869.329    24752869.224    24752878.552
       214.000         146.000
 01 11 12 16 18 29.9990000  0  8G22G20G14G 1G29G25G11G13
  -2255163.25849  -1731582.70347  21638876.091    21638875.413    21638886.517
       231.000         191.000
  -1629350.56849  -1251710.10547  20360671.767    20360671.045    20360678.665
       239.000         209.000
    668353.81449    514301.96645  24844161.079    24844159.952    24844177.854
       206.000         147.000
  -1718843.54949  -1322677.76847  21852120.060    21852119.620    21852128.764
       238.000         197.000
    290286.29849    223526.27347  22260250.875    22260250.341    22260260.731
       229.000         189.000
    336593.30949    259735.21447  21219041.168    21219040.778    21219048.583
       244.000         211.000
    652514.24749    503734.07746  22552737.131    22552736.572    22552745.225
       232.000         181.000
  -1747981.85149  -1348108.29845  24730429.484    24730429.405    24730438.679
       210.000         148.000
 01 11 12 16 18 59.9990000  0  8G22G20G14G 1G29G25G11G13
  -2375203.06449  -1825120.20347  21616033.321    21616032.592    21616043.703
       232.000         191.000
  -1714714.12449  -1318227.19547  20344427.684    20344426.933    20344434.529
       239.000         209.000
    704598.61849    542544.22745  24851058.637    24851057.475    24851075.457
       208.000         150.000
  -1812066.57549  -1395319.11447  21834380.383    21834379.921    21834389.035
       238.000         197.000
    306721.27049    236332.53646  22263378.502    22263377.955    22263388.410
       228.000         187.000
    357487.99649    276016.66547  21223017.447    21223017.000    21223024.837
       244.000         210.000
    690000.15349    532943.68946  22559870.715    22559870.075    22559878.698
       232.000         184.000
  -1866226.56849  -1440247.09645  24707928.441    24707928.318    24707937.648
       211.000         147.000
 01 11 12 16 19 29.9990000  0  8G22G20G14G 1G29G25G11G13
  -2494904.40449  -1918393.98147  21593254.934    21593254.196    21593265.248
       232.000         192.000
  -1799686.13649  -1384439.18947  20328258.059    20328257.327    20328264.914
       238.000         209.000
    740815.22849    570764.52945  24857950.900    24857949.572    24857967.756
       212.000         152.000
  -1905207.97549  -1467896.87347  21816656.195    21816655.736    21816664.872
       238.000         198.000
    323217.47049    249186.51246  22266517.768    22266517.198    22266527.678
       228.000         185.000
    378627.73149    292489.06347  21227040.286    21227039.860    21227047.705
       244.000         210.000
    727685.37549    562308.57946  22567042.085    22567041.455    22567050.149
       230.000         181.000
  -1984484.78049  -1532396.49345  24685424.686    24685424.573    24685434.142
       210.000         144.000
 01 11 12 16 19 59.9990000  0  8G22G20G14G 1G29G25G11G13
  -2614172.60349  -2011330.23847  21570558.965    21570558.229    21570569.266
       232.000         192.000
  -1884173.14349  -1450273.26347  20312180.656    20312179.991    20312187.598
       238.000         209.000
    777095.40449    599034.37545  24864855.237    24864853.808    24864872.080
       209.000         151.000
  -1998176.22349  -1540339.69147  21798965.000    21798964.510    21798973.646
       239.000         198.000
    339866.30149    262159.43046  22269686.168    22269685.557    22269695.999
       230.000         186.000
    400102.05049    309222.17847  21231126.831    21231126.387    21231134.230
       244.000         210.000
    765658.24649    591897.61446  22574268.196    22574267.579    22574276.302
       232.000         183.000
  -2102665.15349  -1624485.23945  24662935.640    24662935.557    24662945.185
       211.000         142.000
 01 11 12 16 20 29.9990000  0  8G22G20G14G 1G29G25G11G13
  -2733087.04049  -2103990.83947  21547930.315    21547929.557    21547940.576
       231.000         192.000
  -1968255.55749  -1515792.07247  20296180.319    20296179.650    20296187.289
       238.000         209.000
    813356.38549    627289.30445  24871755.760    24871754.383    24871772.777
       207.000         149.000
  -2091053.99449  -1612712.01147  21781290.970    21781290.487    21781299.664
       238.000         199.000
    356585.31449    275187.03746  22272867.922    22272867.261    22272877.665
       228.000         187.000
    421826.31149    326150.04747  21235260.900    21235260.465    21235268.349
       244.000         210.000
    803833.34949    621644.23546  22581532.942    22581532.260    22581541.022
       232.000         183.000
  -2220850.62549  -1716577.96545  24640445.818    24640445.745    24640455.185
       215.000         147.000
 01 11 12 16 20 59.9980000  0  8G22G20G14G 1G29G25G11G13
  -2851650.97449  -2196378.32047  21525368.325    21525367.579    21525378.616
       232.000         192.000
  -2051939.22749  -1581000.16647  20280255.872    20280255.204    20280262.845
       237.000         208.000
    849586.47849    655520.16345  24878650.267    24878649.000    24878667.502
       206.000         146.000
  -2183848.58049  -1685019.50247  21763632.785    21763632.285    21763641.530
       239.000         198.000
    373363.63049    288260.83646  22276060.846    22276060.216    22276070.686
       227.000         187.000
    443786.93349    343262.09647  21239439.950    21239439.515    21239447.435
       244.000         210.000
    842196.03349    651537.01746  22588833.336    22588832.590    22588841.404
       232.000         180.000
  -2339047.83949  -1808679.86945  24617953.843    24617953.695    24617963.086
       218.000         153.000
 01 11 12 16 21 29.9980000  0  8G22G20G14G 1G29G25G11G13
  -2969891.51949  -2288513.80147  21502867.826    21502867.129    21502878.195
       232.000         192.000
  -2135250.14749  -1645917.80547  20264402.398    20264401.706    20264409.326
       237.000         208.000
    885765.96049    683711.58645  24885535.244    24885534.025    24885552.693
       206.000         145.000
  -2276588.56649  -1757284.45647  21745985.018    21745984.500    21745993.705
       238.000         198.000
    390179.94749    301364.23746  22279261.036    22279260.402    22279270.965
       227.000         186.000
    465961.02649    360540.49247  21243659.683    21243659.196    21243667.123
       243.000         210.000
    880723.39949    681558.14846  22596165.012    22596164.242    22596173.082
       232.000         179.000
  -2457286.44949  -1900814.02645  24595453.979    24595453.757    24595463.243
       215.000         152.000
 01 11 12 16 21 59.9980000  0  8G22G20G14G 1G29G25G11G13
  -3087850.28949  -2380429.71447  21480420.994    21480420.277    21480431.356
       233.000         192.000
  -2218232.09649  -1710579.10847  20248611.505    20248610.798    20248618.424
       238.000         208.000
    921844.76649    711824.57345  24892401.093    24892399.905    24892418.636
       204.000         145.000
  -2369319.65549  -1829542.46947  21728338.872    21728338.366    21728347.590
       238.000         198.000
    406985.18449    314459.02046  22282459.149    22282458.503    22282469.095
       228.000         185.000
    488297.19649    377945.17547  21247910.108    21247909.694    21247917.674
       243.000         210.000
    919362.46949    711666.30646  22603517.912    22603517.146    22603526.061
       231.000         181.000
  -2575611.83049  -1993015.83945  24572937.494    24572937.365    24572946.996
       213.000         151.000
 01 11 12 16 22 29.9980000  0  8G22G20G14G 1G29G25G11G13
  -3205475.49349  -2472085.71347  21458037.646    21458036.947    21458047.940
       233.000         191.000
  -2300834.73549  -1774944.84447  20232892.749    20232892.042    20232899.700
       237.000         208.000
    957871.36549    739896.89145  24899257.134    24899255.831    24899274.607
       201.000         146.000
  -2461993.40649  -1901755.79847  21710703.635    21710703.153    21710712.422
       238.000         198.000
    423827.72449    327582.88446  22285664.342    22285663.709    22285674.288
       227.000         183.000
    510841.92049    395512.36347  21252200.328    21252199.899    21252207.937
       244.000         211.000
    958158.95349    741897.10846  22610900.767    22610900.040    22610909.028
       232.000         181.000
  -2693975.49149  -2085247.46545  24550413.637    24550413.569    24550423.214
       211.000         144.000
 01 11 12 16 22 59.9980000  0  8G22G20G14G 1G29G25G11G13
  -3322705.08349  -2563433.43847  21435729.604    21435728.901    21435739.827
       233.000         192.000
  -2382996.76749  -1838967.25647  20217257.817    20217257.143    20217264.818
       237.000         208.000
    993905.26849    767974.89245  24906114.449    24906113.190    24906132.088
       201.000         144.000
  -2554550.52249  -1973878.25247  21693090.637    21693090.149    21693099.413
       239.000         198.000
    440767.12949    340782.22246  22288887.870    22288887.278    22288897.900
       226.000         183.000
    533652.45649    413286.67347  21256541.183    21256540.717    21256548.795
       243.000         211.000
    997168.76949    772294.13946  22618324.159    22618323.480    22618332.581
       230.000         177.000
  -2812318.24049  -2177462.76845  24527894.032    24527893.858    24527903.398
       211.000         151.000
 01 11 12 16 23 29.9980000  0  8G22G20G14G 1G29G25G11G13
  -3439501.71949  -2654443.77347  21413503.933    21413503.230    21413514.165
       234.000         193.000
  -2464682.14949  -1902618.23947  20201713.592    20201712.947    20201720.650
       236.000         208.000
   1029980.24849    796084.93845  24912979.556    24912978.298    24912997.276
       202.000         142.000
  -2646957.14649  -2045883.43947  21675506.219    21675505.762    21675515.032
       238.000         198.000
    457836.95149    354083.17346  22292136.205    22292135.683    22292146.373
       227.000         185.000
    556760.82349    431293.05947  21260938.667    21260938.202    21260946.306
       243.000         210.000
   1036423.04149    802881.68646  22625794.156    22625793.472    22625802.549
       233.000         179.000
  -2930606.05549  -2269635.25745  24505384.807    24505384.519    24505394.064
       208.000         147.000
 01 11 12 16 23 59.9980000  0  8G22G20G14G 1G29G25G11G13
  -3555796.78749  -2745063.29147  21391373.753    21391373.009    21391383.967
       235.000         194.000
  -2545823.55749  -1965845.35847  20186272.915    20186272.266    20186279.992
       236.000         208.000
   1066161.90848    824278.08245  24919865.144    24919863.815    24919882.724
       193.000         138.000
  -2739147.93049  -2117720.44247  21657962.873    21657962.450    21657971.760
       237.000         198.000
    475102.98149    367537.00646  22295421.957    22295421.439    22295432.207
       229.000         185.000
    580229.86649    449580.49047  21265404.740    21265404.303    21265412.432
       243.000         210.000
   1075984.06049    833708.24946  22633322.687    22633321.915    22633330.998
       231.000         180.000
  -3048773.72549  -2361714.07945  24482898.240    24482898.034    24482907.632
       203.000         144.000
 01 11 12 16 24 29.9980000  0  8G22G20G14G 1G29G25G11G13
  -3671675.16249  -2835358.09347  21369322.851    21369322.097    21369333.023
       235.000         194.000
  -2626507.10349  -2028715.68047  20170919.375    20170918.731    20170926.465
       237.000         207.000
   1102362.49648    852485.98345  24926754.173    24926752.890    24926771.944
       193.000         133.000
  -2831210.56849  -2189457.58347  21640444.021    21640443.569    21640452.870
       238.000         198.000
    492477.38549    381075.30246  22298728.341    22298727.821    22298738.634
       227.000         183.000
    603970.15249    468079.27347  21269922.450    21269922.026    21269930.200
       243.000         210.000
   1115761.31949    864703.24446  22640892.094    22640891.394    22640900.684
       230.000         181.000
  -3166909.15649  -2453767.74045  24460417.830    24460417.691    24460427.565
       210.000         151.000
 01 11 12 16 24 59.9980000  0  8G22G20G14G 1G29G25G11G13
  -3787163.93149  -2925349.31347  21347346.057    21347345.317    21347356.191
       235.000         193.000
  -2706760.98449  -2091251.20347  20155647.646    20155646.977    20155654.695
       236.000         207.000
   1138551.54849    880684.89845  24933640.995    24933639.581    24933658.825
       201.000         137.000
  -2923175.52549  -2261118.61747  21622943.674    21622943.220    21622952.525
       238.000         197.000
    509930.02649    394674.55646  22302049.603    22302049.099    22302059.873
       227.000         181.000
    627949.12949    486764.04947  21274485.544    21274485.149    21274493.374
       242.000         210.000
   1155721.44749    895840.78446  22648496.420    22648495.709    22648505.057
       232.000         181.000
  -3285042.67449  -2545819.88745  24437937.890    24437937.713    24437947.773
       210.000         153.000
 01 11 12 16 25 29.9980000  0  8G22G20G14G 1G29G25G11G13
  -3902270.03049  -3015042.34047  21325442.070    21325441.340    21325452.197
       235.000         194.000
  -2786593.10849  -2153458.08347  20140456.179    20140455.473    20140463.186
       237.000         207.000
   1174719.36149    908867.37045  24940523.693    24940522.342    24940541.616
       200.000         136.000
  -3015052.62549  -2332711.18647  21605460.028    21605459.601    21605468.865
       238.000         197.000
    527450.97749    408327.02746  22305383.931    22305383.387    22305394.137
       227.000         181.000
    652154.58849    505625.30247  21279091.772    21279091.389    21279099.630
       242.000         209.000
   1195851.35749    927110.65346  22656133.170    22656132.407    22656141.738
       232.000         182.000
  -3403184.36649  -2637878.41945  24415456.555    24415456.278    24415466.199
       210.000         150.000
 01 11 12 16 25 59.9980000  0  7G22G20G 1G29G25G11G13
  -4016997.86749  -3104440.62547  21303610.060    21303609.343    21303620.196
       235.000         195.000
  -2866009.40649  -2215340.94447  20125343.815    20125343.094    20125350.805
       236.000         207.000
  -3106849.48949  -2404241.24047  21587991.722    21587991.265    21588000.489
       239.000         198.000
    545032.79249    422026.93146  22308729.852    22308729.257    22308740.022
       228.000         184.000
    676577.16549    524655.73847  21283739.374    21283738.947    21283747.213
       242.000         209.000
   1236140.40249    958504.48446  22663800.026    22663799.316    22663808.755
       230.000         183.000
  -3521341.79249  -2729949.12045  24392971.978    24392971.708    24392981.617
       212.000         155.000
 01 11 12 16 26 29.9980000  0  7G22G20G 1G29G25G11G13
  -4131334.32449  -3193533.92947  21281852.505    21281851.804    21281862.725
       235.000         195.000
  -2944997.74949  -2276890.33847  20110312.803    20110312.115    20110319.840
       236.000         207.000
  -3198555.96049  -2475700.85947  21570540.598    21570540.124    21570549.397
       239.000         199.000
    562685.46049    435782.03946  22312089.331    22312088.665    22312099.424
       229.000         184.000
    701224.58249    543861.37147  21288429.717    21288429.305    21288437.599
       242.000         209.000
   1276595.77649    990027.88846  22671498.475    22671497.824    22671507.466
       228.000         181.000
  -3639505.14749  -2822024.43845  24370486.088    24370486.014    24370496.066
       213.000         155.000
 01 11 12 16 26 59.9980000  0  7G22G20G 1G29G25G11G13
  -4245262.31149  -3282308.95147  21260172.759    21260172.037    21260182.912
       235.000         195.000
  -3023542.05649  -2338093.73147  20095366.331    20095365.662    20095373.358
       236.000         207.000
  -3290158.03449  -2547079.13047  21553109.280    21553108.863    21553118.148
       240.000         200.000
    580423.19849    449603.43746  22315464.881    22315464.235    22315475.022
       227.000         182.000
    726108.90049    563251.59147  21293165.120    21293164.725    21293173.083
       242.000         208.000
   1317228.53349   1021689.54846  22679230.814    22679230.133    22679239.854
       231.000         180.000
  -3757660.06449  -2914093.19145  24348002.091    24348001.941    24348012.198
       210.000         154.000
 01 11 12 16 27 29.9980000  0  7G22G20G 1G29G25G11G13
  -4358784.62849  -3370767.87247  21238570.174    21238569.453    21238580.321
       238.000         198.000
  -3101646.54849  -2398954.39947  20080503.573    20080502.895    20080510.588
       237.000         206.000
  -3381661.47449  -2618380.53947  21535696.840    21535696.376    21535705.624
       238.000         199.000
    598240.27949    463486.64646  22318855.537    22318854.885    22318865.718
       228.000         181.000
    751222.24849    582820.28147  21297944.123    21297943.730    21297952.117
       244.000         209.000
   1358029.75549   1053482.49546  22686995.323    22686994.560    22687004.262
       230.000         179.000
  -3875812.92749  -3006160.39145  24325518.518    24325518.256    24325528.633
       213.000         155.000
 01 11 12 16 27 59.9980000  0  7G22G20G 1G29G25G11G13
  -4471900.98149  -3458910.44447  21217044.747    21217044.082    21217054.927
       235.000         195.000
  -3179312.08849  -2459473.03047  20065724.382    20065723.672    20065731.370
       236.000         207.000
  -3473069.28449  -2689607.42747  21518302.501    21518302.059    21518311.311
       238.000         199.000
    616133.97649    477429.57046  22322260.834    22322260.137    22322270.973
       228.000         183.000
    776560.07349    602563.90447  21302765.901    21302765.479    21302773.861
       242.000         208.000
   1398993.71949   1085402.22146  22694790.679    22694789.911    22694799.679
       230.000         180.000
  -3993966.48649  -3098228.13245  24303034.607    24303034.480    24303044.759
       213.000         152.000
 01 11 12 16 28 29.9980000  0  7G22G20G 1G29G25G11G13
  -4584629.04049  -3546750.46147  21195593.280    21195592.620    21195603.435
       235.000         195.000
  -3256557.20049  -2519664.06147  20051025.229    20051024.461    20051032.163
       236.000         208.000
  -3564401.83849  -2760775.67247  21500922.530    21500922.069    21500931.373
       238.000         199.000
    634083.87549    491416.29746  22325676.922    22325676.121    22325686.929
       227.000         182.000
    802099.75249    622464.79947  21307626.071    21307625.622    21307634.021
       242.000         208.000
   1440096.86149   1117430.39546  22702612.589    22702611.759    22702621.592
       230.000         181.000
  -4112141.24349  -3190312.42045  24280546.500    24280546.614    24280556.704
       212.000         147.000
 01 11 12 16 28 59.9980000  0  7G22G20G 1G29G25G11G13
  -4697206.61049  -3634473.22247  21174170.448    21174169.798    21174180.603
       236.000         197.000
  -3333621.35549  -2579714.08647  20036360.445    20036359.684    20036367.398
       236.000         207.000
  -3655900.21549  -2832073.13047  21483511.000    21483510.541    21483519.821
       239.000         199.000
    651849.00149    505259.02346  22329057.666    22329056.904    22329067.777
       227.000         183.000
    827597.67549    642333.15947  21312478.298    21312477.833    21312486.229
       242.000         208.000
   1481094.99849   1149376.74246  22710414.418    22710413.615    22710423.491
       228.000         178.000
  -4230578.50549  -3282601.25545  24258008.762    24258008.787    24258018.921
       214.000         151.000
 01 11 12 16 29 29.9980000  0  7G22G20G 1G29G25G11G13
  -4809188.72149  -3721731.97947  21152861.012    21152860.331    21152871.142
       236.000         197.000
  -3410060.55649  -2639277.13347  20021814.560    20021813.824    20021821.531
       236.000         207.000
  -3747122.47449  -2903155.43647  21466151.975    21466151.537    21466160.798
       239.000         200.000
    669871.48049    519302.27446  22332487.300    22332486.625    22332497.625
       227.000         183.000
    853494.12749    662512.07847  21317406.298    21317405.869    21317414.286
       241.000         207.000
   1522427.40249   1181583.56946  22718279.860    22718279.066    22718288.965
       228.000         178.000
  -4348836.03849  -3374750.10345  24235505.355    24235505.237    24235515.535
       216.000         150.000
 01 11 12 16 29 59.9980000  0  7G22G20G 1G29G25G11G13
  -4920629.02049  -3808568.55047  21131654.590    21131653.916    21131664.760
       236.000         197.000
  -3485929.61049  -2698395.90747  20007377.158    20007376.458    20007384.148
       235.000         207.000
  -3838125.13649  -2974066.62247  21448834.739    21448834.327    21448843.594
       239.000         200.000
    688094.72849    533501.97346  22335955.202    22335954.548    22335965.628
       227.000         183.000
    879730.42849    682955.80547  21322398.969    21322398.557    21322407.028
       242.000         207.000
   1564034.27349   1214004.26246  22726197.538    22726196.754    22726206.677
       229.000         179.000
  -4466970.68549  -3466803.22545  24213025.045    24213025.015    24213035.421
       211.000         145.000
 01 11 12 16 30 29.9980000  0  7G22G20G 1G29G25G11G13
  -5031617.19049  -3895052.82547  21110534.249    21110533.570    21110544.357
       236.000         197.000
  -3561319.27949  -2757141.13347  19993031.033    19993030.318    19993037.996
       236.000         207.000
  -3929000.85849  -3044878.90147  21431541.735    21431541.282    21431550.551
       239.000         201.000
    706426.18949    547785.99446  22339443.733    22339443.089    22339454.203
       227.000         182.000
    906211.53849    703590.29647  21327438.283    21327437.861    21327446.367
       242.000         207.000
   1605820.00949   1246564.33346  22734149.276    22734148.501    22734158.501
       229.000         180.000
  -4585075.32149  -3558833.00545  24190550.318    24190550.453    24190560.662
       210.000         139.000
 01 11 12 16 30 59.9980000  0  7G22G20G 1G29G25G11G13
  -5142160.10249  -3981190.14647  21089498.629    21089497.928    21089508.755
       236.000         198.000
  -3636237.64949  -2815519.10847  19978774.536    19978773.848    19978781.552
       235.000         207.000
  -4019759.25949  -3115599.75347  21414270.960    21414270.544    21414279.862
       239.000         200.000
    724856.22049    562146.83946  22342950.996    22342950.376    22342961.531
       227.000         183.000
    932925.88249    724406.53047  21332522.012    21332521.542    21332530.108
       242.000         208.000
   1647771.80549   1279253.79046  22742132.655    22742131.876    22742141.880
       228.000         179.000
  -4703159.77949  -3650847.01345  24168079.729    24168079.631    24168089.764
       212.000         138.000
 01 11 12 16 31 29.9980000  0  7G22G20G 1G29G25G11G13
  -5252268.45449  -4066988.86147  21068545.731    21068545.012    21068555.865
       235.000         198.000
  -3710696.49349  -2873539.01947  19964605.572    19964604.843    19964612.546
       236.000         207.000
  -4110413.90249  -3186239.75647  21397019.938    21397019.557    21397028.858
       239.000         200.000
    743371.19849    576573.86246  22346474.408    22346473.818    22346485.056
       226.000         183.000
    959857.95449    745392.42647  21337647.094    21337646.647    21337655.265
       241.000         207.000
   1689873.05349   1312059.69246  22750144.388    22750143.633    22750153.715
       227.000         177.000
  -4821237.10849  -3742855.54145  24145610.642    24145610.396    24145620.430
       213.000         139.000
 01 11 12 16 31 59.9980000  0  7G22G20G 1G29G25G11G13
  -5361950.36949  -4152455.28647  21047673.970    21047673.222    21047684.108
       236.000         198.000
  -3784705.20449  -2931208.17647  19950522.175    19950521.480    19950529.199
       235.000         208.000
  -4200975.83149  -3256807.52147  21379786.650    21379786.209    21379795.515
       239.000         200.000
    761960.21949    591058.56946  22350011.947    22350011.339    22350022.662
       226.000         183.000
    986994.51349    766537.66647  21342811.113    21342810.668    21342819.318
       241.000         207.000
   1732109.48649   1344970.95646  22758181.903    22758181.151    22758191.283
       226.000         178.000
  -4939318.92349  -3834867.52745  24123140.430    24123140.245    24123150.541
       213.000         140.000
 01 11 12 16 32 29.9980000  0  7G22G20G 1G29G25G11G13
  -5471196.16449  -4237581.88747  21026885.115    21026884.413    21026895.300
       236.000         198.000
  -3858255.31149  -2988519.97447  19936526.085    19936525.397    19936533.119
       235.000         207.000
  -4291438.36749  -3327297.83747  21362572.152    21362571.762    21362581.101
       240.000         201.000
    780630.00649    605606.20546  22353564.794    22353564.251    22353575.644
       226.000         183.000
   1014340.25949    787845.91247  21348014.981    21348014.510    21348023.179
       242.000         207.000
   1774485.03249   1377990.58246  22766245.845    22766245.088    22766255.333
       227.000         175.000
  -5057398.65749  -3926877.85945  24100670.605    24100670.520    24100680.947
       216.000         144.000
 01 11 12 16 32 59.9980000  0  7G22G20G 1G29G25G11G13
  -5580009.15149  -4322371.23747  21006178.667    21006177.973    21006188.837
       236.000         197.000
  -3931351.15149  -3045477.79947  19922616.411    19922615.743    19922623.485
       235.000         207.000
  -4381807.64349  -3397715.48847  21345375.482    21345375.084    21345384.417
       239.000         201.000
    799374.71949    620212.24346  22357131.980    22357131.429    22357142.872
       227.000         182.000
   1041886.58849    809310.45647  21353257.012    21353256.531    21353265.223
       241.000         207.000
   1816990.34449   1411111.35446  22774334.576    22774333.790    22774344.065
       227.000         175.000
  -5175482.23649  -4018891.18645  24078200.288    24078200.114    24078210.378
       219.000         144.000
 01 11 12 16 33 29.9980000  0  7G22G20G 1G29G25G11G13
  -5688360.24849  -4406800.67447  20985560.109    20985559.431    20985570.283
       236.000         198.000
  -4003964.88849  -3102059.95647  19908798.462    19908797.826    19908805.580
       235.000         207.000
  -4472057.44149  -3468040.03347  21328201.528    21328201.128    21328210.472
       239.000         201.000
    818220.45849    634897.01946  22360718.433    22360717.823    22360729.255
       226.000         180.000
   1069658.00649    830950.40147  21358541.872    21358541.367    21358550.096
       241.000         207.000
   1859648.81449   1444351.47746  22782452.503    22782451.650    22782461.956
       227.000         174.000
  -5293543.60549  -4110887.18245  24055734.094    24055733.885    24055743.996
       219.000         148.000
 01 11 12 16 33 59.9980000  0  7G22G20G 1G29G25G11G13
  -5796265.04749  -4490882.35447  20965026.545    20965025.821    20965036.655
       236.000         198.000
  -4076113.34349  -3158279.56547  19895069.094    19895068.460    19895076.224
       235.000         207.000
  -4562205.78449  -3538285.52647  21311046.897    21311046.485    21311055.819
       240.000         201.000
    837148.87649    649646.20546  22364320.534    22364319.936    22364331.414
       225.000         180.000
   1097634.14849    852749.86447  21363865.594    21363865.128    21363873.913
       242.000         206.000
   1902438.84249   1477694.10246  22790595.475    22790594.545    22790604.847
       227.000         174.000
  -5411601.18849  -4202880.17645  24033268.476    24033268.386    24033278.558
       219.000         152.000
 01 11 12 16 34 29.9980000  0  7G22G20G 1G29G25G11G13
  -5903721.30549  -4574614.53047  20944578.255    20944577.572    20944588.360
       236.000         198.000
  -4147795.33549  -3214135.69747  19881428.504    19881427.849    19881435.627
       235.000         207.000
  -4652253.47449  -3608452.59047  21293911.433    21293911.011    21293920.355
       239.000         201.000
    856159.31049    664459.28246  22367938.312    22367937.670    22367949.251
       226.000         183.000
   1125812.09749    874706.58847  21369227.765    21369227.309    21369236.125
       241.000         206.000
   1945356.62049   1511136.25946  22798762.622    22798761.736    22798772.015
       226.000         172.000
  -5529655.67449  -4294870.71745  24010803.601    24010803.486    24010813.794
       218.000         148.000
 01 11 12 16 34 59.9980000  0  7G22G20G 1G29G25G11G13
  -6010725.14149  -4657994.16647  20924216.119    20924215.423    20924226.200
       236.000         199.000
  -4219008.22549  -3269626.28747  19867877.198    19867876.527    19867884.287
       235.000         207.000
  -4742199.65049  -3678540.55947  21276795.303    21276794.859    21276804.181
       240.000         202.000
    875252.95449    679337.20646  22371571.930    22371571.277    22371582.947
       227.000         185.000
   1154190.75849    896819.70247  21374628.106    21374627.679    21374636.533
       241.000         206.000
   1988400.08449   1544676.36646  22806953.698    22806952.821    22806963.129
       226.000         173.000
  -5647706.30249  -4386858.28945  23988339.389    23988339.251    23988349.664
       216.000         145.000
 01 11 12 16 35 29.9980000  0  7G22G20G 1G29G25G11G13
  -6117266.66649  -4741013.55947  20903941.903    20903941.219    20903952.034
       236.000         198.000
  -4289743.23049  -3324744.50647  19854416.776    19854416.116    19854423.916
       234.000         207.000
  -4832036.98749  -3748543.72247  21259699.866    21259699.417    21259708.740
       241.000         201.000
    894437.11749    694285.65346  22375222.757    22375222.087    22375233.903
       225.000         182.000
   1182775.34349    919093.27347  21380067.691    21380067.241    21380076.140
       241.000         207.000
   2031573.66049   1578317.86746  22815169.577    22815168.671    22815178.985
       227.000         175.000
  -5765745.97049  -4478837.26745  23965877.131    23965877.120    23965887.454
       214.000         143.000
 01 11 12 16 35 59.9980000  0  7G22G20G 1G29G25G11G13
  -6223337.22449  -4823665.95747  20883757.355    20883756.655    20883767.509
       237.000         199.000
  -4359993.08649  -3379484.68247  19841048.632    19841048.028    19841055.867
       234.000         207.000
  -4921759.62149  -3818457.50247  21242626.232    21242625.794    21242635.123
       240.000         202.000
    913717.64949    709309.20346  22378891.881    22378891.226    22378903.161
       224.000         181.000
   1211569.55149    941530.19747  21385547.181    21385546.708    21385555.640
       241.000         206.000
   2074879.95249   1612062.75446  22823410.673    22823409.776    22823420.159
       227.000         174.000
  -5883769.07249  -4570803.39045  23943418.107    23943418.159    23943428.408
       216.000         143.000
 01 11 12 16 36 29.9980000  0  7G22G20G 1G29G25G11G13
  -6328935.21749  -4905950.13747  20863662.704    20863662.019    20863672.850
       237.000         200.000
  -4429757.08449  -3433846.26647  19827773.011    19827772.391    19827780.268
       234.000         207.000
  -5011368.51149  -3888282.65347  21225574.212    21225573.795    21225583.162
       240.000         202.000
    933093.57049    724407.07846  22382579.068    22382578.468    22382590.528
       224.000         179.000
   1240570.37549    964128.11147  21391065.883    21391065.481    21391074.444
       240.000         206.000
   2118314.76649   1645907.79546  22831676.190    22831675.345    22831685.822
       228.000         175.000
  -6001776.57149  -4662757.33845  23920962.266    23920962.168    23920972.502
       216.000         149.000
 01 11 12 16 36 59.9980000  0  7G22G20G 1G29G25G11G13
  -6434086.00349  -4987885.83347  20843653.212    20843652.505    20843663.311
       238.000         201.000
  -4499061.72249  -3487849.90547  19814584.819    19814584.180    19814592.070
       234.000         207.000
  -5100891.72649  -3958041.03047  21208538.537    21208538.118    21208547.504
       240.000         202.000
    952536.71149    739557.33246  22386279.152    22386278.542    22386290.689
       224.000         182.000
   1269747.36849    986863.29947  21396618.145    21396617.755    21396626.772
       240.000         206.000
   2161846.97549   1679828.73446  22839960.325    22839959.464    22839969.991
       227.000         172.000
  -6119796.67149  -4754721.15645  23898503.879    23898503.735    23898514.069
       218.000         148.000
 01 11 12 16 37 29.9980000  0  7G22G20G 1G29G25G11G13
  -6538840.11649  -5069512.42947  20823719.156    20823718.471    20823729.314
       237.000         201.000
  -4567958.78949  -3541535.95047  19801474.172    19801473.534    19801481.405
       234.000         207.000
  -5190382.57849  -4027774.19147  21191509.034    21191508.608    21191518.032
       240.000         203.000
    971993.96849    754718.59346  22389981.976    22389981.352    22389993.524
       226.000         184.000
   1299044.89249   1009692.38947  21402193.425    21402192.991    21402202.079
       241.000         206.000
   2205420.20949   1713781.65046  22848252.268    22848251.380    22848261.972
       225.000         171.000
  -6237882.98949  -4846736.57945  23876032.683    23876032.670    23876042.942
       216.000         149.000
 01 11 12 16 37 59.9980000  0  7G22G20G 1G29G25G11G13
  -6642991.35249  -5150669.25347  20803899.881    20803899.148    20803910.065
       238.000         201.000
  -4636243.38049  -3594744.75247  19788480.078    19788479.436    19788487.297
       234.000         207.000
  -5279637.40949  -4097323.44547  21174524.449    21174524.009    21174533.419
       240.000         202.000
    991668.85949    770049.41446  22393726.222    22393725.576    22393737.826
       224.000         183.000
   1328664.96149   1032772.81447  21407830.111    21407829.633    21407838.740
       241.000         205.000
   2249235.08349   1747922.83246  22856590.119    22856589.251    22856599.934
       224.000         170.000
  -6355831.87349  -4938644.91445  23853587.956    23853587.849    23853598.113
       214.000         148.000
 01 11 12 16 38 29.9980000  0  7G22G20G 1G29G25G11G13
  -6746672.71449  -5231459.94247  20784170.012    20784169.264    20784180.188
       238.000         201.000
  -4704049.35149  -3647580.59247  19775577.059    19775576.403    19775584.278
       234.000         207.000
  -5368791.85549  -4166794.46247  21157558.892    21157558.482    21157567.902
       240.000         202.000
   1011425.73949    785444.12546  22397486.014    22397485.366    22397497.703
       222.000         180.000
   1358469.95149   1055997.32947  21413501.910    21413501.442    21413510.600
       241.000         205.000
   2293152.93349   1782144.26346  22864947.488    22864946.696    22864957.466
       225.000         170.000
  -6473778.96049  -5030551.82345  23831143.595    23831143.384    23831153.653
       213.000         150.000
 01 11 12 16 38 59.9980000  0  7G22G20G 1G29G25G11G13
  -6849963.80449  -5311946.51147  20764514.337    20764513.626    20764524.548
       238.000         201.000
  -4771457.68349  -3700106.58747  19762749.737    19762749.060    19762756.932
       233.000         208.000
  -5457928.37549  -4236251.50947  21140596.875    21140596.405    21140605.826
       240.000         202.000
   1031182.41749    800838.68346  22401245.819    22401245.140    22401257.498
       225.000         179.000
   1388375.26249   1079300.01947  21419192.857    21419192.368    21419201.529
       241.000         205.000
   2337088.26349   1816379.31046  22873308.281    22873307.493    22873318.303
       226.000         169.000
  -6591806.68049  -5122521.54345  23808683.635    23808683.472    23808693.942
       210.000         148.000
 01 11 12 16 39 29.9980000  0  7G22G20G 1G29G25G11G13
  -6952693.39549  -5391995.55247  20744965.573    20744964.848    20744975.779
       238.000         201.000
  -4838298.27949  -3752190.19147  19750030.418    19750029.750    19750037.631
       233.000         207.000
  -5546878.07849  -4305562.98747  21123670.251    21123669.850    21123679.313
       240.000         203.000
   1051107.44049    816364.43646  22405037.726    22405037.014    22405049.249
       226.000         181.000
   1418546.97249   1102810.28647  21424934.396    21424933.955    21424943.147
       240.000         205.000
   2381206.25949   1850756.70246  22881703.856    22881703.061    22881713.933
       224.000         169.000
  -6709746.37649  -5214422.70945  23786240.450    23786240.340    23786250.809
       213.000         151.000
 01 11 12 16 39 59.9980000  0  8G22G20G 1G 4G29G25G11G13
  -7054889.43349  -5471628.83247  20725518.397    20725517.631    20725528.560
       238.000         202.000
  -4904600.02549  -3803853.91247  19737413.655    19737412.974    19737420.866
       233.000         208.000
  -5635671.38049  -4374752.59247  21106773.520    21106773.082    21106782.568
       240.000         203.000
   -972878.55559   -740331.39955  24573249.557    24573249.765    24573261.121
       203.000         142.000
   1071170.34749    831997.63146  22408855.833    22408855.088    22408867.303
       225.000         180.000
   1448952.83749   1126503.00647  21430720.562    21430720.104    21430729.332
       241.000         205.000
   2425473.72249   1885250.53046  22890127.888    22890127.048    22890137.969
       226.000         168.000
  -6827628.93749  -5306279.34045  23763808.242    23763808.107    23763818.557
       214.000         152.000
 01 11 12 16 40 29.9970000  0  8G22G20G 1G 4G29G25G11G13
  -7156578.38049  -5550866.96547  20706167.599    20706166.876    20706177.849
       238.000         201.000
  -4970392.01449  -3855120.41647  19724893.849    19724893.190    19724901.107
       234.000         207.000
  -5724338.04549  -4443843.51047  21089900.877    21089900.409    21089909.916
       241.000         203.000
  -1075661.65249   -820422.30945  24553690.762    24553690.892    24553702.257
       205.000         140.000
   1091338.14949    847712.55046  22412693.850    22412693.082    22412705.389
       223.000         179.000
   1479557.37749   1150350.53047  21436544.524    21436544.059    21436553.302
       241.000         204.000
   2469853.45849   1919831.89746  22898573.289    22898572.430    22898583.323
       226.000         166.000
  -6945482.99649  -5398113.74145  23741381.417    23741381.283    23741391.823
       210.000         151.000
 01 11 12 16 40 59.9970000  0  8G22G20G 1G 4G29G25G11G13
  -7257779.12849  -5629724.69147  20686909.783    20686909.021    20686920.014
       238.000         201.000
  -5035691.62849  -3906003.25647  19712467.764    19712467.093    19712475.021
       233.000         208.000
  -5812898.39949  -4512851.58947  21073048.342    21073047.936    21073057.458
       240.000         203.000
  -1178046.96549   -900203.23745  24534207.576    24534207.699    24534219.132
       204.000         139.000
   1111597.34049    863498.66246  22416549.107    22416548.430    22416560.866
       221.000         179.000
   1510346.15949   1174341.62747  21442403.538    21442403.074    21442412.311
       240.000         203.000
   2514330.68849   1954489.21746  22907037.189    22907036.342    22907047.246
       224.000         165.000
  -7063331.52549  -5489943.81545  23718955.451    23718955.455    23718966.167
       208.000         152.000
 01 11 12 16 41 29.9970000  0  8G22G20G 1G 4G29G25G11G13
  -7358479.99349  -5708192.89647  20667747.037    20667746.287    20667757.265
       239.000         202.000
  -5100489.71549  -3956495.30047  19700137.168    19700136.468    19700144.381
       233.000         208.000
  -5901343.67949  -4581770.00647  21056217.785    21056217.380    21056226.885
       239.000         203.000
  -1280023.44349   -979665.58745  24514802.229    24514802.359    24514813.783
       201.000         137.000
   1131953.32049    879360.20246  22420422.830    22420422.207    22420434.745
       223.000         179.000
   1541321.37849   1198477.99047  21448298.006    21448297.567    21448306.811
       240.000         203.000
   2558906.79749   1989223.55946  22915519.903    22915519.055    22915530.101
       225.000         167.000
  -7181164.06549  -5581761.40245  23696532.781    23696532.707    23696543.611
       206.000         151.000
 01 11 12 16 41 59.9970000  0  8G22G20G 1G 4G29G25G11G13
  -7458691.09749  -5786279.46547  20648677.562    20648676.761    20648687.717
       238.000         201.000
  -5164797.55649  -4006605.33947  19687899.779    19687899.124    19687907.021
       232.000         207.000
  -5989686.63549  -4650608.68747  21039406.658    21039406.261    21039415.797
       241.000         203.000
  -1381602.22349  -1058818.01944  24495472.545    24495472.721    24495484.136
       199.000         125.000
   1152393.48249    895287.36546  22424312.626    22424312.030    22424324.607
       224.000         178.000
   1572468.49149   1222748.30247  21454225.246    21454224.764    21454234.065
       240.000         204.000
   2603565.76249   2024022.47446  22924018.514    22924017.617    22924028.665
       226.000         170.000
  -7298993.77049  -5673576.78345  23674110.650    23674110.491    23674121.466
       212.000         156.000
 01 11 12 16 42 29.9970000  0  8G22G20G 1G 4G29G25G11G13
  -7558394.27749  -5863970.24147  20629704.658    20629703.895    20629714.853
       238.000         201.000
  -5228597.97449  -4056319.98547  19675758.968    19675758.328    19675766.228
       232.000         208.000
  -6077911.39749  -4719355.27447  21022618.094    21022617.685    21022627.206
       240.000         204.000
  -1482765.78249  -1137646.90344  24476221.690    24476221.844    24476233.494
       196.000         130.000
   1172933.37949    911292.25446  22428221.459    22428220.801    22428233.407
       224.000         176.000
   1603801.38249   1247163.38047  21460187.802    21460187.325    21460196.698
       239.000         203.000
   2648320.35049   2058895.89846  22932535.306    22932534.396    22932545.385
       225.000         166.000
  -7416804.95449  -5765377.73245  23651691.799    23651691.785    23651702.811
       213.000         157.000
 01 11 12 16 42 59.9970000  0  8G22G20G 1G 4G29G25G11G13
  -7657598.03349  -5941271.86547  20610826.797    20610826.048    20610837.023
       239.000         201.000
  -5291900.55249  -4105646.70647  19663712.888    19663712.270    19663720.188
       232.000         207.000
  -6166028.96949  -4788018.33847  21005849.898    21005849.477    21005859.021
       241.000         204.000
  -1583523.84349  -1216159.80244  24457048.164    24457048.173    24457059.895
       202.000         129.000
   1193561.92649    927366.22446  22432147.136    22432146.451    22432159.069
       222.000         176.000
   1635306.78649   1271712.88447  21466183.189    21466182.727    21466192.134
       240.000         203.000
   2693156.74349   2093833.06446  22941067.528    22941066.685    22941077.668
       224.000         166.000
  -7534608.93949  -5857173.11045  23629274.471    23629274.505    23629285.503
       215.000         158.000
 01 11 12 16 43 29.9970000  0  8G22G20G 1G 4G29G25G11G13
  -7756302.08849  -6018184.11847  20592044.026    20592043.276    20592054.238
       239.000         201.000
  -5354706.44149  -4154586.39347  19651761.312    19651760.712    19651768.661
       232.000         207.000
  -6254041.71649  -4856599.71847  20989101.613    20989101.215    20989110.822
       241.000         205.000
  -1683877.05249  -1294357.31644  24437951.659    24437951.531    24437963.475
       204.000         130.000
   1214276.90449    943507.51046  22436089.229    22436088.511    22436101.264
       223.000         179.000
   1666979.78749   1296392.98347  21472210.447    21472210.002    21472219.472
       239.000         202.000
   2738069.16249   2128829.46746  22949614.221    22949613.442    22949624.492
       224.000         167.000
  -7652407.96249  -5948964.62245  23606858.231    23606858.203    23606869.188
       219.000         159.000
 01 11 12 16 43 59.9970000  0  8G22G20G 1G 4G29G25G11G13
  -7854508.04549  -6094708.23047  20573356.044    20573355.295    20573366.206
       238.000         201.000
  -5417018.06649  -4203140.94747  19639903.823    19639903.239    19639911.193
       232.000         207.000
  -6341953.33849  -4925102.30847  20972372.565    20972372.198    20972381.814
       240.000         205.000
  -1783827.62349  -1372241.05144  24418931.880    24418931.710    24418943.619
       200.000         130.000
   1235074.76549    959713.37046  22440047.157    22440046.416    22440059.272
       224.000         181.000
   1698814.99349   1321199.47047  21478268.559    21478268.144    21478277.669
       238.000         202.000
   2783050.81849   2163879.79446  22958174.140    22958173.363    22958184.515
       224.000         167.000
  -7770205.93949  -6040755.32045  23584442.082    23584442.022    23584453.172
       215.000         158.000
 01 11 12 16 44 29.9970000  0  8G22G20G 1G 4G29G25G11G13
  -7952199.84349  -6170831.71347  20554765.824    20554765.144    20554776.030
       238.000         201.000
  -5478820.78349  -4251298.94547  19628143.173    19628142.597    19628150.547
       232.000         207.000
  -6429750.06049  -4993515.36947  20955665.415    20955665.052    20955674.712
       241.000         205.000
  -1883360.33049  -1449799.14044  24399991.556    24399991.358    24400003.328
       197.000         126.000
   1255968.66949    975994.08246  22444023.439    22444022.626    22444035.550
       226.000         181.000
   1730824.11149   1346141.47947  21484359.862    21484359.398    21484368.978
       239.000         202.000
   2828112.13649   2198992.21746  22966749.309    22966748.460    22966759.743
       225.000         167.000
  -7887989.48549  -6132534.76545  23562028.597    23562028.585    23562039.792
       219.000         160.000
 01 11 12 16 44 59.9970000  0  8G22G20G 1G 4G29G25G11G13
  -8049381.63049  -6246557.78447  20536272.799    20536272.074    20536282.939
       239.000         202.000
  -5540119.69449  -4299064.37247  19616478.410    19616477.819    19616485.776
       232.000         207.000
  -6517438.38049  -5061843.95747  20938978.884    20938978.532    20938988.219
       241.000         205.000
  -1982480.35249  -1527035.67444  24381129.687    24381129.396    24381141.508
       196.000         122.000
   1276952.45049    992344.84146  22448016.712    22448015.929    22448028.905
       223.000         177.000
   1762997.92449   1371211.82547  21490482.463    21490481.987    21490491.627
       239.000         201.000
   2873243.41849   2234159.14846  22975337.748    22975336.891    22975348.287
       226.000         168.000
  -8005765.25949  -6224308.16845  23539616.645    23539616.656    23539627.836
       218.000         162.000
 01 11 12 16 45 29.9970000  0  8G22G20G 1G 4G29G25G11G13
  -8146033.50149  -6321870.92947  20517880.514    20517879.841    20517890.693
       239.000         202.000
  -5600896.15349  -4346422.68947  19604913.037    19604912.473    19604920.447
       232.000         207.000
  -6605000.84749  -5130074.46747  20922316.358    20922315.975    20922325.669
       242.000         206.000
  -2081168.57749  -1603935.71444  24362350.073    24362349.671    24362361.880
       203.000         129.000
   1298043.50449   1008779.19246  22452030.233    22452029.568    22452042.652
       221.000         172.000
   1795352.09749   1396422.70347  21496639.371    21496638.899    21496648.594
       238.000         201.000
   2918459.12449   2269391.86846  22983942.275    22983941.403    22983952.889
       224.000         169.000
  -8123515.86249  -6316061.96045  23517209.489    23517209.505    23517220.691
       222.000         162.000
 01 11 12 16 45 59.9970000  0  8G22G20G 1G 4G29G25G11G13
  -8242169.22149  -6396781.87047  20499586.485    20499585.782    20499596.686
       239.000         202.000
  -5661164.92149  -4393385.40847  19593444.285    19593443.728    19593451.716
       232.000         207.000
  -6692453.37449  -5198219.30347  20905674.721    20905674.331    20905684.042
       241.000         206.000
  -2179439.51349  -1680510.59644  24343650.027    24343649.334    24343661.686
       201.000         129.000
   1319225.69249   1025284.57546  22456061.194    22456060.556    22456073.671
       223.000         172.000
   1827868.98849   1421760.38147  21502827.312    21502826.795    21502836.515
       239.000         201.000
   2963740.26749   2304675.56246  22992559.318    22992558.370    22992569.930
       224.000         168.000
  -8241257.25149  -6407808.55046  23494804.202    23494804.159    23494815.349
       221.000         165.000
 01 11 12 16 46 29.9970000  0  8G22G20G 1G 4G29G25G11G13
  -8337780.44349  -6471284.11247  20481392.282    20481391.582    20481402.504
       239.000         203.000
  -5720918.86849  -4439946.97247  19582073.544    19582072.955    19582080.969
       232.000         207.000
  -6779789.84249  -5266273.71047  20889055.163    20889054.774    20889064.483
       241.000         206.000
  -2277285.85349  -1756754.64644  24325030.573    24325030.136    24325042.351
       200.000         129.000
   1340505.08849   1041865.67646  22460110.800    22460110.087    22460123.264
       224.000         178.000
   1860551.99949   1447227.49647  21509046.757    21509046.294    21509056.035
       237.000         200.000
   3009089.69549   2340012.47046  23001189.272    23001188.310    23001199.949
       222.000         166.000
  -8358983.65749  -6499543.45946  23472401.604    23472401.618    23472412.857
       221.000         164.000
 01 11 12 16 46 59.9970000  0  8G22G20G 1G 4G29G25G11G13
  -8432859.77549  -6545371.89747  20463299.351    20463298.606    20463309.525
       239.000         203.000
  -5780151.53249  -4486102.34747  19570801.968    19570801.387    19570809.411
       231.000         206.000
  -6867005.15949  -5334233.71347  20872458.623    20872458.256    20872467.977
       241.000         206.000
  -2374700.96848  -1832662.69744  24306493.076    24306492.700    24306504.991
       193.000         126.000
   1361886.64149   1058526.37646  22464179.910    22464179.120    22464192.318
       225.000         180.000
   1893403.91949   1472826.22847  21515298.394    21515297.933    21515307.717
       238.000         200.000
   3054509.42349   2375404.14246  23009832.482    23009831.577    23009843.314
       222.000         166.000
  -8476690.12449  -6591262.82946  23450002.895    23450002.887    23450014.163
       222.000         163.000
 01 11 12 16 47 29.9970000  0  8G22G20G 1G 4G29G25G11G13
  -8527409.39049  -6619046.90547  20445307.163    20445306.430    20445317.320
       240.000         203.000
  -5838866.49649  -4531854.32247  19559628.926    19559628.329    19559636.350
       231.000         206.000
  -6954103.82749  -5402102.83147  20855884.285    20855883.937    20855893.680
       241.000         206.000
  -2471687.70149  -1908236.87044  24288037.086    24288036.842    24288049.331
       207.000         130.000
   1383365.88849   1075263.19646  22468267.539    22468266.721    22468279.972
       225.000         178.000
   1926418.62049   1498551.80747  21521581.002    21521580.534    21521590.348
       237.000         199.000
   3099991.75049   2410844.60246  23018487.733    23018486.782    23018498.613
       222.000         167.000
  -8594380.93549  -6682969.99445  23427607.197    23427607.170    23427618.419
       226.000         162.000
 01 11 12 16 47 59.9970000  0  8G22G20G 1G 4G29G25G11G13
  -8621433.19349  -6692312.18247  20427415.029    20427414.284    20427425.174
       239.000         203.000
  -5897068.70649  -4577206.74647  19548553.479    19548552.850    19548560.853
       231.000         206.000
  -7041091.99949  -5469885.83347  20839330.999    20839330.641    20839340.394
       241.000         206.000
  -2568250.86649  -1983481.04944  24269661.896    24269661.605    24269674.116
       203.000         127.000
   1404936.87649   1092071.49546  22472372.488    22472371.724    22472385.025
       222.000         172.000
   1959588.09049   1524397.98247  21527893.033    21527892.574    21527902.405
       237.000         199.000
   3145527.42149   2446326.64346  23027153.060    23027152.166    23027164.076
       222.000         163.000
  -8712062.67549  -6774670.11845  23405213.177    23405213.151    23405224.304
       225.000         162.000
 01 11 12 16 48 29.9970000  0  8G22G20G 1G 4G29G25G11G13
  -8714934.99549  -6765170.70347  20409622.207    20409621.487    20409632.369
       240.000         204.000
  -5954762.99049  -4622163.38047  19537574.683    19537574.039    19537582.022
       231.000         206.000
  -7127975.43149  -5537587.22147  20822797.625    20822797.277    20822807.045
       242.000         206.000
  -2664395.17249  -2058398.84444  24251366.440    24251366.124    24251378.320
       212.000         129.000
   1426593.48949   1108946.51946  22476493.704    22476492.977    22476506.258
       221.000         168.000
   1992903.91549   1550358.19647  21534232.881    21534232.467    21534242.350
       237.000         199.000
   3191107.46049   2481843.26046  23035826.887    23035825.983    23035837.936
       222.000         163.000
  -8829741.21949  -6866367.72346  23382819.803    23382819.749    23382830.917
       224.000         163.000
 01 11 12 16 48 59.9970000  0  8G22G20G 1G 4G29G25G11G13
  -8807908.29449  -6837617.39747  20391929.983    20391929.259    20391940.152
       240.000         204.000
  -6011943.86749  -4666719.96647  19526693.529    19526692.904    19526700.882
       230.000         206.000
  -7214749.64849  -5605203.51047  20806285.101    20806284.711    20806294.480
       241.000         206.000
  -2760114.71649  -2132985.61544  24233151.812    24233151.391    24233163.663
       208.000         129.000
   1448340.08249   1125891.66846  22480632.061    22480631.375    22480644.594
       223.000         170.000
   2026368.81349   1576434.57147  21540601.168    21540600.729    21540610.657
       237.000         199.000
   3236733.25749   2517395.50346  23044509.422    23044508.512    23044520.497
       222.000         164.000
  -8947412.42149  -6958059.58945  23360427.697    23360427.688    23360438.901
       221.000         161.000
 01 11 12 16 49 29.9970000  0  8G22G20G 1G 4G29G25G11G13
  -8900343.61049  -6909644.88047  20374340.109    20374339.399    20374350.274
       239.000         204.000
  -6068602.99349  -4710869.99247  19515911.658    19515911.045    19515919.048
       230.000         205.000
  -7301407.61149  -5672729.21547  20789794.664    20789794.279    20789804.004
       242.000         206.000
  -2855401.05249  -2207234.82144  24215019.550    24215019.165    24215031.311
       214.000         130.000
   1470183.75649   1142912.45546  22484788.978    22484788.319    22484801.565
       224.000         176.000
   2059987.71349   1602630.94747  21546998.772    21546998.315    21547008.282
       237.000         199.000
   3282408.75149   2552986.48446  23053201.370    23053200.497    23053212.566
       222.000         164.000
  -9065069.02949  -7049740.05645  23338038.430    23338038.383    23338049.605
       220.000         160.000
 01 11 12 16 49 59.9970000  0  8G22G20G 1G 4G29G25G11G13
  -8992230.78649  -6981245.23447  20356854.514    20356853.836    20356864.696
       238.000         203.000
  -6124731.46749  -4754606.52547  19505230.786    19505230.177    19505238.186
       229.000         205.000
  -7387940.85949  -5740157.74047  20773327.937    20773327.560    20773337.278
       241.000         206.000
  -2950244.74649  -2281139.14245  24196971.557    24196971.211    24196983.265
       220.000         136.000
   1492132.70449   1160015.24546  22488965.887    22488965.272    22488978.648
       223.000         177.000
   2093766.40949   1628951.83647  21553426.802    21553426.314    21553436.337
       237.000         199.000
   3328138.87149   2588620.04046  23061903.774    23061902.853    23061915.039
       220.000         165.000
  -9182703.44349  -7141403.24245  23315653.361    23315653.318    23315664.609
       222.000         160.000
 01 11 12 16 50 29.9970000  0  8G22G20G 1G 4G29G25G11G13
  -9083571.11349  -7052419.46647  20339472.964    20339472.302    20339483.168
       238.000         203.000
  -6180331.64849  -4797931.40547  19494650.429    19494649.852    19494657.879
       230.000         205.000
  -7474352.73749  -5807491.69547  20756884.330    20756883.950    20756893.640
       241.000         205.000
  -3044647.92149  -2354700.17845  24179007.416    24179007.090    24179019.180
       220.000         137.000
   1514183.26549   1177197.20046  22493162.157    22493161.557    22493175.046
       220.000         174.000
   2127699.60449   1655393.11447  21559884.242    21559883.747    21559893.798
       237.000         199.000
   3373917.09949   2624291.06246  23070615.231    23070614.383    23070626.698
       220.000         165.000
  -9300319.01749  -7233051.79345  23293271.931    23293271.866    23293283.063
       222.000         156.000
 01 11 12 16 50 59.9970000  0  8G22G20G 1G 4G29G25G11G13
  -9174371.20049  -7123172.73847  20322194.249    20322193.609    20322204.453
       239.000         204.000
  -6235411.11049  -4840850.52147  19484169.255    19484168.621    19484176.650
       230.000         205.000
  -7560651.91649  -5874737.82347  20740462.173    20740461.760    20740471.464
       241.000         205.000
  -3138618.09149  -2427923.86845  24161125.626    24161125.293    24161137.218
       217.000         132.000
   1536326.87249   1194451.64746  22497376.152    22497375.511    22497389.145
       221.000         172.000
   2161776.66349   1681946.50147  21566369.039    21566368.526    21566378.628
       236.000         198.000
   3419731.85249   2659990.54246  23079333.766    23079332.853    23079345.260
       220.000         166.000
  -9417924.32049  -7324692.31045  23270892.486    23270892.401    23270903.485
       222.000         156.000
 01 11 12 16 51 29.9970000  0  8G22G20G 1G 4G29G25G11G13
  -9264620.88849  -7193497.12447  20305020.306    20305019.638    20305030.476
       239.000         204.000
  -6289961.06349  -4883357.03547  19473788.758    19473788.131    19473796.175
       231.000         205.000
  -7646830.18249  -5941889.73447  20724062.942    20724062.590    20724072.292
       242.000         205.000
  -3232145.80549  -2500802.74245  24143327.900    24143327.646    24143339.727
       218.000         138.000
   1558571.21649   1211784.60846  22501609.442    22501608.708    22501622.354
       224.000         171.000
   2196003.57949   1708616.66147  21572882.286    21572881.819    21572891.954
       237.000         198.000
   3465587.92749   2695722.20746  23088060.252    23088059.245    23088071.681
       221.000         165.000
  -9535511.44249  -7416318.65445  23248516.389    23248516.337    23248527.471
       219.000         153.000
 01 11 12 16 51 59.9970000  0  8G22G20G 1G 4G29G25G11G13
  -9354322.05549  -7263394.08947  20287950.668    20287950.037    20287960.897
       239.000         204.000
  -6343984.23049  -4925453.06547  19463508.550    19463507.905    19463515.955
       230.000         205.000
  -7732891.27949  -6008950.34347  20707686.077    20707685.721    20707695.431
       241.000         206.000
  -3325233.58349  -2573338.76545  24125614.016    24125613.780    24125625.888
       216.000         140.000
   1580912.89449   1229193.44246  22505861.210    22505860.434    22505874.029
       224.000         171.000
   2230374.16849   1735398.77347  21579422.906    21579422.447    21579432.642
       237.000         199.000
   3511478.34449   2731480.64146  23096793.109    23096792.102    23096804.645
       219.000         163.000
  -9653084.41749  -7507933.99645  23226142.998    23226143.009    23226154.083
       218.000         153.000
 01 11 12 16 52 29.9970000  0  8G22G20G 1G 4G29G25G11G13
  -9443472.57749  -7332861.98347  20270985.874    20270985.226    20270996.092
       239.000         205.000
  -6397479.66449  -4967137.86747  19453328.765    19453328.102    19453336.159
       230.000         204.000
  -7818835.30949  -6075919.72847  20691331.459    20691331.122    20691340.849
       242.000         205.000
  -3417880.36749  -2645531.19945  24107984.034    24107983.891    24107995.848
       219.000         140.000
   1603351.62649   1246677.91346  22510131.402    22510130.588    22510144.180
       221.000         167.000
   2264886.86349   1762291.62547  21585990.612    21585990.119    21586000.368
       236.000         199.000
   3557400.22049   2767263.59645  23105531.853    23105530.905    23105543.587
       216.000         161.000
  -9770643.34349  -7599538.35245  23203772.303    23203772.299    23203783.444
       218.000         153.000
 01 11 12 16 52 59.9970000  0  8G22G20G 1G 4G29G25G11G13
  -9532073.33449  -7401901.50447  20254125.689    20254125.061    20254135.873
       240.000         205.000
  -6450449.31349  -5008412.97047  19443249.013    19443248.350    19443256.428
       229.000         204.000
  -7904664.98849  -6142800.01247  20674998.619    20674998.272    20675008.019
       242.000         206.000
  -3510087.50849  -2717381.06245  24090437.721    24090437.528    24090449.499
       221.000         142.000
   1625884.66049   1264235.81346  22514419.405    22514418.645    22514432.316
       219.000         170.000
   2299536.24849   1789290.98447  21592584.301    21592583.804    21592594.099
       236.000         198.000
   3603347.52049   2803066.34445  23114275.473    23114274.556    23114287.382
       220.000         162.000
  -9888190.79649  -7691133.77745  23181403.739    23181403.765    23181414.986
       221.000         154.000
 01 11 12 16 53 29.9970000  0  8G22G20G 1G 4G29G25G11G13
  -9620101.52649  -7470494.87447  20237374.505    20237373.859    20237384.621
       240.000         205.000
  -6502871.39149  -5049261.38647  19433273.468    19433272.804    19433280.888
       230.000         205.000
  -7990359.37349  -6209574.87747  20658691.579    20658691.205    20658700.939
       242.000         206.000
  -3601833.04149  -2788871.22845  24072979.156    24072979.028    24072991.070
       217.000         147.000
   1648532.68549   1281883.26946  22518729.262    22518728.550    22518742.414
       218.000         172.000
   2334341.54149   1816411.82547  21599207.614    21599207.150    21599217.480
       236.000         197.000
   3649338.00049   2838902.75946  23123027.405    23123026.477    23123039.436
       219.000         164.000
 -10005706.62249  -7782704.58545  23159041.206    23159041.276    23159052.434
       218.000         150.000
 01 11 12 16 53 59.9970000  0  8G22G20G 1G 4G29G25G11G13
  -9707577.22849  -7538657.72947  20220728.374    20220727.746    20220738.535
       239.000         206.000
  -6554767.05449  -5089699.60247  19423398.096    19423397.431    19423405.524
       230.000         205.000
  -8075940.27549  -6276261.31747  20642406.107    20642405.721    20642415.459
       243.000         206.000
  -3693137.80649  -2860017.88945  24055604.642    24055604.404    24055616.555
       221.000         151.000
   1671273.68949   1299603.22146  22523056.971    22523056.246    22523070.238
       220.000         174.000
   2369278.39249   1843635.18547  21605856.042    21605855.535    21605865.879
       237.000         197.000
   3695346.39449   2874753.11446  23131782.823    23131781.857    23131794.911
       220.000         164.000
 -10123212.78049  -7874267.85145  23136680.451    23136680.599    23136691.667
       216.000         144.000
 01 11 12 16 54 29.9970000  0  8G22G20G 1G 4G29G25G11G13
  -9794484.60849  -7606377.73747  20204190.442    20204189.790    20204200.637
       239.000         206.000
  -6606121.54349  -5129716.13247  19413625.730    19413625.049    19413633.129
       230.000         204.000
  -8161393.73849  -6342848.45147  20626144.863    20626144.494    20626154.234
       242.000         205.000
  -3783986.83049  -2930809.39645  24038316.614    24038316.450    24038328.712
       219.000         151.000
   1694121.63149   1317406.50246  22527405.080    22527404.313    22527418.370
       221.000         173.000
   2404358.81949   1870970.43047  21612531.792    21612531.269    21612541.609
       237.000         198.000
   3741383.76949   2910626.04146  23140543.756    23140542.752    23140555.921
       219.000         163.000
 -10240695.11249  -7965812.55245  23114324.334    23114324.419    23114335.415
       217.000         147.000
 01 11 12 16 54 59.9970000  0  8G22G20G 1G 4G29G25G11G13
  -9880807.49449  -7673642.30647  20187763.689    20187763.069    20187773.952
       240.000         206.000
  -6656919.87449  -5169299.28247  19403959.163    19403958.485    19403966.571
       230.000         204.000
  -8246705.37649  -6409325.07947  20609910.623    20609910.239    20609919.963
       243.000         205.000
  -3874364.53849  -3001233.65845  24021118.493    24021118.280    24021130.619
       217.000         153.000
   1717090.50249   1335304.02546  22531776.184    22531775.375    22531789.495
       220.000         169.000
   2439595.06149   1898427.07647  21619237.201    21619236.634    21619247.015
       236.000         198.000
   3787461.28249   2946530.26445  23149312.300    23149311.293    23149324.505
       217.000         160.000
 -10358139.44149  -8057327.62145  23091975.241    23091975.466    23091986.482
       215.000         154.000
 01 11 12 16 55 29.9970000  0  8G22G20G 1G 4G29G25G11G13
  -9966548.58249  -7740453.54147  20171447.668    20171447.076    20171457.935
       239.000         206.000
  -6707165.87449  -5208452.04647  19394397.698    19394397.027    19394405.126
       229.000         204.000
  -8331879.81349  -6475694.79647  20593702.496    20593702.094    20593711.806
       242.000         206.000
  -3964274.57449  -3071293.52045  24004009.192    24004009.045    24004021.452
       216.000         153.000
   1740175.58549   1353292.12646  22536169.320    22536168.519    22536182.659
       219.000         166.000
   2474980.21549   1925999.75147  21625970.836    21625970.325    21625980.759
       237.000         198.000
   3833571.18249   2982459.71245  23158087.029    23158085.983    23158099.279
       217.000         162.000
 -10475550.72049  -8148816.92945  23069632.680    23069632.842    23069643.971
       221.000         158.000
 01 11 12 16 55 59.9970000  0  8G22G20G 1G 4G29G25G11G13
 -10051724.66549  -7806824.52347  20155239.197    20155238.584    20155249.409
       241.000         207.000
  -6756877.02549  -5247188.04847  19384937.994    19384937.345    19384945.445
       229.000         204.000
  -8416935.27349  -6541971.80947  20577517.014    20577516.620    20577526.306
       243.000         206.000
  -4053734.35449  -3141002.54045  23986985.628    23986985.459    23986997.936
       217.000         154.000
   1763358.45849   1371356.42346  22540581.015    22540580.250    22540594.483
       216.000         163.000
   2510493.67649   1953672.40847  21632728.968    21632728.454    21632738.920
       236.000         197.000
   3879691.96749   3018397.60745  23166863.775    23166862.749    23166876.120
       218.000         161.000
 -10592947.52149  -8240294.99445  23047292.952    23047293.035    23047304.120
       219.000         160.000
 01 11 12 16 56 29.9970000  0  8G22G20G 1G 4G29G25G11G13
 -10136325.28449  -7872747.08247  20139140.198    20139139.599    20139150.457
       240.000         207.000
  -6806044.32849  -5285500.26747  19375581.752    19375581.138    19375589.244
       229.000         204.000
  -8501862.98949  -6608149.28547  20561355.821    20561355.431    20561365.109
       243.000         205.000
  -4142734.10849  -3210353.07545  23970049.643    23970049.447    23970061.998
       216.000         155.000
   1786647.76249   1389503.61646  22545012.988    22545012.238    22545026.633
       215.000         169.000
   2546142.69849   1981450.68847  21639512.880    21639512.361    21639522.891
       237.000         197.000
   3925828.87349   3054348.10445  23175643.546    23175642.570    23175655.996
       218.000         159.000
 -10710321.18349  -8331755.03145  23024957.561    23024957.623    23024968.666
       219.000         159.000
 01 11 12 16 56 59.9970000  0  8G22G20G 1G 4G29G25G11G13
 -10220358.28549  -7938227.34647  20123149.203    20123148.612    20123159.516
       240.000         207.000
  -6854676.51349  -5323395.51247  19366327.361    19366326.764    19366334.871
       230.000         204.000
  -8586672.50849  -6674234.65947  20545217.145    20545216.736    20545226.409
       242.000         205.000
  -4231282.40949  -3279351.83945  23953199.614    23953199.398    23953211.941
       217.000         160.000
   1810033.67849   1407726.06846  22549463.471    22549462.660    22549477.190
       220.000         176.000
   2581915.31349   2009325.26747  21646320.349    21646319.810    21646330.391
       237.000         198.000
   3971969.59749   3090301.57145  23184424.104    23184423.127    23184436.584
       218.000         156.000
 -10827681.39749  -8423204.58045  23002624.612    23002624.721    23002635.851
       219.000         160.000
 01 11 12 16 57 29.9970000  0  8G22G20G 1G 4G29G25G11G13
 -10303810.61349  -8003255.14947  20107268.783    20107268.160    20107279.062
       240.000         207.000
  -6902761.49249  -5360864.35847  19357177.129    19357176.536    19357184.655
       229.000         204.000
  -8671352.62849  -6740219.20747  20529103.086    20529102.682    20529112.299
       243.000         205.000
  -4319367.04849  -3347989.25345  23936437.602    23936437.517    23936450.160
       215.000         156.000
   1833527.33549   1426032.50746  22553934.526    22553933.641    22553948.270
       222.000         178.000
   2617820.53749   2037303.18347  21653153.062    21653152.494    21653163.099
       237.000         197.000
   4018122.06749   3126264.19245  23193206.927    23193205.929    23193219.434
       216.000         154.000
 -10945017.05649  -8514635.00846  22980296.435    22980296.517    22980307.676
       223.000         163.000
 01 11 12 16 57 59.9970000  0  8G22G20G 1G 4G29G25G11G13
 -10386687.23149  -8067834.34947  20091497.916    20091497.275    20091508.165
       240.000         207.000
  -6950305.56949  -5397911.72047  19348129.819    19348129.240    19348137.369
       229.000         204.000
  -8755909.95449  -6806108.07547  20513012.405    20513011.987    20513021.600
       242.000         205.000
  -4406993.84849  -3416269.97845  23919762.861    23919762.739    23919775.377
       213.000         154.000
   1857121.75949   1444417.45946  22558424.675    22558423.761    22558438.529
       220.000         173.000
   2653850.02249   2065377.91847  21660009.394    21660008.830    21660019.446
       236.000         197.000
   4064276.45949   3162228.30045  23201990.016    23201989.057    23202002.629
       215.000         156.000
 -11062335.16849  -8606051.77046  22957971.599    22957971.674    22957982.810
       223.000         164.000
 01 11 12 16 58 29.9970000  0  8G22G20G 1G 4G29G25G11G13
 -10468986.16949  -8131963.41247  20075836.926    20075836.288    20075847.178
       240.000         207.000
  -6997307.69049  -5434536.78747  19339185.686    19339185.070    19339193.206
       229.000         204.000
  -8840343.77849  -6871900.70747  20496945.195    20496944.783    20496954.419
       243.000         205.000
  -4494161.18849  -3484192.69745  23903175.539    23903175.386    23903188.098
       215.000         158.000
   1880817.63449   1462881.46646  22562934.026    22562933.170    22562948.014
       214.000         163.000
   2690001.90249   2093548.02247  21666888.964    21666888.433    21666899.095
       236.000         196.000
   4110430.14749   3198191.85645  23210772.981    23210772.000    23210785.732
       217.000         158.000
 -11179635.09649  -8697454.31446  22935650.169    22935650.273    22935661.409
       222.000         166.000
 01 11 12 16 58 59.9960000  0  8G22G20G 1G 4G29G25G11G13
 -10550699.39149  -8195636.07447  20060287.446    20060286.776    20060297.667
       240.000         208.000
  -7043761.97049  -5470734.96147  19330345.779    19330345.152    19330353.288
       229.000         204.000
  -8924647.69549  -6937592.11047  20480902.654    20480902.289    20480911.953
       242.000         205.000
  -4580861.72149  -3551751.62745  23886677.062    23886676.921    23886689.724
       213.000         156.000
   1904617.43149   1481426.47845  22567463.036    22567462.245    22567477.183
       213.000         157.000
   2726276.56049   2121813.79047  21673791.886    21673791.397    21673802.082
       235.000         196.000
   4156582.25149   3234154.14745  23219555.745    23219554.709    23219568.610
       218.000         159.000
 -11296909.53449  -8788837.01746  22913333.513    22913333.687    22913344.870
       219.000         164.000
 01 11 12 16 59 29.9960000  0  9G22G20G27G 1G 4G29G25G11G13
 -10631832.97549  -8258857.07247  20044848.274    20044847.589    20044858.448
       240.000         208.000
  -7089673.21649  -5506509.98947  19321609.171    19321608.578    19321616.702
       229.000         204.000
   -912640.77159   -690746.75355  24564737.378    24564737.192    24564754.922
       206.000         145.000
  -9008829.59349  -7003188.43347  20464883.410    20464883.022    20464892.675
       242.000         205.000
  -4667102.59649  -3618952.37445  23870265.934    23870265.906    23870278.761
       208.000         155.000
   1928520.29949   1500051.80946  22572011.819    22572011.030    22572026.003
       218.000         168.000
   2762672.18049   2150173.81447  21680717.862    21680717.383    21680728.078
       235.000         196.000
   4202730.33549   3270113.34745  23228337.693    23228336.697    23228350.656
       218.000         157.000
 -11414168.98749  -8880208.02346  22891019.815    22891019.959    22891031.223
       219.000         163.000
 01 11 12 16 59 59.9960000  0  9G22G20G27G 1G 4G29G25G11G13
 -10712382.36649  -8321622.85347  20029520.275    20029519.563    20029530.416
       241.000         208.000
  -7135039.11449  -5541860.06547  19312976.363    19312975.787    19312983.886
       229.000         204.000
  -1041477.55049   -791139.00245  24540220.643    24540220.321    24540238.128
       211.000         150.000
  -9092886.16349  -7068687.09847  20448887.987    20448887.615    20448897.255
       243.000         205.000
  -4752879.83949  -3685791.85345  23853943.249    23853943.165    23853956.080
       215.000         158.000
   1952525.62949   1518756.96146  22576580.243    22576579.378    22576594.440
       223.000         177.000
   2799185.86249   2178625.84247  21687666.416    21687665.865    21687676.552
       236.000         195.000
   4248870.07649   3306066.05245  23237118.144    23237117.065    23237131.110
       217.000         154.000
 -11531408.75549  -8971563.72646  22868709.868    22868710.007    22868721.221
       222.000         164.000
 01 11 12 17  0 29.9960000  0  9G22G20G27G 1G 4G29G25G11G13
 -10792341.45049  -8383928.65947  20014304.521    20014303.848    20014314.752
       240.000         208.000
  -7179854.60149  -5576781.26047  19304448.317    19304447.719    19304455.817
       230.000         204.000
  -1170215.53149   -891454.29845  24515722.723    24515722.394    24515740.057
       208.000         143.000
  -9176812.73949  -7134084.46347  20432917.311    20432916.943    20432926.590
       242.000         205.000
  -4838187.78849  -3752265.67945  23837709.640    23837709.647    23837722.654
       210.000         155.000
   1976637.95949   1537545.47446  22581168.996    22581168.122    22581183.224
       223.000         179.000
   2835820.17049   2207171.85347  21694637.877    21694637.296    21694648.007
       235.000         195.000
   4295003.16149   3342013.49245  23245897.191    23245896.151    23245910.358
       214.000         154.000
 -11648624.52949  -9062900.72346  22846404.523    22846404.644    22846415.800
       219.000         163.000
 01 11 12 17  0 59.9960000  0  9G22G20G27G 1G 4G29G25G11G13
 -10871708.64449  -8445773.25047  19999201.474    19999200.781    19999211.679
       240.000         208.000
  -7224119.00349  -5611273.03847  19296025.119    19296024.511    19296032.622
       229.000         204.000
  -1298854.09849   -991692.05745  24491243.628    24491243.305    24491260.863
       207.000         145.000
  -9260609.10049  -7199380.36647  20416971.404    20416971.041    20416980.700
       242.000         205.000
  -4923025.63949  -3818373.20745  23821565.645    23821565.659    23821578.637
       210.000         153.000
   2000857.17449   1556417.27746  22585778.075    22585777.154    22585792.387
       219.000         175.000
   2872572.94949   2235810.18647  21701631.858    21701631.263    21701641.998
       236.000         195.000
   4341126.14649   3377953.13245  23254674.262    23254673.285    23254687.617
       217.000         154.000
 -11765816.54849  -9154219.15845  22824103.404    22824103.672    22824114.941
       219.000         162.000
 01 11 12 17  1 29.9960000  0  9G22G20G27G 1G 4G29G25G11G13
 -10950487.21649  -8507159.17047  19984210.417    19984209.719    19984220.603
       240.000         208.000
  -7267836.71649  -5645338.82547  19287705.973    19287705.340    19287713.458
       230.000         204.000
  -1427397.69249  -1091855.79045  24466782.624    24466782.280    24466799.857
       211.000         156.000
  -9344279.89249  -7264578.42047  20401049.423    20401049.041    20401058.736
       243.000         206.000
  -5007397.39949  -3884117.51945  23805510.328    23805510.303    23805523.298
       208.000         153.000
   2025178.34549   1575368.49646  22590406.325    22590405.469    22590420.877
       217.000         167.000
   2909437.89249   2264535.91847  21708647.174    21708646.579    21708657.313
       235.000         194.000
   4387231.43549   3413878.94745  23263448.095    23263447.133    23263461.476
       217.000         154.000
 -11882989.49249  -9245522.77745  22801806.205    22801806.411    22801817.688
       222.000         162.000
 01 11 12 17  1 59.9960000  0  9G22G20G27G 1G 4G29G25G11G13
 -11028670.57749  -8568081.29347  19969332.644    19969331.952    19969342.809
       240.000         209.000
  -7311002.04049  -5678974.18147  19279491.929    19279491.284    19279499.392
       230.000         204.000
  -1555840.80449  -1191941.18445  24442340.655    24442340.382    24442357.927
       213.000         148.000
  -9427819.98949  -7329674.63847  20385152.364    20385151.936    20385161.631
       242.000         206.000
  -5091297.19749  -3949494.05945  23789544.863    23789544.844    23789557.819
       212.000         154.000
   2049606.29049   1594402.94046  22595054.989    22595054.182    22595069.581
       219.000         163.000
   2946417.39549   2293350.91247  21715684.300    21715683.703    21715694.458
       235.000         194.000
   4433321.06449   3449792.57145  23272219.028    23272217.997    23272232.360
       220.000         156.000
 -12000138.63149  -9336807.84546  22779513.505    22779513.695    22779524.926
       221.000         163.000
 01 11 12 17  2 29.9960000  0  9G22G20G27G 1G 4G29G25G11G13
 -11106248.45949  -8628531.60547  19954570.078    19954569.366    19954580.238
       240.000         209.000
  -7353605.95449  -5712172.07647  19271384.676    19271384.049    19271392.131
       230.000         203.000
  -1684173.99449  -1291940.91545  24417919.570    24417919.377    24417936.914
       212.000         152.000
  -9511220.45849  -7394662.03947  20369281.825    20369281.387    20369291.085
       242.000         205.000
  -5174715.41849  -4014495.31345  23773670.925    23773670.957    23773683.932
       211.000         153.000
   2074149.57949   1613527.33746  22599725.750    22599724.900    22599740.222
       222.000         163.000
   2983518.32249   2322260.53547  21722744.516    21722743.920    21722754.697
       235.000         193.000
   4479400.57349   3485698.33945  23280987.935    23280986.924    23281001.315
       220.000         154.000
 -12117255.04249  -9428067.38946  22757227.041    22757227.204    22757238.450
       223.000         164.000
 01 11 12 17  2 59.9960000  0  9G22G20G27G 1G 4G29G25G11G13
 -11183231.20349  -8688518.16947  19939920.760    19939920.051    19939930.934
       240.000         209.000
  -7395659.51549  -5744941.12547  19263382.149    19263381.557    19263389.605
       229.000         203.000
  -1812408.38149  -1391863.69345  24393517.369    24393517.147    24393534.648
       208.000         151.000
  -9594492.70749  -7459549.52447  20353435.612    20353435.219    20353444.946
       241.000         205.000
  -5257662.70949  -4079129.65645  23757886.800    23757886.765    23757899.707
       212.000         152.000
   2098796.76049   1632732.69346  22604416.341    22604415.373    22604430.629
       222.000         167.000
   3020727.40349   2351254.41347  21729825.335    21729824.708    21729835.525
       236.000         193.000
   4525455.44549   3521584.88445  23289752.208    23289751.141    23289765.536
       220.000         156.000
 -12234350.34449  -9519310.51446  22734944.602    22734944.753    22734955.930
       223.000         166.000
 01 11 12 17  3 29.9960000  0  9G22G20G27G 1G 4G29G25G11G13
 -11259612.28049  -8748035.89947  19925385.995    19925385.242    19925396.123
       241.000         209.000
  -7437157.46649  -5777277.23047  19255485.372    19255484.764    19255492.829
       229.000         203.000
  -1940538.67249  -1491705.30645  24369134.923    24369134.786    24369152.125
       206.000         144.000
  -9677631.77349  -7524333.21847  20337614.771    20337614.374    20337624.137
       241.000         206.000
  -5340133.54949  -4143392.70045  23742193.234    23742193.122    23742206.103
       208.000         152.000
   2123552.57249   1652022.65846  22609127.413    22609126.492    22609141.835
       217.000         168.000
   3058047.41349   2380334.75047  21736927.265    21736926.635    21736937.443
       235.000         192.000
   4571487.46149   3557453.61345  23298512.052    23298511.041    23298525.522
       219.000         156.000
 -12351419.96849  -9610533.58946  22712666.971    22712667.122    22712678.390
       221.000         165.000
 01 11 12 17  3 59.9960000  0  9G22G20G27G 1G 4G29G25G11G13
 -11335393.88949  -8807086.51047  19910965.286    19910964.520    19910975.373
       241.000         209.000
  -7478102.85249  -5809182.76847  19247693.737    19247693.140    19247701.204
       229.000         203.000
  -2068567.80049  -1591468.09845  24344771.594    24344771.558    24344788.978
       205.000         142.000
  -9760640.97749  -7589015.72547  20321818.629    20321818.245    20321828.037
       241.000         205.000
  -5422130.57749  -4207286.54845  23726589.646    23726589.632    23726602.793
       210.000         151.000
   2148413.42749   1671394.41746  22613858.338    22613857.537    22613873.021
       214.000         168.000
   3095473.08649   2409497.41247  21744049.288    21744048.634    21744059.479
       235.000         192.000
   4617490.13649   3593299.47545  23307266.398    23307265.319    23307279.933
       216.000         155.000
 -12468467.07849  -9701739.12946  22690393.673    22690393.844    22690405.131
       223.000         166.000
 01 11 12 17  4 29.9960000  0  9G22G20G27G 1G 4G29G25G11G13
 -11410563.33649  -8865660.10947  19896660.974    19896660.238    19896671.086
       240.000         209.000
  -7518484.05449  -5840648.68147  19240009.484    19240008.897    19240016.944
       229.000         203.000
  -2196484.04349  -1691142.99245  24320429.866    24320429.812    24320447.130
       207.000         141.000
  -9843508.80249  -7653588.06847  20306049.383    20306049.021    20306058.845
       241.000         206.000
  -5503642.01949  -4270802.04545  23711078.508    23711078.599    23711091.752
       208.000         148.000
   2173390.24949   1690856.52946  22618611.414    22618610.633    22618626.342
       217.000         171.000
   3133013.38749   2438749.38447  21751193.044    21751192.457    21751203.347
       234.000         192.000
   4663471.85549   3629128.99045  23316016.655    23316015.607    23316030.349
       214.000         153.000
 -12585480.52949  -9792918.44346  22668126.816    22668126.959    22668138.219
       224.000         166.000
 01 11 12 17  4 59.9960000  0  9G22G20G27G 1G 4G29G25G11G13
 -11485125.40049  -8923760.41547  19882472.256    19882471.546    19882482.393
       241.000         209.000
  -7558306.86049  -5871679.48347  19232431.463    19232430.898    19232438.947
       229.000         203.000
  -2324292.99049  -1790734.32245  24296108.594    24296108.591    24296125.731
       215.000         144.000
  -9926241.05649  -7718054.76647  20290305.927    20290305.603    20290315.444
       241.000         206.000
  -5584673.12649  -4333943.23745  23695658.862    23695658.819    23695672.186
       202.000         140.000
   2198477.01849   1710404.32746  22623385.552    22623384.752    22623400.543
       220.000         173.000
   3170660.59649   2468084.65847  21758357.166    21758356.626    21758367.546
       234.000         191.000
   4709423.33349   3664934.94845  23324761.126    23324760.111    23324774.940
       216.000         154.000
 -12702466.48649  -9884076.32746  22645865.163    22645865.312    22645876.576
       222.000         167.000
 01 11 12 17  5 29.9960000  0  9G22G20G27G 1G 4G29G25G11G13
 -11559092.99449  -8981397.48647  19868396.756    19868395.996    19868406.857
       241.000         209.000
  -7597585.11049  -5902285.95947  19224957.040    19224956.496    19224964.565
       228.000         203.000
  -2452008.33849  -1890252.72245  24271805.160    24271805.198    24271822.063
       212.000         137.000
 -10008851.87949  -7782426.84547  20274585.641    20274585.306    20274595.150
       241.000         206.000
  -5665237.34249  -4396720.59345  23680327.758    23680327.744    23680341.327
       201.000         138.000
   2223659.39049   1730026.65846  22628177.877    22628177.067    22628192.868
       220.000         167.000
   3208398.39249   2497490.52347  21765538.622    21765538.038    21765548.966
       234.000         191.000
   4755327.67149   3700704.18545  23333496.742    23333495.715    23333510.611
       215.000         154.000
 -12819439.49749  -9975224.11846  22623605.975    22623606.114    22623617.400
       221.000         163.000
 01 11 12 17  5 59.9960000  0  9G22G20G27G 1G 4G29G25G11G13
 -11632458.36849  -9038565.28847  19854435.819    19854435.049    19854445.912
       241.000         209.000
  -7636311.95249  -5932462.76347  19217587.556    19217587.037    19217595.117
       229.000         203.000
  -2579623.34749  -1989693.01345  24247520.871    24247520.783    24247537.581
       211.000         136.000
 -10091334.58349  -7846699.09247  20258889.698    20258889.386    20258899.245
       241.000         207.000
  -5745327.47749  -4459128.53945  23665087.066    23665087.159    23665100.741
       201.000         140.000
   2248943.56849   1749728.35145  22632989.478    22632988.711    22633004.520
       218.000         160.000
   3246231.55249   2526970.69947  21772738.228    21772737.629    21772748.575
       234.000         191.000
   4801188.10649   3736439.19145  23342223.936    23342222.938    23342237.935
       214.000         156.000
 -12936392.65149 -10066356.45946  22601350.415    22601350.664    22601361.912
       220.000         163.000
 01 11 12 17  6 29.9960000  0  9G22G20G27G 1G 4G29G25G11G13
 -11705218.07249  -9095261.14347  19840590.059    19840589.324    19840600.214
       240.000         209.000
  -7674485.07149  -5962208.09647  19210323.500    19210322.971    19210331.045
       229.000         203.000
  -2707135.35449  -2089052.95945  24223256.138    24223256.102    24223272.708
       210.000         140.000
 -10173686.75749  -7910869.62547  20243218.679    20243218.308    20243228.180
       241.000         206.000
  -5824940.88949  -4521165.01445  23649937.157    23649937.243    23649950.865
       205.000         140.000
   2274331.57849   1769510.96245  22637820.868    22637820.151    22637835.858
       216.000         156.000
   3284160.03449   2556525.12347  21779955.890    21779955.305    21779966.342
       232.000         190.000
   4847003.51449   3772139.10645  23350942.540    23350941.580    23350956.707
       214.000         156.000
 -13053323.84649 -10157471.67546  22579099.180    22579099.397    22579110.658
       223.000         167.000
 01 11 12 17  6 59.9960000  0  9G22G20G27G 1G 4G29G25G11G13
 -11777364.74349  -9151479.30847  19826860.930    19826860.244    19826871.157
       240.000         209.000
  -7712097.93749  -5991516.87047  19203166.074    19203165.510    19203173.601
       229.000         203.000
  -2834537.59849  -2188327.48045  24199012.177    24199012.123    24199028.792
       206.000         146.000
 -10255901.89249  -7974933.37647  20227573.665    20227573.297    20227583.156
       243.000         206.000
  -5904070.56749  -4582824.56245  23634879.266    23634879.352    23634893.076
       208.000         144.000
   2299829.59249   1789379.23245  22642673.165    22642672.459    22642688.186
       216.000         160.000
   3322187.94349   2586157.03047  21787192.534    21787191.937    21787203.029
       235.000         191.000
   4892777.32649   3807806.60545  23359653.298    23359652.325    23359667.538
       217.000         158.000
 -13170227.23449 -10248565.21946  22556853.130    22556853.381    22556864.750
       220.000         168.000
 01 11 12 17  7 29.9960000  0  9G22G20G27G 1G 4G29G25G11G13
 -11848904.79949  -9207224.79247  19813247.304    19813246.612    19813257.521
       241.000         209.000
  -7749157.99749  -6020394.88647  19196113.839    19196113.251    19196121.381
       230.000         203.000
  -2961837.37849  -2287522.12145  24174787.737    24174787.631    24174804.373
       203.000         145.000
 -10337987.61749  -8038896.28747  20211953.284    20211952.912    20211962.767
       241.000         206.000
  -5982723.58149  -4644112.68645  23619912.274    23619912.322    23619926.012
       210.000         146.000
   2325429.64049   1809327.00046  22647544.936    22647544.232    22647560.027
       218.000         166.000
   3360305.99049   2615859.16847  21794446.300    21794445.697    21794456.861
       234.000         190.000
   4938498.95549   3843433.42745  23368354.177    23368353.169    23368368.552
       217.000         160.000
 -13287110.34049 -10339642.97846  22534611.013    22534611.273    22534622.651
       221.000         167.000
 01 11 12 17  7 59.9960000  0  9G22G20G27G 1G 4G29G25G11G13
 -11919834.39649  -9262494.58647  19799749.860    19799749.179    19799760.062
       240.000         209.000
  -7785662.42349  -6048839.94147  19189167.293    19189166.721    19189174.880
       229.000         204.000
  -3089031.59449  -2386634.45745  24150583.475    24150583.352    24150600.181
       204.000         145.000
 -10419941.14249  -8102756.18747  20196358.062    20196357.693    20196367.547
       242.000         207.000
  -6060896.53749  -4705026.74045  23605036.530    23605036.580    23605050.278
       207.000         148.000
   2351134.41049   1829356.39346  22652436.697    22652435.946    22652451.801
       219.000         168.000
   3398515.11949   2645632.27747  21801717.335    21801716.802    21801728.031
       233.000         191.000
   4984167.97049   3879019.26945  23377045.138    23377044.062    23377059.477
       214.000         156.000
 -13403970.31249 -10430702.71346  22512373.277    22512373.544    22512384.961
       223.000         166.000
 01 11 12 17  8 29.9960000  0  9G22G20G27G 1G 4G29G25G11G13
 -11990145.34649  -9317282.31647  19786370.082    19786369.423    19786380.338
       240.000         209.000
  -7821603.92449  -6076846.35447  19182327.884    19182327.316    19182335.476
       231.000         203.000
  -3216112.58649  -2485658.66245  24126400.647    24126400.573    24126417.358
       208.000         148.000
 -10501755.20649  -8166507.41947  20180789.386    20180789.014    20180798.870
       242.000         207.000
  -6138582.16949  -4765561.02445  23590253.422    23590253.565    23590267.324
       209.000         150.000
   2376950.79549   1849472.73146  22657349.731    22657348.927    22657364.860
       217.000         164.000
   3436820.03249   2675480.02147  21809006.683    21809006.137    21809017.462
       233.000         190.000
   5029788.56249   3914567.34245  23385726.754    23385725.670    23385741.228
       216.000         154.000
 -13520800.28449 -10521739.07446  22490141.354    22490141.546    22490152.928
       224.000         165.000
 01 11 12 17  8 59.9960000  0  9G22G20G27G 1G 4G29G25G11G13
 -12059836.36749  -9371586.98647  19773108.268    19773107.634    19773118.576
       240.000         209.000
  -7856982.30249  -6104413.96947  19175595.691    19175595.071    19175603.217
       231.000         203.000
  -3343079.91849  -2584594.28245  24102239.546    24102239.488    24102256.337
       210.000         149.000
 -10583429.31749  -8230149.60347  20165247.302    20165246.964    20165256.817
       242.000         207.000
  -6215779.52349  -4825714.84145  23575563.388    23575563.491    23575577.290
       214.000         152.000
   2402878.83449   1869676.07245  22662283.877    22662283.074    22662299.092
       213.000         159.000
   3475219.40049   2705401.36447  21816313.991    21816313.453    21816324.860
       233.000         189.000
   5075357.84749   3950075.46945  23394398.568    23394397.504    23394413.187
       215.000         152.000
 -13637600.05149 -10612751.90646  22467915.162    22467915.335    22467926.593
       224.000         164.000
 01 11 12 17  9 29.9960000  0  9G22G20G27G 1G 4G29G25G11G13
 -12128909.92649  -9425410.52147  19759964.020    19759963.373    19759974.321
       240.000         209.000
  -7891800.59149  -6131545.15347  19168970.044    19168969.418    19168977.565
       231.000         203.000
  -3469936.53149  -2683443.66845  24078099.472    24078099.440    24078116.378
       207.000         146.000
 -10664966.53849  -8293685.12447  20149731.326    20149730.974    20149740.819
       242.000         207.000
  -6292491.54849  -4885490.51345  23560965.644    23560965.728    23560979.584
       211.000         153.000
   2428914.88449   1889963.57445  22667238.496    22667237.767    22667253.833
       212.000         158.000
   3513707.67249   2735391.98947  21823638.259    21823637.696    21823649.171
       233.000         190.000
   5120869.48649   3985538.64245  23403059.489    23403058.414    23403074.159
       214.000         152.000
 -13754373.00149 -10703743.83646  22445694.068    22445694.189    22445705.385
       224.000         164.000
 01 11 12 17  9 59.9960000  0  9G22G20G27G 1G 4G29G25G11G13
 -12197356.14449  -9478745.22547  19746939.179    19746938.510    19746949.428
       241.000         209.000
  -7926050.09549  -6158233.13647  19162452.591    19162451.981    19162460.162
       231.000         203.000
  -3596673.26149  -2782199.60545  24053982.294    24053982.251    24053999.254
       208.000         145.000
 -10746358.02749  -8357107.08247  20134243.058    20134242.711    20134252.553
       242.000         207.000
  -6368709.10449  -4944880.85345  23546461.954    23546462.048    23546475.935
       213.000         150.000
   2455067.53549   1910341.94245  22672215.477    22672214.695    22672230.804
       218.000         161.000
   3552291.82849   2765457.31847  21830980.705    21830980.185    21830991.735
       231.000         189.000
   5166329.19049   4020961.35545  23411710.584    23411709.449    23411725.223
       211.000         147.000
 -13871110.33049 -10794707.99146  22423479.719    22423479.830    22423491.074
       221.000         165.000
 01 11 12 17 10 29.9960000  0  9G22G20G27G 1G 4G29G25G11G13
 -12265189.19349  -9531602.13447  19734031.033    19734030.321    19734041.228
       241.000         209.000
  -7959745.93049  -6184489.68947  19156040.486    19156039.891    19156048.138
       231.000         203.000
  -3723305.03749  -2880873.73745  24029885.036    24029884.926    24029902.005
       203.000         143.000
 -10827618.78449  -8420427.16847  20118779.670    20118779.319    20118789.174
       242.000         207.000
  -6444446.94849  -5003897.43245  23532049.528    23532049.634    23532063.494
       211.000         149.000
   2481321.21649   1930799.05646  22677211.736    22677210.892    22677226.983
       220.000         164.000
   3590954.71649   2795584.00147  21838338.170    21838337.676    21838349.308
       233.000         190.000
   5211718.77949   4056329.40845  23420348.175    23420347.089    23420362.984
       211.000         151.000
 -13987827.26549 -10885656.26446  22401269.208    22401269.332    22401280.603
       224.000         166.000
 01 11 12 17 10 59.9960000  0  9G22G20G27G 1G 4G29G25G11G13
 -12332398.28149  -9583972.84647  19721241.499    19721240.830    19721251.774
       240.000         210.000
  -7992878.24549  -6210307.13547  19149735.656    19149735.057    19149743.324
       231.000         204.000
  -3849821.62849  -2979458.03745  24005809.748    24005809.610    24005826.750
       210.000         147.000
 -10908738.87249  -8483637.64847  20103343.005    20103342.685    20103352.542
       242.000         207.000
  -6519694.88749  -5062532.25045  23517730.507    23517730.517    23517744.372
       215.000         153.000
   2507685.65149   1951342.46945  22682229.049    22682228.154    22682244.284
       218.000         162.000
   3629704.28049   2825778.22746  21845712.229    21845711.646    21845723.346
       232.000         187.000
   5257044.99049   4091648.03745  23428973.835    23428972.697    23428988.661
       213.000         150.000
 -14104514.14149 -10976581.12046  22379064.504    22379064.621    22379075.898
       224.000         166.000
 01 11 12 17 11 29.9960000  0  9G22G20G27G 1G 4G29G25G11G13
 -12398978.95249  -9635853.88847  19708571.581    19708570.943    19708581.903
       241.000         210.000
  -8025443.38249  -6235682.62747  19143538.742    19143538.152    19143546.464
       231.000         204.000
  -3976218.95149  -3077949.42745  23981757.194    23981757.059    23981774.127
       213.000         153.000
 -10989714.24949  -8546735.36447  20087933.955    20087933.600    20087943.456
       242.000         207.000
  -6594448.62949  -5120781.97645  23503505.330    23503505.404    23503519.227
       217.000         154.000
   2534164.68249   1971975.14545  22687267.982    22687267.151    22687283.406
       213.000         157.000
   3668542.29749   2856041.38147  21853103.021    21853102.445    21853114.188
       232.000         188.000
   5302308.65849   4126917.95345  23437587.527    23437586.362    23437602.381
       213.000         150.000
 -14221167.01049 -11067479.49646  22356866.258    22356866.368    22356877.586
       224.000         167.000
 01 11 12 17 11 59.9960000  0  9G22G20G27G 1G 4G29G25G11G13
 -12464927.71849  -9687242.54547  19696021.996    19696021.338    19696032.270
       242.000         210.000
  -8057438.92849  -6260614.28347  19137450.220    19137449.632    19137457.972
       232.000         204.000
  -4102494.11149  -3176345.61545  23957727.792    23957727.686    23957744.757
       214.000         154.000
 -11070542.14249  -8609718.16147  20072552.944    20072552.589    20072562.431
       242.000         207.000
  -6668705.27149  -5178644.35145  23489374.933    23489374.909    23489388.749
       217.000         156.000
   2560760.22549   1992698.60845  22692328.986    22692328.270    22692344.687
       210.000         154.000
   3707469.51749   2886374.03447  21860510.822    21860510.223    21860522.064
       231.000         189.000
   5347509.13149   4162138.63245  23446189.258    23446188.034    23446204.141
       213.000         149.000
 -14337783.58849 -11158349.57146  22334674.728    22334674.961    22334686.176
       224.000         166.000
 01 11 12 17 12 29.9960000  0  9G22G20G27G 1G 4G29G25G11G13
 -12530249.81649  -9738142.88947  19683591.646    19683590.968    19683601.867
       241.000         210.000
  -8088871.02849  -6285106.89347  19131468.920    19131468.338    19131476.706
       231.000         204.000
  -4228652.99349  -3274651.15745  23933720.495    23933720.414    23933737.600
       210.000         150.000
 -11151228.48449  -8672590.65347  20057198.899    20057198.513    20057208.350
       242.000         207.000
  -6742470.68049  -5236123.96745  23475337.905    23475337.918    23475351.744
       219.000         154.000
   2587465.82249   2013507.81645  22697410.985    22697410.360    22697426.953
       211.000         155.000
   3746477.67949   2916769.78047  21867933.968    21867933.407    21867945.309
       231.000         188.000
   5392637.54749   4197303.14345  23454777.360    23454776.022    23454792.198
       215.000         152.000
 -14454369.88249 -11249196.06446  22312489.122    22312489.328    22312500.507
       222.000         167.000
 01 11 12 17 12 59.9960000  0  9G22G20G27G 1G 4G29G25G11G13
 -12594946.71649  -9788556.06747  19671280.227    19671279.560    19671290.462
       241.000         209.000
  -8119741.86149  -6309162.15847  19125594.446    19125593.837    19125602.249
       231.000         204.000
  -4354697.58049  -3372867.63745  23909734.943    23909734.836    23909752.201
       207.000         143.000
 -11231775.43149  -8735354.52047  20041871.342    20041870.954    20041880.796
       241.000         207.000
  -6815746.82749  -5293222.31445  23461394.014    23461394.002    23461407.799
       218.000         152.000
   2614279.31349   2034401.10245  22702513.766    22702513.065    22702529.666
       216.000         161.000
   3785562.95749   2947225.59947  21875371.921    21875371.289    21875383.268
       232.000         189.000
   5437688.55349   4232407.34845  23463350.587    23463349.283    23463365.637
       212.000         153.000
 -14570928.31449 -11340020.82746  22290308.783    22290308.990    22290320.156
       226.000         168.000
 01 11 12 17 13 29.9960000  0  9G22G20G27G 1G 4G29G25G11G13
 -12659015.03549  -9838479.44447  19659088.403    19659087.751    19659098.684
       241.000         210.000
  -8150049.28649  -6332778.40047  19119827.229    19119826.585    19119835.010
       232.000         204.000
  -4480624.80249  -3470992.71445  23885771.816    23885771.655    23885788.918
       208.000         139.000
 -11312180.18049  -8798007.58747  20026570.818    20026570.453    20026580.314
       242.000         207.000
  -6888530.82549  -5349937.21145  23447543.718    23447543.704    23447557.531
       218.000         149.000
   2641202.95449   2055380.24346  22707637.548    22707636.788    22707653.390
       220.000         164.000
   3824725.73349   2977741.80846  21882824.521    21882823.884    21882835.949
       230.000         187.000
   5482661.84549   4267450.95345  23471908.997    23471907.789    23471924.243
       212.000         149.000
 -14687456.15349 -11430821.76946  22268134.401    22268134.555    22268145.631
       226.000         168.000
 01 11 12 17 13 59.9960000  0  9G22G20G27G 1G 4G29G25G11G13
 -12722458.99849  -9887916.32047  19647015.439    19647014.785    19647025.668
       241.000         210.000
  -8179797.98649  -6355959.26947  19114166.300    19114165.656    19114174.083
       232.000         205.000
  -4606439.37949  -3569030.01945  23861830.195    23861829.887    23861847.104
       209.000         145.000
 -11392447.45249  -8860553.52947  20011296.461    20011296.111    20011305.966
       242.000         207.000
  -6960827.22049  -5406272.13945  23433786.228    23433786.220    23433799.988
       219.000         150.000
   2668231.45549   2076441.09246  22712781.309    22712780.426    22712797.089
       218.000         165.000
   3863959.38149   3008313.26146  21890290.588    21890289.978    21890302.076
       233.000         186.000
   5527549.42349   4302427.76645  23480451.038    23480449.878    23480466.594
       212.000         151.000
 -14803958.35249 -11521602.69746  22245964.639    22245964.887    22245975.976
       225.000         166.000
 01 11 12 17 14 29.9960000  0  9G22G20G27G 1G 4G29G25G11G13
 -12785280.86649  -9936868.44947  19635060.878    19635060.199    19635071.034
       241.000         209.000
  -8208991.36449  -6378707.42247  19108611.032    19108610.387    19108618.847
       231.000         205.000
  -4732144.12549  -3666981.65245  23837909.379    23837909.089    23837926.245
       210.000         154.000
 -11472580.14849  -8922994.60847  19996047.744    19996047.379    19996057.229
       242.000         207.000
  -7032638.87849  -5462229.36145  23420120.967    23420120.972    23420134.733
       218.000         151.000
   2695361.66949   2097581.16445  22717944.158    22717943.390    22717960.156
       215.000         160.000
   3903258.72549   3038935.90546  21897769.187    21897768.583    21897780.690
       231.000         185.000
   5572345.37649   4337333.20045  23488975.743    23488974.598    23488991.484
       214.000         151.000
 -14920437.97849 -11612366.03346  22223799.407    22223799.575    22223810.693
       223.000         168.000
 01 11 12 17 14 59.9960000  0  9G22G20G27G 1G 4G29G25G11G13
 -12847462.01749  -9985321.32247  19623228.227    19623227.533    19623238.333
       241.000         210.000
  -8237611.87049  -6401009.18147  19103164.765    19103164.130    19103172.602
       233.000         205.000
  -4857721.06849  -3764833.70245  23814012.961    23814012.613    23814029.740
       212.000         157.000
 -11552560.11649  -8985316.67447  19980828.073    19980827.714    19980837.566
       242.000         208.000
  -7103947.74949  -5517794.76145  23406551.389    23406551.402    23406565.173
       216.000         148.000
   2722611.11249   2118814.16345  22723129.761    22723129.004    22723145.869
       209.000         155.000
   3942639.83049   3069622.25146  21905263.335    21905262.732    21905274.877
       231.000         185.000
   5617064.40149   4372178.67845  23497485.960    23497484.723    23497501.744
       213.000         150.000
 -15036877.41349 -11703098.05146  22201641.686    22201641.875    22201652.996
       224.000         168.000
 01 11 12 17 15 29.9960000  0  9G22G20G27G 1G 4G29G25G11G13
 -12909007.40549 -10033278.78647  19611516.518    19611515.819    19611526.637
       241.000         210.000
  -8265665.12849  -6422868.92147  19097826.439    19097825.828    19097834.313
       232.000         206.000
  -4983175.50849  -3862590.32045  23790139.780    23790139.415    23790156.556
       212.000         155.000
 -11632392.67249  -9047523.87247  19965636.451    19965636.103    19965645.973
       242.000         208.000
  -7174759.04549  -5572972.46745  23393076.483    23393076.472    23393090.295
       218.000         145.000
   2749974.02449   2140135.55245  22728336.788    22728336.115    22728353.163
       207.000         151.000
   3982095.33149   3100366.57546  21912771.675    21912771.052    21912783.235
       232.000         186.000
   5661698.18249   4406957.72245  23505979.932    23505978.586    23505995.659
       214.000         149.000
 -15153281.72449 -11793802.67746  22179490.721    22179490.914    22179502.096
       226.000         170.000
 01 11 12 17 15 59.9960000  0  9G22G20G27G 1G 4G29G25G11G13
 -12969921.69549 -10080744.48847  19599924.893    19599924.226    19599935.037
       241.000         210.000
  -8293156.60949  -6444290.91447  19092595.068    19092594.424    19092602.937
       233.000         206.000
  -5108512.30949  -3960255.31545  23766288.890    23766288.612    23766305.699
       213.000         156.000
 -11712082.81649  -9109620.09547  19950471.914    19950471.578    19950481.481
       242.000         208.000
  -7245078.08549  -5627766.57945  23379695.252    23379695.303    23379709.042
       217.000         143.000
   2777444.92349   2161541.07345  22733564.649    22733563.853    22733581.016
       213.000         154.000
   4021618.22349   3131163.40846  21920292.798    21920292.183    21920304.406
       231.000         184.000
   5706238.55649   4441663.99145  23514456.183    23514454.713    23514471.886
       214.000         150.000
 -15269656.23549 -11884484.09546  22157345.429    22157345.590    22157356.801
       227.000         169.000
 01 11 12 17 16 29.9960000  0  9G22G20G27G 1G 4G29G25G11G13
 -13030199.07449 -10127713.89747  19588454.488    19588453.831    19588464.637
       241.000         210.000
  -8320081.46949  -6465271.38747  19087471.441    19087470.833    19087479.398
       233.000         206.000
  -5233726.05449  -4057824.43045  23742461.420    23742461.230    23742478.261
       214.000         160.000
 -11791625.19749  -9171601.17647  19935335.509    19935335.173    19935345.076
       241.000         207.000
  -7314899.39349  -5682172.85745  23366408.797    23366408.829    23366422.485
       220.000         146.000
   2805028.59649   2183034.50045  22738813.949    22738813.133    22738830.441
       218.000         162.000
   4061211.56349   3162015.12946  21927827.405    21927826.717    21927838.952
       231.000         184.000
   5750687.48249   4476298.98445  23522915.025    23522913.469    23522930.736
       210.000         149.000
 -15385996.18049 -11975138.56246  22135206.656    22135206.834    22135218.055
       227.000         170.000
 01 11 12 17 16 59.9960000  0  9G22G20G27G 1G 4G29G25G11G13
 -13089840.83249 -10174188.01847  19577105.088    19577104.402    19577115.179
       242.000         210.000
  -8346441.86849  -6485812.01747  19082455.266    19082454.666    19082463.246
       233.000         206.000
  -5358818.38049  -4155298.86645  23718656.992    23718656.894    23718673.970
       212.000         161.000
 -11871021.38649  -9233468.34847  19920226.936    19920226.593    19920236.482
       242.000         207.000
  -7384224.70049  -5736192.66445  23353216.694    23353216.786    23353230.444
       220.000         146.000
   2832722.94549   2204614.16546  22744084.341    22744083.509    22744100.884
       217.000         164.000
   4100871.88849   3192919.04946  21935374.729    21935374.022    21935386.312
       231.000         185.000
   5795040.19849   4510859.01945  23531355.387    23531353.867    23531371.337
       211.000         152.000
 -15502303.07549 -12065767.27346  22113074.209    22113074.368    22113085.577
       228.000         172.000
 01 11 12 17 17 29.9960000  0  9G22G20G27G 1G 4G29G25G11G13
 -13148839.45849 -10220160.99447  19565878.083    19565877.347    19565888.110
       241.000         210.000
  -8372230.98249  -6505907.49147  19077547.828    19077547.200    19077555.806
       233.000         206.000
  -5483782.02049  -4252673.01446  23694877.241    23694877.068    23694894.212
       216.000         164.000
 -11950264.04849  -9295215.89247  19905147.554    19905147.232    19905157.103
       242.000         207.000
  -7453047.00249  -5789820.51845  23340120.282    23340120.401    23340133.968
       219.000         145.000
   2860534.69149   2226285.29546  22749377.052    22749376.200    22749393.639
       216.000         163.000
   4140604.42549   3223879.21846  21942935.709    21942935.038    21942947.415
       230.000         184.000
   5839300.97549   4545347.37645  23539778.429    23539776.805    23539794.428
       211.000         153.000
 -15618569.92449 -12156364.76646  22090949.368    22090949.545    22090960.694
       228.000         172.000
 01 11 12 17 17 59.9950000  0  9G22G20G27G 1G 4G29G25G11G13
 -13207191.49749 -10265630.13147  19554774.103    19554773.344    19554784.084
       241.000         211.000
  -8397447.42649  -6525556.72347  19072749.362    19072748.723    19072757.354
       233.000         206.000
  -5608611.49449  -4349942.66946  23671122.891    23671122.770    23671139.907
       215.000         163.000
 -12029349.25049  -9356840.74447  19890098.140    19890097.809    19890107.688
       241.000         207.000
  -7521362.82149  -5843053.67545  23327120.261    23327120.384    23327133.933
       222.000         151.000
   2888463.75049   2248047.81445  22754692.104    22754691.176    22754708.773
       211.000         160.000
   4180406.81149   3254893.82846  21950509.981    21950509.371    21950521.786
       232.000         185.000
   5883466.41249   4579761.45745  23548183.184    23548181.546    23548199.304
       213.000         152.000
 -15734791.68449 -12246927.12046  22068833.020    22068833.242    22068844.455
       227.000         172.000
 01 11 12 17 18 29.9950000  0  9G22G20G27G 1G 4G29G25G11G13
 -13264887.17249 -10310587.80847  19543794.961    19543794.228    19543805.010
       241.000         211.000
  -8422080.13349  -6544751.09547  19068061.975    19068061.329    19068069.976
       233.000         206.000
  -5733301.77449  -4447103.84745  23647395.070    23647394.982    23647412.104
       215.000         160.000
 -12108268.77549  -9418336.48947  19875080.231    19875079.932    19875089.784
       242.000         207.000
  -7589163.37149  -5895885.34445  23314218.384    23314218.464    23314232.070
       222.000         151.000
   2916525.03249   2269913.36245  22760032.157    22760031.307    22760049.060
       208.000         157.000
   4220293.04549   3285973.78846  21958100.353    21958099.689    21958112.100
       231.000         184.000
   5927549.84949   4614111.62945  23556572.429    23556570.778    23556588.608
       210.000         148.000
 -15850962.89849 -12337450.08246  22046726.288    22046726.578    22046737.802
       229.000         171.000
 01 11 12 17 18 59.9950000  0  9G22G20G27G 1G 4G29G25G11G13
 -13321935.72349 -10355041.23247  19532938.960    19532938.259    19532949.072
       241.000         211.000
  -8446140.11649  -6563499.19147  19063483.542    19063482.913    19063491.596
       233.000         206.000
  -5857860.37749  -4544162.38845  23623692.362    23623692.232    23623709.350
       214.000         159.000
 -12187031.51749  -9479710.07347  19860092.206    19860091.891    19860101.735
       243.000         207.000
  -7656458.10149  -5948322.89045  23301412.682    23301412.815    23301426.364
       219.000         149.000
   2944705.42649   2291871.73345  22765394.881    22765394.078    22765411.963
       214.000         157.000
   4260247.94049   3317107.21446  21965703.665    21965703.018    21965715.508
       230.000         183.000
   5971534.98649   4648385.19745  23564942.792    23564941.270    23564959.193
       209.000         146.000
 -15967091.54849 -12427939.90446  22024627.693    22024627.979    22024639.204
       227.000         171.000
 01 11 12 17 19 29.9950000  0  9G22G20G27G 1G 4G29G25G11G13
 -13378330.75749 -10398985.42547  19522207.327    19522206.651    19522217.463
       241.000         211.000
  -8469621.72649  -6581796.60547  19059015.139    19059014.552    19059023.265
       233.000         207.000
  -5982280.87749  -4641113.32345  23600015.868    23600015.699    23600032.855
       215.000         159.000
 -12265631.14749  -9540956.55947  19845135.187    19845134.909    19845144.709
       242.000         207.000
  -7723241.01749  -6000361.59245  23288704.311    23288704.502    23288718.077
       219.000         150.000
   2973010.63149   2313927.38445  22770781.507    22770780.655    22770798.597
       215.000         157.000
   4300276.30249   3348297.88546  21973320.907    21973320.315    21973332.925
       230.000         184.000
   6015425.12449   4682584.76345  23573295.077    23573293.585    23573311.762
       208.000         143.000
 -16083171.23649 -12518391.57046  22002538.425    22002538.693    22002549.956
       227.000         171.000
 01 11 12 17 19 59.9950000  0  9G22G20G27G 1G 4G29G25G11G13
 -13434083.85149 -10442429.39647  19511597.953    19511597.223    19511608.021
       242.000         211.000
  -8492537.75849  -6599653.30347  19054654.400    19054653.819    19054662.563
       234.000         206.000
  -6106575.24049  -4737965.98145  23576363.361    23576363.205    23576380.334
       215.000         160.000
 -12344079.61349  -9602085.26247  19830206.943    19830206.664    19830216.468
       241.000         207.000
  -7789524.14749  -6052010.83245  23276091.089    23276091.290    23276104.926
       220.000         153.000
   3001428.31149   2336070.68545  22776189.527    22776188.670    22776206.604
       215.000         157.000
   4340363.91649   3379534.73246  21980949.555    21980948.941    21980961.595
       230.000         183.000
   6059205.19249   4716698.52745  23581626.627    23581625.178    23581643.302
       211.000         148.000
 -16199214.24949 -12608814.66946  21980456.078    21980456.376    21980467.731
       227.000         172.000
 01 11 12 17 20 29.9950000  0  9G22G20G27G 1G 4G29G25G11G13
 -13489190.22349 -10485369.43347  19501111.577    19501110.844    19501121.632
       241.000         211.000
  -8514884.14349  -6617066.12647  19050402.026    19050401.477    19050410.235
       233.000         206.000
  -6230738.62649  -4834716.57745  23552735.773    23552735.609    23552752.721
       218.000         160.000
 -12422372.11349  -9663092.43947  19815308.360    19815308.099    19815317.915
       241.000         207.000
  -7855303.06049  -6103267.20845  23263573.914    23263574.038    23263587.752
       220.000         152.000
   3029962.79549   2358305.01745  22781619.773    22781618.895    22781636.855
       214.000         158.000
   4380513.84349   3410820.11146  21988589.992    21988589.402    21988602.142
       229.000         183.000
   6102876.78249   4750727.74745  23589937.466    23589936.014    23589954.331
       211.000         146.000
 -16315215.93549 -12699205.57846  21958381.618    21958381.922    21958393.331
       229.000         172.000
 01 11 12 17 20 59.9950000  0  9G22G20G27G 1G 4G29G25G11G13
 -13543663.82849 -10527816.39847  19490745.504    19490744.842    19490755.680
       241.000         211.000
  -8536675.28749  -6634046.28947  19046255.344    19046254.790    19046263.592
       234.000         207.000
  -6354785.13049  -4931376.06245  23529130.412    23529130.273    23529147.361
       216.000         161.000
 -12500522.63449  -9723988.97847  19800436.811    19800436.544    19800446.394
       241.000         207.000
  -7920591.97249  -6154141.76345  23251149.895    23251150.018    23251163.746
       219.000         151.000
   3058599.65249   2380619.11145  22787069.498    22787068.600    22787086.627
       210.000         158.000
   4420709.84249   3442141.39846  21996239.269    21996238.628    21996251.440
       230.000         184.000
   6146422.96849   4784659.28745  23598224.430    23598223.013    23598241.312
       213.000         145.000
 -16431190.42849 -12789575.30946  21936312.481    21936312.736    21936324.078
       231.000         174.000
 01 11 12 17 21 29.9950000  0  9G22G20G27G 1G 4G29G25G11G13
 -13597486.29949 -10569755.99247  19480503.411    19480502.780    19480513.635
       241.000         212.000
  -8557893.92649  -6650580.35147  19042217.681    19042217.077    19042225.892
       235.000         207.000
  -6478696.63949  -5027930.31345  23505550.716    23505550.609    23505567.716
       217.000         160.000
 -12578512.77249  -9784760.54447  19785595.777    19785595.532    19785605.396
       241.000         207.000
  -7985373.03349  -6204620.60445  23238822.476    23238822.703    23238836.369
       218.000         151.000
   3087356.18549   2403026.41945  22792542.047    22792541.020    22792559.166
       210.000         156.000
   4460967.99249   3473511.12546  22003900.359    22003899.690    22003912.565
       229.000         181.000
   6189858.54049   4818504.61845  23606490.349    23606488.931    23606507.367
       213.000         147.000
 -16547119.71449 -12879909.81846  21914251.946    21914252.169    21914263.404
       231.000         176.000
 01 11 12 17 21 59.9950000  0  9G22G20G27G 1G 4G29G25G11G13
 -13650666.61249 -10611195.20847  19470383.566    19470382.914    19470393.791
       241.000         212.000
  -8578549.67849  -6666675.79947  19038287.062    19038286.467    19038295.305
       234.000         208.000
  -6602482.03149  -5124386.31146  23481995.050    23481994.995    23482012.039
       218.000         163.000
 -12656351.13549  -9845413.84647  19770783.615    19770783.383    19770793.264
       241.000         207.000
  -8049655.22949  -6254710.72045  23226590.104    23226590.262    23226603.947
       220.000         151.000
   3116223.36349   2425519.91145  22798035.431    22798034.477    22798052.770
       208.000         156.000
   4501277.32149   3504920.70946  22011571.106    22011570.458    22011583.417
       229.000         182.000
   6233171.76849   4852254.58745  23614733.005    23614731.616    23614750.196
       210.000         148.000
 -16663012.92449 -12970216.21946  21892198.233    21892198.434    21892209.638
       230.000         175.000
 01 11 12 17 22 29.9950000  0  9G22G20G27G 1G 4G29G25G11G13
 -13703201.81549 -10652131.74147  19460386.494    19460385.820    19460396.669
       241.000         212.000
  -8598640.44449  -6682330.99447  19034463.960    19034463.365    19034472.229
       235.000         208.000
  -6726138.52049  -5220741.85946  23458463.935    23458463.880    23458480.927
       218.000         164.000
 -12734035.01849  -9905946.77347  19756000.864    19756000.623    19756010.523
       240.000         207.000
  -8113436.25049  -6304410.30945  23214453.091    23214453.182    23214466.916
       219.000         150.000
   3145203.35949   2448101.32945  22803550.307    22803549.457    22803567.860
       213.000         160.000
   4541638.73249   3536370.87646  22019251.738    22019251.164    22019264.247
       228.000         183.000
   6276362.07349   4885908.73445  23622952.235    23622950.878    23622969.626
       211.000         146.000
 -16778867.17749 -13060492.27446  21870151.874    21870152.093    21870163.274
       227.000         174.000
 01 11 12 17 22 59.9950000  0  9G22G20G27G 1G 4G29G25G11G13
 -13755088.60249 -10692563.02147  19450512.783    19450512.100    19450522.950
       241.000         212.000
  -8618163.72749  -6697544.00147  19030748.825    19030748.241    19030757.141
       234.000         208.000
  -6849662.80449  -5316994.41746  23434957.955    23434957.886    23434974.932
       220.000         164.000
 -12811560.83049  -9966356.53947  19741248.197    19741247.946    19741257.872
       241.000         207.000
  -8176713.04749  -6353716.98645  23202411.953    23202412.045    23202425.883
       219.000         147.000
   3174298.88949   2470772.77945  22809087.404    22809086.451    22809104.954
       214.000         159.000
   4582054.01949   3567863.03246  22026942.813    22026942.136    22026955.267
       229.000         182.000
   6319429.99049   4919467.57245  23631148.401    23631146.889    23631165.699
       211.000         145.000
 -16894679.26749 -13150735.47246  21848113.543    21848113.752    21848124.934
       228.000         175.000
 01 11 12 17 23 29.9950000  0  9G22G20G27G 1G 4G29G25G11G13
 -13806314.58749 -10732479.39447  19440764.830    19440764.141    19440775.000
       241.000         212.000
  -8637107.88649  -6712305.74047  19027143.913    19027143.335    19027152.247
       235.000         208.000
  -6973042.48549  -5413134.27046  23411479.497    23411479.435    23411496.536
       219.000         167.000
 -12888916.13549 -10026633.43347  19726528.000    19726527.741    19726537.694
       241.000         207.000
  -8239473.69349  -6402621.47045  23190469.009    23190469.113    23190482.923
       218.000         147.000
   3203521.97549   2493543.63445  22814648.709    22814647.710    22814666.364
       215.000         157.000
   4622533.52249   3599405.21346  22034646.019    22034645.280    22034658.541
       227.000         181.000
   6362385.05849   4952938.42245  23639322.914    23639321.331    23639340.381
       210.000         145.000
 -17010436.87649 -13240936.21846  21826085.526    21826085.810    21826096.986
       228.000         174.000
 01 11 12 17 23 59.9950000  0  9G22G20G27G 1G 4G29G25G11G13
 -13856894.66349 -10771892.46847  19431139.774    19431139.097    19431149.965
       242.000         212.000
  -8655488.71249  -6726628.51747  19023646.231    19023645.638    19023654.551
       235.000         207.000
  -7096292.45549  -5509173.02246  23388025.686    23388025.651    23388042.811
       219.000         167.000
 -12966115.63949 -10086788.92647  19711837.473    19711837.183    19711847.169
       241.000         207.000
  -8301733.16649  -6451135.45045  23178621.514    23178621.581    23178635.393
       223.000         147.000
   3232857.28849   2516401.97445  22820231.466    22820230.367    22820248.975
       213.000         152.000
   4663060.28449   3630984.19646  22042358.226    22042357.474    22042370.835
       227.000         182.000
   6405209.41349   4986307.43045  23647472.631    23647470.980    23647490.180
       212.000         145.000
 -17126154.83249 -13331106.06046  21804065.161    21804065.411    21804076.618
       228.000         175.000
 01 11 12 17 24 29.9950000  0  9G22G20G27G 1G 4G29G25G11G13
 -13906825.32049 -10810799.50547  19421638.328    19421637.629    19421648.520
       242.000         212.000
  -8673303.33149  -6740510.09647  19020256.333    19020255.690    19020264.588
       235.000         208.000
  -7219409.23849  -5605108.01846  23364597.328    23364597.281    23364614.315
       220.000         168.000
 -13043155.53749 -10146820.05347  19697177.268    19697176.987    19697186.995
       241.000         207.000
  -8363488.22649  -6499256.36545  23166869.994    23166870.058    23166883.769
       223.000         144.000
   3262307.91049   2539350.16945  22825835.936    22825834.895    22825853.521
       210.000         145.000
   4703636.08649   3662601.41346  22050079.833    22050079.039    22050092.442
       229.000         180.000
   6447903.40749   5019574.86145  23655597.488    23655595.800    23655615.121
       213.000         146.000
 -17241829.68549 -13421242.33246  21782053.063    21782053.256    21782064.420
       229.000         176.000
 01 11 12 17 24 59.9950000  0  9G22G20G27G 1G 4G29G25G11G13
 -13956103.21649 -10849197.90647  19412261.091    19412260.376    19412271.257
       242.000         212.000
  -8690549.01949  -6753948.35347  19016974.628    19016973.988    19016982.903
       235.000         208.000
  -7342389.43649  -5700936.61846  23341194.891    23341194.835    23341211.840
       218.000         166.000
 -13120032.34949 -10206724.09347  19682548.146    19682547.834    19682557.872
       241.000         208.000
  -8424736.06949  -6546982.05845  23155215.040    23155215.069    23155228.765
       221.000         145.000
   3291876.74949   2562390.47445  22831463.046    22831461.998    22831480.553
       206.000         140.000
   4744262.36549   3694257.95746  22057810.993    22057810.157    22057823.605
       227.000         178.000
   6490467.54349   5052741.09145  23663697.655    23663695.920    23663715.421
       215.000         147.000
 -17357458.19849 -13511342.48346  21760049.701    21760049.891    21760061.040
       230.000         177.000
 01 11 12 17 25 29.9950000  0  9G22G20G27G 1G 4G29G25G11G13
 -14004737.62949 -10887094.88947  19403006.368    19403005.592    19403016.424
       242.000         212.000
  -8707235.88249  -6766951.16147  19013799.231    19013798.611    19013807.559
       235.000         208.000
  -7465242.41949  -5796666.10346  23317816.575    23317816.576    23317833.575
       219.000         165.000
 -13196754.94649 -10266507.95947  19667948.431    19667948.059    19667958.076
       241.000         208.000
  -8485486.16349  -6594319.90845  23143654.739    23143654.813    23143668.509
       221.000         144.000
   3321554.20349   2585515.40445  22837110.642    22837109.676    22837128.185
       208.000         145.000
   4784928.13249   3725945.28546  22065549.605    22065548.784    22065562.278
       228.000         178.000
   6532889.59549   5085796.57545  23671770.807    23671769.050    23671788.693
       213.000         147.000
 -17473049.13549 -13601413.34146  21738053.468    21738053.673    21738064.847
       229.000         176.000
 01 11 12 17 25 59.9950000  0  9G22G20G27G 1G 4G29G25G11G13
 -14052721.50549 -10924484.97347  19393875.343    19393874.589    19393885.431
       241.000         212.000
  -8723357.60249  -6779513.60247  19010731.431    19010730.801    19010739.754
       236.000         208.000
  -7587960.87649  -5892290.81546  23294463.968    23294463.950    23294480.806
       219.000         164.000
 -13273315.98049 -10326165.92647  19653379.399    19653379.010    19653389.032
       241.000         208.000
  -8545731.75049  -6641264.63245  23132190.517    23132190.535    23132204.115
       220.000         141.000
   3351347.01549   2608730.20045  22842780.505    22842779.370    22842797.981
       208.000         153.000
   4825638.62549   3757667.45046  22073296.753    22073295.956    22073309.479
       227.000         179.000
   6575174.15649   5118744.96545  23679817.673    23679815.990    23679835.803
       212.000         146.000
 -17588595.68049 -13691449.60946  21716065.723    21716065.903    21716077.051
       229.000         176.000
 01 11 12 17 26 29.9950000  0  9G22G20G27G 1G 4G29G25G11G13
 -14100059.48749 -10961371.76247  19384867.245    19384866.491    19384877.362
       241.000         212.000
  -8738919.72149  -6791639.99047  19007770.148    19007769.483    19007778.454
       236.000         208.000
  -7710549.38549  -5987814.26446  23271136.116    23271136.056    23271152.877
       220.000         164.000
 -13349719.73149 -10385701.32147  19638840.285    19638839.893    19638849.918
       242.000         208.000
  -8605477.69549  -6687820.00745  23120821.270    23120821.326    23120834.863
       219.000         141.000
   3381249.98949   2632030.83145  22848471.170    22848470.037    22848488.762
       213.000         158.000
   4866387.19649   3789419.28446  22081051.109    22081050.346    22081063.976
       228.000         180.000
   6617313.53249   5151580.20345  23687836.970    23687835.226    23687855.131
       208.000         138.000
 -17704102.20449 -13781454.68546  21694085.585    21694085.739    21694096.879
       227.000         176.000
 01 11 12 17 26 59.9950000  0  9G22G20G27G 1G 4G29G25G11G13
 -14146747.45749 -10997752.05147  19375982.827    19375982.081    19375992.987
       241.000         212.000
  -8753918.63449  -6803327.52047  19004915.983    19004915.326    19004924.310
       236.000         208.000
  -7833003.59449  -6083233.05745  23247833.865    23247833.738    23247850.529
       216.000         159.000
 -13425961.71349 -10445110.66847  19624331.931    19624331.552    19624341.582
       241.000         208.000
  -8664720.12849  -6733983.02445  23109547.906    23109547.960    23109561.400
       223.000         148.000
   3411267.19749   2655420.48745  22854183.521    22854182.430    22854201.272
       213.000         159.000
   4907176.60749   3821202.94246  22088813.409    22088812.586    22088826.257
       229.000         181.000
   6659309.13349   5184303.43344  23695828.902    23695827.223    23695847.225
       205.000         130.000
 -17819564.56049 -13871425.32146  21672113.770    21672113.959    21672125.154
       227.000         177.000
 01 11 12 17 27 29.9950000  0  9G22G20G27G 1G 4G29G25G11G13
 -14192786.01249 -11033626.29347  19367222.006    19367221.259    19367232.208
       241.000         212.000
  -8768355.78649  -6814577.30947  19002168.698    19002168.076    19002177.084
       236.000         208.000
  -7955323.93949  -6178547.58045  23224557.027    23224556.830    23224573.526
       218.000         160.000
 -13502041.93649 -10504393.96747  19609854.373    19609853.981    19609864.025
       242.000         208.000
  -8723460.15949  -6779754.58445  23098370.176    23098370.175    23098383.681
       222.000         148.000
   3441397.61549   2678898.35745  22859917.372    22859916.304    22859935.318
       212.000         156.000
   4948004.76549   3853016.80146  22096582.939    22096582.150    22096595.895
       227.000         179.000
   6701157.72649   5216912.11844  23703793.015    23703791.239    23703811.415
       199.000         122.000
 -17934982.99249 -13961361.73146  21650150.266    21650150.515    21650161.816
       228.000         178.000
 01 11 12 17 27 59.9950000  0  9G22G20G27G 1G 4G29G25G11G13
 -14238162.62949 -11068984.74047  19358587.191    19358586.413    19358597.364
       241.000         212.000
  -8782219.47649  -6825380.24547  18999530.553    18999529.936    18999538.963
       237.000         208.000
  -8077497.75049  -6273747.93846  23201308.078    23201307.880    23201324.547
       221.000         164.000
 -13577947.67449 -10563541.30347  19595410.029    19595409.641    19595419.640
       242.000         208.000
  -8781685.31949  -6825124.92045  23087290.356    23087290.353    23087303.892
       220.000         148.000
   3471653.57749   2702474.05945  22865675.184    22865674.124    22865693.227
       210.000         153.000
   4988882.45449   3884869.24946  22104361.864    22104361.127    22104374.959
       227.000         179.000
   6742869.21149   5249413.90044  23711730.867    23711729.223    23711749.494
       195.000         119.000
 -18050344.63249 -14051253.87946  21628197.613    21628197.910    21628209.224
       227.000         178.000
 01 11 12 17 28 29.9950000  0  9G22G20G27G 1G 4G29G25G11G13
 -14282894.83449 -11103841.04547  19350074.939    19350074.200    19350085.116
       241.000         212.000
  -8795527.91849  -6835750.52547  18996998.087    18996997.469    18997006.505
       236.000         208.000
  -8199542.24749  -6368847.52445  23178083.678    23178083.523    23178100.129
       216.000         161.000
 -13653695.78949 -10622565.81147  19580995.642    19580995.281    19581005.254
       242.000         208.000
  -8839413.39449  -6870107.94845  23076305.156    23076305.146    23076318.710
       220.000         150.000
   3502017.38349   2726133.81945  22871453.465    22871452.463    22871471.635
       207.000         149.000
   5029790.65949   3916745.46046  22112146.651    22112145.920    22112159.827
       227.000         179.000
   6784423.32548   5281793.04344  23719638.762    23719636.801    23719657.484
       194.000         109.000
 -18165666.62349 -14141115.11246  21606252.532    21606252.830    21606264.227
       229.000         179.000
 01 11 12 17 28 59.9950000  0  9G22G20G27G 1G 4G29G25G11G13
 -14326970.54049 -11138185.77947  19341687.623    19341686.893    19341697.792
       242.000         211.000
  -8808269.56249  -6845679.14047  18994573.481    18994572.855    18994581.913
       237.000         208.000
  -8321445.11849  -6463836.72745  23154886.188    23154886.060    23154902.708
       215.000         157.000
 -13729273.78049 -10681457.74747  19566613.637    19566613.263    19566623.259
       241.000         208.000
  -8896632.71449  -6914694.51645  23065416.654    23065416.685    23065430.381
       218.000         147.000
   3532500.94049   2749886.88645  22877254.477    22877253.578    22877272.821
       207.000         145.000
   5070740.23549   3948653.91246  22119939.296    22119938.559    22119952.570
       226.000         178.000
   6825829.67548   5314057.12144  23727518.594                    23727517.308
       192.000         113.000
 -18280936.58649 -14230935.83246  21584317.407    21584317.706    21584329.088
       229.000         179.000
 01 11 12 17 29 29.9950000  0  9G22G20G27G 1G 4G29G25G11G13
 -14370398.28249 -11172025.59947  19333423.606    19333422.883    19333433.801
       241.000         212.000
  -8820453.67849  -6855173.31647  18992254.983    18992254.345    18992263.398
       237.000         208.000
  -8443214.58349  -6558721.98845  23131714.204    23131714.083    23131730.673
       218.000         161.000
 -13804689.48349 -10740223.21847  19552262.490    19552262.146    19552272.152
       241.000         209.000
  -8953351.79249  -6958891.28645  23054623.394    23054623.406    23054637.202
       217.000         148.000
   3563095.60049   2773726.59245  22883076.692    22883075.787    22883095.116
       210.000         144.000
   5111720.88749   3980586.60746  22127737.943    22127737.143    22127751.201
       227.000         179.000
   6867077.24948   5346197.46144  23735368.176                    23735370.489
       181.000         108.000
 -18396162.91349 -14320722.54146  21562390.574    21562390.849    21562402.257
       229.000         178.000
 01 11 12 17 29 59.9950000  0  9G22G20G27G 1G 4G29G25G11G13
 -14413170.43049 -11205354.55947  19325284.376    19325283.644    19325294.606
       241.000         212.000
  -8832073.36049  -6864227.67047  18990043.850    18990043.232    18990052.268
       237.000         208.000
  -8564842.67649  -6653497.09345  23108569.095    23108568.995    23108585.549
       212.000         155.000
 -13879934.54649 -10798855.72247  19537943.855    19537943.502    19537953.503
       242.000         208.000
  -9009563.41749  -7002692.66245  23043926.727    23043926.752    23043940.567
       218.000         151.000
   3593808.72049   2797658.59445  22888921.520    22888920.582    22888939.935
       212.000         146.000
   5152738.66749   4012548.22846  22135543.616    22135542.810    22135556.904
       226.000         179.000
                   5378217.88154  23743188.480
       166.000          97.000
 -18511337.47549 -14410468.89446  21540473.490    21540473.810    21540485.317
       227.000         177.000
 01 11 12 17 30 29.9950000  0  9G22G20G27G 1G 4G29G25G11G13
 -14455282.97049 -11238169.53247  19317270.702    19317269.918    19317280.895
       242.000         212.000
  -8843125.17849  -6872839.53847  18987940.798    18987940.179    18987949.213
       237.000         208.000
  -8686325.09449  -6748158.65745  23085451.727    23085451.598    23085468.159
       217.000         161.000
 -13955004.33649 -10857351.65347  19523658.597    19523658.216    19523668.208
       242.000         208.000
  -9065263.45949  -7046095.36445  23033327.421    23033327.430    23033341.349
       217.000         154.000
   3624644.33049   2821686.01745  22894789.610    22894788.663    22894808.090
       211.000         151.000
   5193796.32849   4044540.89646  22143356.912    22143356.053    22143370.240
       227.000         180.000
                   5410119.80653  23750979.917
       164.000          86.000
 -18626455.76549 -14500171.42146  21518567.150    21518567.487    21518578.972
       228.000         177.000
 01 11 12 17 30 59.9950000  0  8G22G20G27G 1G 4G29G25G13
 -14496751.31449 -11270482.52547  19309379.590    19309378.778    19309389.747
       242.000         212.000
  -8853625.43249  -6881021.61047  18985942.735    18985942.101    18985951.117
       237.000         208.000
  -8807676.90449  -6842718.46346  23062359.256    23062359.071    23062375.650
       217.000         165.000
 -14029913.74649 -10915722.61747  19509403.753    19509403.428    19509413.420
       241.000         208.000
  -9120467.87849  -7089111.84845  23022822.490    23022822.476    23022836.467
       217.000         154.000
   3655586.94349   2845796.83145  22900678.095    22900677.187    22900696.733
       212.000         155.000
   5234877.41749   4076551.83546  22151174.667    22151173.765    22151188.081
       226.000         177.000
 -18741532.55749 -14589841.59846  21496668.659    21496669.032    21496680.563
       227.000         175.000
 01 11 12 17 31 29.9950000  0  8G22G20G27G 1G 4G29G25G13
 -14537553.84049 -11302276.69647  19301615.120    19301614.330    19301625.290
       242.000         212.000
  -8863553.00049  -6888757.44347  18984053.659    18984053.001    18984062.034
       237.000         208.000
  -8928876.03149  -6937159.19545  23039295.703    23039295.594    23039312.243
       212.000         162.000
 -14104640.14049 -10973950.97047  19495183.768    19495183.442    19495193.452
       241.000         208.000
  -9175154.99449  -7131725.27545  23012415.925    23012415.941    23012429.963
       217.000         153.000
   3686657.94049   2870007.66645  22906591.025    22906590.113    22906609.669
       209.000         155.000
   5276002.33249   4108596.92546  22159000.611    22158999.788    22159014.197
       225.000         176.000
 -18856545.49749 -14679462.02646  21474782.383    21474782.773    21474794.271
       229.000         178.000
 01 11 12 17 31 59.9950000  0  8G22G20G27G 1G 4G29G25G13
 -14577698.87149 -11333558.53247  19293975.732    19293974.987    19293985.953
       241.000         212.000
  -8872916.74749  -6896053.93147  18982271.811    18982271.180    18982280.221
       237.000         208.000
  -9049930.49749  -7031487.25045  23016259.777    23016259.664    23016276.275
       216.000         157.000
 -14179191.25649 -11032042.74347  19480997.124    19480996.825    19481006.856
       241.000         208.000
  -9229333.31449  -7173942.22145  23002106.241    23002106.239    23002120.311
       218.000         155.000
   3717849.34149   2894312.33345  22912526.762    22912525.846    22912545.590
       208.000         155.000
   5317161.05749   4140668.35146  22166833.055    22166832.253    22166846.754
       226.000         179.000
 -18971502.82949 -14769039.11346  21452906.775    21452907.121    21452918.602
       231.000         179.000
 01 11 12 17 32 29.9950000  0  8G22G20G27G 1G 4G29G25G13
 -14617180.79349 -11364323.65847  19286462.563    19286461.849    19286472.797
       242.000         212.000
  -8881711.89149  -6902907.35247  18980598.240    18980597.580    18980606.601
       238.000         208.000
  -9170834.37449  -7125698.00145  22993252.452    22993252.319    22993268.824
       215.000         153.000
 -14253560.60649 -11089992.87847  19466845.126    19466844.826    19466854.854
       241.000         209.000
  -9282997.67749  -7215758.66845  22991894.311    22991894.284    22991908.527
       219.000         158.000
   3749166.48649   2918714.98745  22918486.366    22918485.496    22918505.458
       208.000         155.000
   5358357.88949   4172769.46946  22174672.880    22174672.004    22174686.569
       226.000         179.000
 -19086397.87649 -14858567.66246  21431042.968    21431043.303    21431054.728
       230.000         179.000
 01 11 12 17 32 59.9950000  0  8G22G20G27G 1G 4G29G25G13
 -14656008.53249 -11394579.03847  19279073.943    19279073.207    19279084.135
       242.000         212.000
  -8889947.74749  -6909324.96847  18979031.051    18979030.410    18979039.401
       238.000         208.000
  -9291596.04049  -7219797.91046  22970272.300    22970272.119    22970288.531
       220.000         163.000
 -14327756.28549 -11147807.69347  19452726.215    19452725.874    19452735.909
       241.000         208.000
  -9336156.99649  -7257181.59145  22981778.529    22981778.465    22981792.769
       217.000         155.000
   3780600.53149   2943208.72045  22924468.363    22924467.476    22924487.541
       209.000         153.000
   5399582.96549   4204892.58546  22182517.973    22182517.103    22182531.736
       223.000         176.000
 -19201239.22649 -14948054.36946  21409189.349    21409189.674    21409201.081
       229.000         178.000
 01 11 12 17 33 29.9950000  0  8G22G20G27G 1G 4G29G25G13
 -14694185.76049 -11424327.52847  19271809.090    19271808.334    19271819.267
       242.000         212.000
  -8897628.83549  -6915310.30047  18977569.423    18977568.782    18977577.801
       237.000         208.000
  -9412218.60349  -7313789.42245  22947318.548    22947318.392    22947334.755
       215.000         158.000
 -14401781.07349 -11205489.34147  19438639.715    19438639.410    19438649.463
       240.000         208.000
  -9388815.17249  -7298213.98345  22971758.004    22971758.021    22971772.323
       219.000         155.000
   3812148.04949   2967790.89445  22930471.857    22930471.023    22930491.176
       209.000         149.000
   5440831.55949   4237034.03446  22190367.477    22190366.676    22190381.340
       222.000         175.000
 -19316029.70949 -15037501.44746  21387345.392    21387345.751    21387357.138
       229.000         177.000
 01 11 12 17 33 59.9950000  0  8G22G20G27G 1G 4G29G25G13
 -14731713.64549 -11453570.04247  19264667.728    19264667.020    19264677.938
       241.000         212.000
  -8904757.16849  -6920864.90947  18976212.985    18976212.356    18976221.398
       238.000         208.000
  -9532702.96949  -7407673.21745  22924390.972    22924390.891    22924407.256
       217.000         161.000
 -14475635.24849 -11263038.04447  19424585.728    19424585.418    19424595.474
       241.000         209.000
  -9440973.39049  -7338856.84545  22961832.690    22961832.683    22961847.018
       219.000         156.000
   3843807.59549   2992460.39045  22936496.658    22936495.874    22936516.100
       207.000         144.000
   5482101.40249   4269192.05346  22198221.035    22198220.291    22198234.997
       222.000         175.000
 -19430769.76749 -15126909.24146  21365511.009    21365511.392    21365522.777
       229.000         177.000
 01 11 12 17 34 29.9950000  0  8G22G20G27G 1G 4G29G25G13
 -14768595.97049 -11482309.52947  19257649.233    19257648.544    19257659.464
       242.000         212.000
  -8911336.73149  -6925991.90747  18974960.970    18974960.348    18974969.425
       238.000         208.000
  -9653052.26649  -7501451.74246  22901489.214    22901489.144    22901505.551
       217.000         165.000
 -14549321.55849 -11320455.94347  19410563.671    19410563.388    19410573.418
       241.000         209.000
  -9492635.58849  -7379113.20345  22952001.834    22952001.791    22952016.143
       220.000         155.000
   3875575.91649   3017214.66845  22942542.174    22942541.396    22942561.755
       205.000         141.000
   5523387.77849   4301362.92946  22206077.646    22206076.989    22206091.827
       222.000         175.000
 -19545462.46549 -15216280.13846  21343685.653    21343686.053    21343697.392
       228.000         177.000
 01 11 12 17 34 59.9950000  0  8G22G20G27G 1G 4G29G25G13
 -14804824.88749 -11510539.87847  19250755.098    19250754.430    19250765.348
       242.000         212.000
  -8917360.47049  -6930685.79747  18973814.763    18973814.129    18973823.198
       239.000         208.000
  -9773258.07949  -7595118.48345  22878614.696    22878614.652    22878631.026
       221.000         159.000
 -14622831.15349 -11377736.14247  19396575.335    19396575.009    19396585.010
       242.000         209.000
  -9543794.20149  -7418977.15845  22942266.771    22942266.706    22942281.048
       220.000         156.000
   3907460.73149   3042059.67645  22948609.795    22948609.070    22948629.545
       205.000         140.000
   5564697.12149   4333551.69846  22213938.822    22213938.102    22213953.004
       225.000         175.000
 -19660098.94049 -15305607.21946  21321871.048    21321871.436    21321882.760
       231.000         179.000
 01 11 12 17 35 29.9950000  0  8G22G20G27G 1G 4G29G25G13
 -14840400.86549 -11538261.45347  19243985.271    19243984.567    19243995.477
       242.000         212.000
  -8922829.44449  -6934947.39947  18972774.132    18972773.470    18972782.547
       238.000         209.000
  -9893320.28849  -7688673.37346  22855767.616    22855767.522    22855783.774
       220.000         165.000
 -14696163.62249 -11434878.32247  19382620.702    19382620.329    19382630.322
       241.000         209.000
  -9594449.62949  -7458449.00645  22932627.431    22932627.399    22932641.747
       220.000         154.000
   3939461.87049   3066995.33145  22954699.563    22954698.905    22954719.482
       205.000         145.000
   5606028.18449   4365757.42846  22221804.191    22221803.419    22221818.300
       224.000         174.000
 -19774678.92149 -15394890.27946  21300067.196    21300067.591    21300078.821
       231.000         180.000
 01 11 12 17 35 59.9950000  0  8G22G20G27G 1G 4G29G25G13
 -14875331.62549 -11565480.26647  19237338.188    19237337.463    19237348.367
       241.000         212.000
  -8927751.98449  -6938783.20747  18971837.466    18971836.802    18971845.879
       238.000         209.000
 -10013246.14149  -7782121.91046  22832946.252    22832946.269    22832962.565
       219.000         167.000
 -14769325.61449 -11491887.67247  19368698.426    19368698.071    19368708.080
       241.000         209.000
  -9644609.87149  -7497535.00345  22923082.320    22923082.293    22923096.635
       219.000         152.000
   3971571.58349   3092015.57745  22960810.171    22960809.405    22960829.999
       207.000         147.000
   5647372.09149   4397973.15646  22229671.979    22229671.160    22229686.040
       222.000         173.000
 -19889209.48749 -15484134.81946  21278272.733    21278273.130    21278284.329
       231.000         181.000
 01 11 12 17 36 29.9940000  0  8G22G20G27G 1G 4G29G25G13
 -14909615.07849 -11592194.69347  19230814.298    19230813.556    19230824.445
       242.000         212.000
  -8932127.71349  -6942192.93247  18971004.864    18971004.178    18971013.278
       239.000         209.000
 -10133029.98549  -7875459.83246  22810152.127    22810152.097    22810168.337
       222.000         171.000
 -14842312.55649 -11548760.62447  19354809.424    19354809.105    19354819.159
       240.000         209.000
  -9694272.25749  -7536233.06145  22913632.000    22913631.905    22913646.348
       218.000         154.000
   4003790.18549   3117120.69645  22966941.398    22966940.654    22966961.344
       210.000         150.000
   5688727.47249   4430197.77146  22237541.779    22237541.033    22237555.965
       222.000         174.000
 -20003684.80749 -15573336.34346  21256488.858    21256489.209    21256500.345
       230.000         180.000
 01 11 12 17 36 59.9940000  0  8G22G20G27G 1G 4G29G25G13
 -14943248.33649 -11618402.47247  19224414.076    19224413.363    19224424.266
       242.000         212.000
  -8935952.16949  -6945173.09747  18970277.110    18970276.455    18970285.597
       239.000         209.000
 -10252674.09549  -7968688.84246  22787384.489    22787384.470    22787400.734
       221.000         170.000
 -14915123.07849 -11605496.11147  19340954.057    19340953.726    19340963.803
       241.000         209.000
  -9743435.25749  -7574541.97445  22904276.673    22904276.617    22904291.082
       217.000         154.000
   4036125.25749   3142316.53245  22973094.866    22973094.034    22973114.825
       211.000         151.000
   5730101.64149   4462437.04346  22245415.290    22245414.518    22245429.554
       224.000         175.000
 -20118106.14049 -15662495.78046  21234715.114    21234715.484    21234726.684
       230.000         180.000
 01 11 12 17 37 29.9940000  0  8G22G20G27G 1G 4G29G25G13
 -14976232.58149 -11644104.53047  19218137.425    19218136.695    19218147.578
       242.000         212.000
  -8939227.94149  -6947725.71247  18969653.821    18969653.141    18969662.306
       240.000         209.000
 -10372176.03549  -8061807.09246  22764643.936    22764643.925    22764660.163
       222.000         167.000
 -14987755.74349 -11662093.01047  19327132.563    19327132.206    19327142.277
       241.000         209.000
  -9792099.48849  -7612462.23845  22895016.198    22895016.202    22895030.645
       217.000         153.000
   4068573.51249   3167600.60945  22979269.924    22979269.021    22979289.795
       209.000         150.000
   5771489.93049   4494687.34246  22253291.558    22253290.726    22253305.766
       225.000         170.000
 -20232471.33049 -15751611.47546  21212952.131    21212952.480    21212963.682
       231.000         181.000
 01 11 12 17 37 59.9940000  0  8G22G20G27G 1G 4G29G25G13
 -15008555.00949 -11669290.88547  19211986.736    19211985.983    19211996.844
       242.000         212.000
  -8941942.94149  -6949841.36147  18969137.240    18969136.555    18969145.735
       239.000         209.000
 -10491522.39449  -8154804.13846  22741933.041    22741932.976    22741949.081
       221.000         165.000
 -15060196.70049 -11718540.52847  19313347.503    19313347.178    19313357.230
       241.000         209.000
  -9840252.33749  -7649984.06745  22885852.978    22885853.040    22885867.471
       217.000         151.000
   4101148.12949   3192983.14045  22985468.872    22985467.931    22985488.878
       207.000         148.000
   5812904.52949   4526958.12246  22261172.686    22261171.884    22261187.010
       221.000         168.000
 -20346766.26049 -15840672.43446  21191202.513    21191202.856    21191214.030
       230.000         181.000
 01 11 12 17 38 29.9940000  0  8G22G20G27G 1G 4G29G25G13
 -15040235.67849 -11693977.17247  19205958.110    19205957.380    19205968.245
       242.000         212.000
  -8944117.97949  -6951536.27347  18968723.342    18968722.697    18968731.891
       239.000         209.000
 -10610732.56649  -8247695.07446  22719248.031    22719247.996    22719264.004
       224.000         171.000
 -15132464.92849 -11774853.45547  19299595.320    19299594.991    19299605.072
       241.000         209.000
  -9887913.89249  -7687123.01345  22876783.356    22876783.436    22876797.874
       216.000         154.000
   4133829.21649   3218448.61445  22991688.153    22991687.209    22991708.158
       205.000         146.000
   5854324.28149   4559232.89446  22269054.894    22269054.057    22269069.277
       225.000         173.000
 -20461010.43249 -15929693.84146  21169462.591    21169462.918    21169474.036
       232.000         181.000
 01 11 12 17 38 59.9940000  0  8G22G20G27G 1G 4G29G25G13
 -15071262.13849 -11718153.68147  19200054.026    19200053.275    19200064.125
       242.000         212.000
  -8945740.95349  -6952801.00047  18968414.493    18968413.887    18968423.130
       239.000         208.000
 -10729793.33949  -8340469.57646  22696591.431    22696591.374    22696607.342
       221.000         170.000
 -15204546.51949 -11831020.94347  19285878.640    19285878.318    19285888.418
       240.000         209.000
  -9935071.76249  -7723869.48745  22867809.561    22867809.696    22867824.190
       219.000         157.000
   4166629.82649   3244007.22745  22997929.988    22997929.152    22997950.291
       201.000         142.000
   5895761.23649   4591521.09646  22276940.344    22276939.512    22276954.832
       224.000         174.000
 -20575189.91449 -16018664.84346  21147734.893    21147735.263    21147746.334
       231.000         181.000
 01 11 12 17 39 29.9940000  0  8G22G20G27G 1G 4G29G25G13
 -15101637.77249 -11741823.04647  19194273.749    19194273.001    19194283.864
       242.000         211.000
  -8946815.85549  -6953638.65347  18968209.974    18968209.387    18968218.663
       240.000         209.000
 -10848707.39649  -8433129.69846  22673962.564    22673962.648    22673978.718
       221.000         173.000
 -15276443.61449 -11887044.67247  19272197.091    19272196.771    19272206.877
       241.000         209.000
  -9981729.48949  -7760226.23845  22858930.991    22858931.148    22858945.656
       218.000         156.000
   4199546.66249   3269656.41545  23004194.033    23004193.346    23004214.571
       204.000         142.000
   5937211.21349   4623819.44646  22284828.345    22284827.433    22284842.825
       221.000         169.000
 -20689306.93949 -16107587.16946  21126019.220    21126019.531    21126030.559
       231.000         182.000
 01 11 12 17 39 59.9940000  0  8G22G20G27G 1G 4G29G25G13
 -15131373.35449 -11764993.66747  19188615.218    19188614.527    19188625.401
       241.000         211.000
  -8947354.09249  -6954058.12947  18968107.598    18968107.010    18968116.299
       240.000         208.000
 -10967484.59949  -8525683.21046  22651359.966    22651360.019    22651376.077
       222.000         173.000
 -15348165.48249 -11942931.86947  19258548.853    19258548.570    19258558.651
       240.000         209.000
 -10027897.83649  -7796201.66745  22850145.584    22850145.636    22850160.200
       217.000         155.000
   4232569.53749   3295388.22045  23010478.331    23010477.576    23010498.983
       204.000         142.000
   5978662.96149   4656119.13446  22292716.479    22292715.637    22292731.192
       219.000         168.000
 -20803371.09249 -16196468.30546  21104313.508    21104313.824    21104324.869
       232.000         183.000
 01 11 12 17 40 29.9940000  0  8G22G20G27G 1G 4G29G25G13
 -15160456.10049 -11787655.57447  19183080.999    19183080.279    19183091.202
       243.000         212.000
  -8947343.16749  -6954049.68147  18968109.748    18968109.151    18968118.420
       240.000         208.000
 -11086111.35649  -8618119.56246  22628786.147    22628786.066    22628801.916
       223.000         171.000
 -15419697.91749 -11998671.46147  19244936.725    19244936.410    19244946.465
       240.000         209.000
 -10073563.93649  -7831785.71345  22841455.733    22841455.755    22841470.270
       218.000         153.000
   4265711.58949   3321212.89745  23016785.279    23016784.510    23016806.036
       205.000         145.000
   6020128.34949   4688429.47446  22300607.355    22300606.464    22300622.168
       224.000         171.000
 -20917368.27449 -16285297.25446  21082620.580    21082620.866    21082631.895
       231.000         182.000
 01 11 12 17 40 59.9940000  0  8G22G20G27G 1G 4G29G25G13
 -15188893.60349 -11809814.68647  19177669.523    19177668.843    19177679.779
       243.000         212.000
  -8946791.60449  -6953619.95747  18968214.789    18968214.164    18968223.417
       241.000         208.000
 -11204594.70149  -8710444.10246  22606239.381    22606239.356    22606255.191
       223.000         173.000
 -15491047.21849 -12054268.34947  19231359.378    19231359.071    19231369.125
       240.000         208.000
 -10118735.66349  -7866984.55445  22832859.930    22832859.981    22832874.443
       216.000         153.000
   4298965.61349   3347124.79145  23023113.591    23023112.757    23023134.414
       207.000         146.000
   6061599.09049   4720743.99146  22308499.289    22308498.384    22308514.141
       223.000         168.000
 -21031305.04849 -16374079.14646  21060939.052    21060939.392    21060950.368
       232.000         182.000
 01 11 12 17 41 29.9940000  0  8G22G20G27G 1G 4G29G25G13
 -15216682.22049 -11831468.17647  19172381.561    19172380.857    19172391.825
       244.000         212.000
  -8945695.91449  -6952766.23647  18968423.342    18968422.718    18968431.964
       240.000         208.000
 -11322929.98649  -8802653.28646  22583720.840    22583720.805    22583736.616
       221.000         174.000
 -15562208.25549 -12109718.53847  19217817.915    19217817.587    19217827.621
       240.000         208.000
 -10163409.21849  -7901795.19045  22824358.836    22824358.917    22824373.428
       216.000         154.000
   4332335.90349   3373127.33045  23029463.965    23029463.149    23029484.858
       208.000         150.000
   6103078.23949   4753065.05046  22316392.677    22316391.851    22316407.698
       221.000         169.000
 -21145176.23549 -16462809.92646  21039270.067    21039270.412    21039281.343
       233.000         182.000
 01 11 12 17 41 59.9940000  0  8G22G20G27G 1G 4G29G25G13
 -15243818.72849 -11852613.52547  19167217.723    19167216.998    19167227.914
       243.000         212.000
  -8944053.44249  -6951486.45247  18968735.956    18968735.322    18968744.559
       241.000         208.000
 -11441113.03449  -8894743.81946  22561231.196    22561231.232    22561247.062
       223.000         176.000
 -15633176.27549 -12165018.32347  19204313.103    19204312.832    19204322.865
       240.000         208.000
 -10207581.38549  -7936215.13945  22815953.129    22815953.255    22815967.830
       216.000         155.000
   4365826.12649   3399223.28845  23035837.278    23035836.419    23035858.198
       207.000         153.000
   6144568.69449   4785394.88946  22324288.197    22324287.414    22324303.474
       217.000         171.000
 -21258977.54049 -16551486.23946  21017614.401    21017614.730    21017625.623
       232.000         181.000
 01 11 12 17 42 29.9940000  0  8G22G20G27G 1G 4G29G25G13
 -15270310.53749 -11873256.51047  19162176.523    19162175.801    19162186.707
       244.000         212.000
  -8941872.21349  -6949786.86047  18969151.092    18969150.460    18969159.699
       241.000         209.000
 -11559150.29549  -8986720.75246  22538769.352    22538769.384    22538785.304
       222.000         171.000
 -15703957.41149 -12220172.48047  19190843.924    19190843.642    19190853.681
       240.000         209.000
 -10251259.83249  -7970250.37445  22807641.365    22807641.537    22807656.131
       215.000         153.000
   4399429.38249   3425407.31445  23042232.039    23042231.166    23042253.017
       211.000         154.000
   6186062.73249   4817727.49246  22332184.545    22332183.741    22332199.921
       221.000         172.000
 -21372714.68749 -16640112.56646  20995970.926    20995971.235    20995982.124
       232.000         183.000
 01 11 12 17 42 59.9940000  0  8G22G20G27G 1G 4G29G25G13
 -15296156.27649 -11893396.05947  19157258.285    19157257.543    19157268.469
       244.000         212.000
  -8939151.22449  -6947666.67847  18969668.979    18969668.306    18969677.543
       241.000         209.000
 -11677039.49149  -9078582.38346  22516335.670    22516335.732    22516351.522
       220.000         168.000
 -15774548.71349 -12275178.71747  19177410.904    19177410.600    19177420.616
       242.000         208.000
 -10294442.95949  -8003899.64545  22799423.918    22799424.120    22799438.710
       215.000         152.000
   4433147.50449   3451680.85945  23048648.635    23048647.785    23048669.668
       205.000         151.000
   6227561.28649   4850063.64446  22340081.763    22340080.884    22340097.171
       220.000         167.000
 -21486385.29849 -16728687.04646  20974340.091    20974340.424    20974351.337
       233.000         183.000
 01 11 12 17 43 29.9940000  0  8G22G20G27G 1G 4G29G25G13
 -15321361.95549 -11913036.86447  19152461.783    19152461.054    19152472.060
       243.000         212.000
  -8935897.12249  -6945131.08547  18970288.280    18970287.609    18970296.811
       241.000         209.000
 -11794785.85149  -9170332.61746  22493929.062    22493929.236    22493945.072
       221.000         172.000
 -15844954.52849 -12330040.41947  19164013.152    19164012.827    19164022.838
       242.000         208.000
 -10337136.97549  -8037167.77745  22791299.586    22791299.769    22791314.377
       213.000         154.000
   4466975.04249   3478039.62845  23055086.035    23055085.165    23055107.085
       205.000         146.000
   6269058.02949   4882398.42745  22347978.576    22347977.724    22347994.033
       220.000         162.000
 -21599993.83849 -16817213.17246  20952721.066    20952721.417    20952732.303
       232.000         183.000
 01 11 12 17 43 59.9940000  0  8G22G20G27G 1G 4G29G25G13
 -15345922.74049 -11932175.15547  19147788.029    19147787.315    19147798.335
       244.000         211.000
  -8932105.38849  -6942176.55747  18971009.861    18971009.195    18971018.422
       241.000         209.000
 -11912383.23049  -9261966.80846  22471551.010    22471551.138    22471566.878
       223.000         171.000
 -15915168.27649 -12384752.45147  19150651.865    19150651.591    19150661.577
       241.000         208.000
 -10379336.69949  -8070050.76745  22783269.207    22783269.446    22783284.153
       214.000         156.000
   4500917.54949   3504488.00345  23061545.225    23061544.444    23061566.424
       203.000         143.000
   6310557.64049   4914735.45346  22355875.943    22355875.081    22355891.422
       218.000         163.000
 -21713533.56049 -16905685.65646  20931115.149    20931115.507    20931126.380
       233.000         184.000
 01 11 12 17 44 29.9940000  0  8G22G20G27G 1G 4G29G25G13
 -15369828.55149 -11950803.08947  19143238.961    19143238.227    19143249.200
       244.000         211.000
  -8927766.51149  -6938795.68547  18971835.569    18971834.904    18971844.153
       242.000         209.000
 -12029820.83749  -9353476.46346  22449203.159    22449203.348    22449219.092
       220.000         166.000
 -15985178.30249 -12439305.74247  19137329.379    19137329.130    19137339.123
       242.000         208.000
 -10421032.30949  -8102540.93245  22775334.865    22775335.054    22775349.816
       214.000         154.000
   4534985.82549   3531034.36245  23068028.423    23068027.650    23068049.599
       203.000         140.000
   6352069.74449   4947082.13146  22363775.575    22363774.767    22363791.328
       215.000         168.000
 -21826993.03249 -16994095.60946  20909524.590    20909524.898    20909535.739
       233.000         185.000
 01 11 12 17 44 59.9940000  0  8G22G20G27G 1G 4G29G25G13
 -15393097.82549 -11968935.02547  19138811.024    19138810.270    19138821.204
       244.000         211.000
  -8922899.28249  -6935003.10747  18972761.798    18972761.150    18972770.426
       242.000         209.000
 -12147115.96149  -9444875.14646  22426882.577    22426882.711    22426898.358
       220.000         168.000
 -16055001.40749 -12493713.37247  19124042.524    19124042.267    19124052.251
       241.000         208.000
 -10462242.11249  -8134652.55845  22767492.953    22767493.156    22767507.982
       213.000         155.000
   4569161.97249   3557664.77745  23074532.182    23074531.392    23074553.456
       204.000         138.000
   6393575.40749   4979423.77046  22371674.113    22371673.346    22371690.012
       223.000         176.000
 -21940389.49749 -17082456.45446  20887945.943    20887946.232    20887957.082
       234.000         184.000
 01 11 12 17 45 29.9940000  0  8G22G20G27G 1G 4G29G25G13
 -15415733.78049 -11986573.48047  19134503.536    19134502.796    19134513.730
       243.000         211.000
  -8917507.47249  -6930801.76947  18973787.829    18973787.225    18973796.534
       241.000         209.000
 -12264270.76749  -9536164.47546  22404588.723    22404588.811    22404604.447
       224.000         174.000
 -16124638.97149 -12547976.42247  19110790.956    19110790.700    19110800.695
       242.000         208.000
 -10502969.47249  -8166388.23945  22759742.871    22759743.077    22759757.921
       213.000         153.000
   4603443.18349   3584377.09845  23081055.966    23081055.218    23081077.144
       206.000         137.000
   6435070.91149   5011757.53146  22379570.885    22379570.005    22379586.773
       223.000         174.000
 -22053724.37249 -17170769.30146  20866378.999    20866379.314    20866390.150
       234.000         185.000
 01 11 12 17 45 59.9940000  0  8G22G20G27G 1G 4G29G25G13
 -15437729.93849 -12003713.39347  19130317.788    19130317.094    19130328.036
       243.000         211.000
  -8911585.03549  -6926186.95547  18974914.881    18974914.263    18974923.606
       241.000         209.000
 -12381277.75749  -9627338.59446  22382322.971    22382323.015    22382338.706
       221.000         174.000
 -16194082.59649 -12602088.34647  19097576.324    19097576.038    19097586.062
       242.000         208.000
 -10543207.69949  -8197742.77145  22752085.941    22752086.090    22752100.944
       214.000         154.000
   4637837.06449   3611177.18945  23087601.205    23087600.505    23087622.443
       205.000         137.000
   6476563.03549   5044088.69345  22387466.961    22387466.028    22387482.795
       219.000         162.000
 -22166989.18249 -17259027.55846  20844825.436    20844825.737    20844836.569
       235.000         186.000
 01 11 12 17 46 29.9940000  0  8G22G20G27G 1G 4G29G25G13
 -15459087.81349 -12020355.95047  19126253.515    19126252.840    19126263.804
       243.000         211.000
  -8905133.84349  -6921160.12147  18976142.546    18976141.937    18976151.292
       241.000         209.000
 -12498137.45149  -9718397.93046  22360085.167    22360085.242    22360100.989
       222.000         174.000
 -16263332.20749 -12656049.09247  19084398.622    19084398.298    19084408.319
       242.000         208.000
 -10582958.35149  -8228717.39145  22744521.751    22744521.859    22744536.708
       213.000         151.000
   4672342.46349   3638064.20445  23094167.631    23094166.867    23094188.882
       202.000         139.000
   6518050.01249   5076415.81045  22395361.789    22395360.946    22395377.753
       210.000         157.000
 -22280184.24849 -17347231.46946  20823285.107    20823285.412    20823296.216
       234.000         187.000
 01 11 12 17 46 59.9940000  0  8G22G20G27G 1G 4G29G25G13
 -15479807.24749 -12036501.02847  19122310.812    19122310.105    19122321.058
       244.000         210.000
  -8898154.25949  -6915721.55747  18977470.763    18977470.156    18977479.545
       242.000         209.000
 -12614848.48949  -9809341.48646  22337875.793    22337875.798    22337891.442
       224.000         175.000
 -16332385.88349 -12709857.16147  19071258.129    19071257.819    19071267.821
       242.000         208.000
 -10622221.21449  -8259311.93945  22737050.382    22737050.441    22737065.315
       212.000         153.000
   4706960.47849   3665038.93345  23100755.485    23100754.711    23100776.757
       207.000         143.000
   6559532.12449   5108739.10946  22403255.850    22403254.958    22403271.947
       219.000         169.000
 -22393307.58649 -17435379.48846  20801758.425    20801758.744    20801769.549
       235.000         186.000
 01 11 12 17 47 29.9940000  0  8G22G20G27G 1G 4G29G25G13
 -15499880.83849 -12052142.85647  19118490.978    19118490.261    19118501.188
       243.000         210.000
  -8890639.24449  -6909865.77347  18978900.904    18978900.260    18978909.699
       242.000         209.000
 -12731402.25649  -9900162.44746  22315696.218    22315696.262    22315711.943
       221.000         171.000
 -16401234.27649 -12763505.27047  19058156.740    19058156.430    19058166.378
       242.000         208.000
 -10660988.60849  -8289520.38345  22729673.190    22729673.281    22729688.264
       212.000         152.000
   4741699.26849   3692107.81945  23107366.271    23107365.542    23107387.602
       204.000         141.000
   6601016.25749   5141064.00446  22411150.533    22411149.493    22411166.553
       226.000         177.000
 -22506349.83349 -17523464.32246  20780247.185    20780247.503    20780258.286
       234.000         185.000
 01 11 12 17 47 59.9940000  0  8G22G20G27G 1G 4G29G25G13
 -15519309.01549 -12067281.77147  19114793.990    19114793.248    19114804.146
       243.000         210.000
  -8882589.72349  -6903593.48747  18980432.764    18980432.097    18980441.566
       242.000         209.000
 -12847798.34649  -9990860.58746  22293546.726    22293546.693    22293562.347
       222.000         171.000
 -16469876.01149 -12816992.34947  19045094.714    19045094.360    19045104.272
       242.000         208.000
 -10699261.36149  -8319343.40445  22722390.099    22722390.197    22722405.243
       211.000         151.000
   4776559.16549   3719271.03945  23114000.122    23113999.417    23114021.552
       202.000         140.000
   6642502.17649   5173390.30046  22419045.520    22419044.379    22419061.508
       223.000         172.000
 -22619309.88349 -17611485.09946  20758751.624    20758751.914    20758762.697
       234.000         186.000
 01 11 12 17 48 29.9940000  0  8G22G20G27G 1G 4G29G25G13
 -15538100.14349 -12081924.28147  19111218.194    19111217.446    19111228.375
       243.000         211.000
  -8874014.58849  -6896911.63247  18982064.612    18982063.940    18982073.439
       242.000         209.000
 -12964043.74649 -10081441.29746  22271425.882    22271425.848    22271441.481
       223.000         173.000
 -16538317.45549 -12870323.35147  19032070.741    19032070.397    19032080.313
       242.000         208.000
 -10737047.51749  -8348787.24845  22715199.596    22715199.777    22715214.875
       211.000         149.000
   4811532.64649   3746522.77645  23120655.591    23120654.910    23120677.138
       199.000         138.000
   6683981.49849   5205711.42745  22426939.002    22426937.910    22426955.159
       215.000         157.000
 -22732194.38449 -17699446.99746  20737270.334    20737270.659    20737281.432
       235.000         186.000
 01 11 12 17 48 59.9940000  0  8G22G20G27G 1G 4G29G25G13
 -15556253.55049 -12096069.85947  19107763.790    19107763.005    19107773.941
       243.000         211.000
  -8864913.57549  -6889820.00647  18983796.481    18983795.839    18983805.391
       241.000         209.000
 -13080136.75049 -10171903.26146  22249333.955    22249333.995    22249349.610
       220.000         170.000
 -16606555.96149 -12923496.22247  19019085.373    19019085.055    19019095.001
       242.000         208.000
 -10774346.30449  -8377851.32845  22708101.842    22708102.070    22708117.176
       212.000         152.000
   4846621.31649   3773864.26245  23127332.986    23127332.242    23127354.701
       198.000         138.000
   6725454.93349   5238027.97245  22434831.334    22434830.321    22434847.615
       222.000         156.000
 -22845000.63349 -17787347.92646  20715804.004    20715804.314    20715815.083
       234.000         186.000
 01 11 12 17 49 29.9940000  0  8G22G20G27G 1G 4G29G25G13
 -15573765.84649 -12109715.87447  19104431.357    19104430.576    19104441.519
       243.000         211.000
  -8855283.48649  -6882316.11347  18985629.040    18985628.430    18985638.015
       241.000         209.000
 -13196072.52849 -10262242.73846  22227271.989    22227272.031    22227287.603
       226.000         176.000
 -16674586.03849 -12976506.68347  19006139.706    19006139.373    19006149.337
       242.000         208.000
 -10811154.38049  -8406533.02445  22701097.521    22701097.756    22701112.937
       210.000         150.000
   4881829.17449   3801298.64245  23134033.014    23134032.336    23134054.797
       200.000         139.000
   6766925.71049   5270342.53246  22442723.417    22442722.298    22442739.521
       225.000         168.000
 -22957723.38149 -17875183.78046  20694353.474    20694353.846    20694364.621
       233.000         186.000
 01 11 12 17 49 59.9940000  0  8G22G20G27G 1G 4G29G25G13
 -15590650.37649 -12122872.71947  19101218.389    19101217.600    19101228.539
       243.000         210.000
  -8845138.18049  -6874410.75247  18987559.638    18987559.059    18987568.696
       241.000         209.000
 -13311863.24249 -10352469.15546  22205237.687    22205237.729    22205253.297
       225.000         176.000
 -16742419.17549 -13029363.68647  18993231.503    18993231.159    18993241.132
       242.000         208.000
 -10847484.85249  -8434842.58345  22694184.220    22694184.412    22694199.603
       211.000         150.000
   4917144.05049   3828816.42445  23140753.473    23140752.745    23140775.312
       203.000         137.000
   6808380.93849   5302644.90646  22450612.519    22450611.333    22450628.666
       222.000         175.000
 -23070374.12349 -17962963.54446  20672916.751    20672917.091    20672927.873
       235.000         186.000
 01 11 12 17 50 29.9940000  0  8G22G20G27G 1G 4G29G25G13
 -15606911.55949 -12135543.83047  19098124.059    19098123.248    19098134.169
       243.000         210.000
  -8834482.41149  -6866107.62747  18989587.417    18989586.824    18989596.492
       241.000         208.000
 -13427512.11349 -10442585.05846  22183230.234    22183230.342    22183245.944
       225.000         174.000
 -16810057.83349 -13082069.14447  18980360.288    18980359.978    18980369.903
       242.000         208.000
 -10883342.18749  -8462783.45945  22687360.897    22687361.083    22687376.320
       211.000         150.000
   4952562.11949   3856414.64645  23147493.605    23147492.874    23147515.433
       203.000         139.000
   6849816.01249   5334931.54646  22458497.730    22458496.492    22458514.005
       218.000         170.000
 -23182955.37849 -18050689.14446  20651493.174    20651493.562    20651504.341
       235.000         185.000
 01 11 12 17 50 59.9940000  0  8G22G20G27G 1G 4G29G25G13
 -15622529.19349 -12147713.47647  19095152.166    19095151.358    19095162.269
       243.000         210.000
  -8823296.43749  -6857391.35847  18991716.083    18991715.482    18991725.194
       241.000         208.000
 -13542997.49349 -10532573.57946  22161254.072    22161254.126    22161269.665
       226.000         176.000
 -16877479.66449 -13134605.64047  18967530.310    18967530.021    18967539.925
       242.000         208.000
 -10918706.10049  -8490339.86845  22680631.463    22680631.618    22680646.940
       210.000         150.000
   4988104.61549   3884109.81145  23154257.369    23154256.631    23154279.294
       205.000         138.000
   6891251.37049   5367218.36246  22466382.835    22466381.629    22466399.379
       216.000         168.000
 -23295444.73049 -18138343.15546  20630087.183    20630087.533    20630098.250
       235.000         186.000
 01 11 12 17 51 29.9940000  0  8G22G20G27G 1G 4G29G25G13
 -15637517.12749 -12159392.44547  19092300.109    19092299.297    19092310.213
       243.000         210.000
  -8811594.44449  -6848272.99547  18993942.978    18993942.340    18993952.083
       241.000         208.000
 -13658332.08549 -10622444.59846  22139306.540    22139306.611    22139322.080
       225.000         174.000
 -16944696.32649 -13186982.26147  18954739.418    18954739.117    18954748.991
       242.000         207.000
 -10953590.19749  -8517522.38945  22673993.352    22673993.459    22674008.835
       209.000         150.000
   5023758.65249   3911891.92945  23161042.337    23161041.620    23161064.337
       204.000         134.000
   6932673.30549   5399494.76546  22474265.461    22474264.301    22474282.128
       221.000         166.000
 -23407853.99749 -18225934.73346  20608696.358    20608696.705    20608707.444
       234.000         186.000
 01 11 12 17 51 59.9940000  0  8G22G20G27G 1G 4G29G25G13
 -15651870.48149 -12170576.93047  19089568.769    19089567.990    19089578.935
       243.000         210.000
  -8799371.91849  -6838749.02847  18996268.919    18996268.275    18996278.032
       242.000         208.000
 -13773509.49349 -10712193.12446  22117388.908    22117388.978    22117404.420
       225.000         177.000
 -17011700.73249 -13239193.48547  18941988.935    18941988.623    18941998.469
       242.000         208.000
 -10987989.61049  -8544327.20045  22667447.459    22667447.540    22667462.905
       208.000         150.000
   5059530.13949   3939765.60945  23167849.628    23167848.856    23167871.728
       201.000         136.000
   6974087.01149   5431764.84846  22482146.680    22482145.458    22482163.232
       225.000         164.000
 -23520176.51349 -18313458.72746  20587322.081    20587322.426    20587333.135
       236.000         186.000
 01 11 12 17 52 29.9940000  0  8G22G20G27G 1G 4G29G25G13
 -15665602.88349 -12181277.55647  19086955.633    19086954.847    19086965.824
       243.000         211.000
  -8786642.72449  -6828830.25847  18998691.264    18998690.602    18998700.401
       242.000         208.000
 -13888542.07349 -10801828.82246  22095498.866    22095498.930    22095514.322
       224.000         176.000
 -17078504.47249 -13291248.34947  18929276.579    18929276.290    18929286.172
       242.000         208.000
 -11021917.89549  -8570764.92445  22660991.166    22660991.236    22661006.610
       213.000         150.000
   5095406.40249   3967720.89345  23174676.778    23174676.001    23174699.138
       204.000         137.000
   7015479.05149   5464018.05346  22490023.739    22490022.447    22490040.199
       221.000         163.000
 -23632423.65049 -18400923.98246  20565962.059    20565962.449    20565973.148
       234.000         186.000
 01 11 12 17 52 59.9940000  0  8G22G20G27G 1G 4G29G25G13
 -15678704.49249 -12191486.64647  19084462.459    19084461.745    19084472.754
       243.000         211.000
  -8773397.48449  -6818509.37247  19001211.768    19001211.121    19001220.975
       241.000         208.000
 -14003418.67749 -10891342.97946  22073638.569    22073638.588    22073653.951
       226.000         178.000
 -17145095.37949 -13343137.36447  18916604.740    18916604.467    18916614.378
       241.000         208.000
 -11055364.91949  -8596827.64545  22654626.575    22654626.622    22654641.940
       211.000         152.000
   5131398.34749   3995766.31545  23181526.091    23181525.242    23181548.433
       205.000         138.000
   7056859.93649   5496262.49146  22497898.450    22497897.301    22497915.112
       214.000         163.000
 -23744583.56449 -18488321.27647  20544618.695    20544619.085    20544629.768
       235.000         188.000
 01 11 12 17 53 29.9940000  0  8G22G20G27G 1G 4G29G25G13
 -15691174.60349 -12201203.66747  19082089.505    19082088.794    19082099.851
       243.000         210.000
  -8759635.89249  -6807786.13747  19003830.565    19003829.918    19003839.809
       241.000         208.000
 -14118137.26049 -10980734.01946  22051808.341    22051808.322    22051823.636
       225.000         175.000
 -17211470.59949 -13394858.31947  18903973.941    18903973.678    18903983.622
       241.000         208.000
 -11088329.79449  -8622514.67645  22648353.752    22648353.778    22648369.070
       214.000         153.000
   5167507.50449   4023903.12445  23188397.577    23188396.746    23188420.117
       202.000         135.000
   7098230.40249   5528498.76146  22505771.130    22505770.043    22505788.091
       212.000         166.000
 -23856653.19749 -18575648.22146  20523292.483    20523292.899    20523303.618
       236.000         187.000
 01 11 12 17 53 59.9940000  0  7G22G20G27G 1G 4G25G13
 -15703026.82149 -12210439.21147  19079834.166    19079833.433    19079844.502
       243.000         210.000
  -8745371.69249  -6796671.26147  19006544.978    19006544.348    19006554.293
       241.000         208.000
 -14232710.02549 -11070011.42746  22030005.737    22030005.765    22030021.029
       223.000         173.000
 -17277641.37849 -13446419.97447  18891382.087    18891381.814    18891391.739
       242.000         208.000
 -11120826.02549  -8647836.52245  22642170.021    22642170.025    22642185.247
       212.000         151.000
   7139577.31149   5560716.68746  22513639.485    22513638.417    22513656.504
       221.000         168.000
 -23968643.93049 -18662913.69246  20501981.327    20501981.718    20501992.474
       235.000         187.000
 01 11 12 17 54 29.9940000  0  7G22G20G27G 1G 4G25G13
 -15714247.26749 -12219182.46747  19077699.047    19077698.307    19077709.367
       243.000         210.000
  -8730591.52449  -6785154.32747  19009357.548    19009356.966    19009366.929
       241.000         208.000
 -14347121.65649 -11159163.27446  22008233.860    22008233.883    22008249.098
       226.000         177.000
 -17343591.68949 -13497809.84047  18878832.134    18878831.883    18878841.802
       240.000         207.000
 -11152839.72549  -8672782.34245  22636078.103    22636078.084    22636093.407
       214.000         153.000
   7180915.01149   5592927.47646  22521506.167    22521505.041    22521523.179
       221.000         166.000
 -24080539.69849 -18750105.16246  20480688.254    20480688.620    20480699.410
       235.000         187.000
 01 11 12 17 54 59.9940000  0  7G22G20G27G 1G 4G25G13
 -15724846.34749 -12227441.54347  19075682.155    19075681.405    19075692.478
       243.000         210.000
  -8715306.14249  -6773243.72047  19012266.278    19012265.728    19012275.715
       242.000         208.000
 -14461380.98949 -11248196.46546  21986490.936    21986490.989    21986506.103
       226.000         178.000
 -17409329.64549 -13549034.24047  18866322.666    18866322.373    18866332.283
       240.000         208.000
 -11184381.04749  -8697360.10845  22630076.087    22630076.034    22630091.403
       213.000         152.000
   7222233.47049   5625123.28946  22529369.158    22529368.019    22529386.218
       219.000         164.000
 -24192348.67849 -18837228.99247  20459411.611    20459412.018    20459422.844
       236.000         188.000
 01 11 12 17 55 29.9930000  0  7G22G20G27G 1G 4G25G13
 -15734817.35949 -12235211.22147  19073784.754    19073784.013    19073795.110
       242.000         210.000
  -8699509.99349  -6760935.11347  19015272.226    19015271.684    19015281.673
       241.000         207.000
 -14575476.37149 -11337101.87846  21964779.259    21964779.310    21964794.445
       225.000         179.000
 -17474844.21949 -13600084.57047  18853855.650    18853855.378    18853865.243
       240.000         207.000
 -11215442.54849  -8721563.98545  22624165.344    22624165.280    22624180.655
       213.000         153.000
   7263537.98349   5657308.21046  22537229.513    22537228.320    22537246.623
       217.000         164.000
 -24304058.38549 -18924275.46747  20438153.897    20438154.333    20438165.141
       235.000         188.000
 01 11 12 17 55 59.9930000  0  7G22G20G27G 1G 4G25G13
 -15744159.51149 -12242490.88247  19072007.050    19072006.289    19072017.412
       242.000         210.000
  -8683200.85249  -6748226.77247  19018375.842    19018375.269    19018385.249
       241.000         207.000
 -14689412.47749 -11425883.21446  21943097.961    21943097.962    21943113.008
       227.000         179.000
 -17540135.75949 -13650961.10947  18841431.081    18841430.810    18841440.687
       240.000         208.000
 -11246024.56249  -8745394.22545  22618345.897    22618345.823    22618361.154
       214.000         153.000
   7304833.63649   5689486.23046  22545088.157    22545086.967    22545105.338
       220.000         167.000
 -24415672.47349 -19011247.43247  20416914.349    20416914.821    20416925.666
       236.000         188.000
 01 11 12 17 56 29.9930000  0  7G22G20G27G 1G 4G25G13
 -15752883.52249 -12249288.87947  19070347.018    19070346.217    19070357.338
       243.000         210.000
  -8666390.43849  -6735127.83847  19021574.830    19021574.241    19021584.221
       241.000         207.000
 -14803195.19449 -11514545.01646  21921445.828    21921445.790    21921460.778
       227.000         178.000
 -17605210.78749 -13701668.94247  18829047.721    18829047.458    18829057.340
       240.000         208.000
 -11276136.81249  -8768858.41345  22612615.747    22612615.695    22612631.092
       213.000         152.000
   7346108.40949   5721647.96746  22552942.718    22552941.605    22552960.091
       219.000         167.000
 -24527195.71149 -19098148.61547  20395692.144    20395692.625    20395703.465
       236.000         189.000
 01 11 12 17 56 59.9930000  0  7G22G20G27G 1G 4G25G13
 -15760987.48849 -12255603.72447  19068804.951    19068804.133    19068815.262
       242.000         210.000
  -8649077.39749  -6721637.24247  19024869.494    19024868.863    19024878.825
       242.000         206.000
 -14916821.03149 -11603084.56046  21899823.514    21899823.454    21899838.422
       227.000         179.000
 -17670064.97749 -13752204.69447  18816706.445    18816706.139    18816716.015
       240.000         208.000
 -11305777.60149  -8791955.24245  22606975.467    22606975.361    22606990.745
       212.000         154.000
   7387364.58749   5753795.22346  22560793.733    22560792.689    22560811.297
       219.000         163.000
 -24638624.27449 -19184976.02247  20374487.973    20374488.441    20374499.272
       236.000         190.000
 01 11 12 17 57 29.9930000  0  7G22G20G27G 1G 4G25G13
 -15768473.79249 -12261437.28047  19067380.346    19067379.574    19067390.724
       242.000         210.000
  -8631264.31449  -6707757.00447  19028259.323    19028258.653    19028268.595
       242.000         206.000
 -15030290.61249 -11691502.35646  21878230.924    21878230.843    21878245.772
       226.000         178.000
 -17734698.12249 -13802568.20147  18804407.199    18804406.882    18804416.766
       240.000         208.000
 -11334948.84049  -8814686.18845  22601424.399    22601424.304    22601439.765
       214.000         151.000
   7428600.62449   5785926.79845  22568641.031    22568639.966    22568658.647
       214.000         154.000
 -24749957.71149 -19271729.29947  20353301.909    20353302.380    20353313.156
       236.000         190.000
 01 11 12 17 57 59.9930000  0  7G22G20G27G 1G 4G25G13
 -15775345.16449 -12266791.66947  19066072.786    19066072.023    19066083.214
       242.000         210.000
  -8612954.08749  -6693489.37847  19031743.754    19031743.055    19031752.968
       242.000         206.000
 -15143605.14449 -11779799.34146  21856667.784    21856667.757    21856682.586
       225.000         176.000
 -17799110.64149 -13852759.79347  18792149.897    18792149.604    18792159.500
       239.000         208.000
 -11363653.10949  -8837053.25545  22595962.270    22595962.199    22595977.562
       216.000         151.000
   7469814.50849   5818041.10145  22576484.090    22576482.976    22576501.735
       213.000         152.000
 -24861196.38549 -19358408.72847  20332133.846    20332134.304    20332145.077
       236.000         190.000
 01 11 12 17 58 29.9930000  0  8G22G20G27G 1G 4G25G 3G13
 -15781596.90749 -12271663.22747  19064883.183    19064882.404    19064893.614
       242.000         210.000
  -8594142.46249  -6678831.05947  19035323.590    19035322.856    19035332.774
       241.000         206.000
 -15256758.27649 -11867970.58246  21835135.402    21835135.365    21835150.127
       226.000         177.000
 -17863295.25349 -13902773.79247  18779936.018    18779935.704    18779945.581
       240.000         208.000
 -11391885.64949  -8859052.73945  22590589.928    22590589.831    22590605.117
       215.000         152.000
   7511011.30549   5850142.05946  22584323.843    22584322.760    22584341.705
       217.000         164.000
    -59178.30253                  23153417.753
       208.000          74.000
 -24972333.12149 -19445008.72347  20310985.211    20310985.649    20310996.390
       236.000         190.000
 01 11 12 17 58 59.9930000  0  8G22G20G27G 1G 4G25G 3G13
 -15787241.43549 -12276061.64147  19063809.147    19063808.351    19063819.551
       242.000         210.000
  -8574841.85849  -6663791.71247  19038996.410    19038995.700    19039005.615
       242.000         205.000
 -15369760.72149 -11956024.35946  21813631.673    21813631.648    21813646.430
       224.000         179.000
 -17927261.74449 -13952617.82747  18767763.637    18767763.311    18767773.172
       240.000         208.000
 -11419658.54649  -8880694.07545  22585305.085    22585304.895    22585320.235
       217.000         151.000
   7552179.97249   5882221.12146  22592158.387    22592157.255    22592176.300
       220.000         173.000
   -148736.11444                  23131546.628
       206.000         120.000
 -25083377.88349 -19531537.06647  20289854.074    20289854.518    20289865.215
       236.000         191.000
 01 11 12 17 59 29.9930000  0  8G22G20G27G 1G 4G25G 3G13
 -15792278.71249 -12279986.87247  19062850.665    19062849.853    19062861.046
       242.000         209.000
  -8555052.72749  -6648371.70047  19042762.191    19042761.518    19042771.422
       242.000         206.000
 -15482611.08849 -12043959.64846  21792156.932    21792156.873    21792171.693
       226.000         180.000
 -17991007.52049 -14002289.87447  18755633.254    18755632.913    18755642.765
       240.000         208.000
 -11446971.63449  -8901977.09845  22580107.632    22580107.525    22580122.785
       214.000         150.000
   7593320.43949   5914278.19646  22599987.639    22599986.420    22600005.534
       223.000         173.000
   -331362.48949   -238293.14045  23109675.684    23109674.706    23109699.149
       209.000         142.000
 -25194328.17249 -19617991.79847  20268740.898    20268741.328    20268752.021
       236.000         190.000
 01 11 12 17 59 59.9930000  0  8G22G20G27G 1G 4G25G 3G13
 -15796701.41849 -12283433.21747  19062009.094    19062008.295    19062019.479
       241.000         209.000
  -8534767.98949  -6632565.49947  19046622.327    19046621.660    19046631.538
       242.000         206.000
 -15595300.25149 -12131769.32146  21770712.817    21770712.768    21770727.602
       227.000         179.000
 -18054522.66549 -14051782.21147  18743546.754    18743546.401    18743556.250
       239.000         208.000
 -11473817.46449  -8922896.02345  22574999.042    22574998.980    22575014.325
       216.000         150.000
   7634441.40849   5946320.07446  22607813.125    22607811.821    22607831.098
       215.000         169.000
   -446282.21949   -327840.68345  23087807.082    23087804.574    23087830.022
       200.000         138.000
 -25305173.72849 -19704364.91147  20247647.673    20247648.100    20247658.773
       235.000         191.000
 01 11 12 18  0 29.9930000  0  8G22G20G27G 1G 4G25G 3G13
 -15800517.93349 -12286407.20747  19061282.928    19061282.092    19061293.270
       242.000         209.000
  -8513996.16049  -6616379.74947  19050575.156    19050574.478    19050584.389
       242.000         206.000
 -15707835.03449 -12219458.69046  21749298.139    21749298.044    21749312.935
       226.000         180.000
 -18117812.94949 -14101099.33547  18731503.029    18731502.677    18731512.525
       240.000         208.000
 -11500203.99249  -8943457.07045  22569977.978    22569977.941    22569993.276
       214.000         150.000
   7675535.15649   5978340.70145  22615633.322    22615631.997    22615651.411
       214.000         160.000
   -561193.08459   -417381.34655  23065940.026    23065939.539    23065962.180
       205.000         142.000
 -25415920.40949 -19790660.99047  20226573.248    20226573.689    20226584.319
       237.000         191.000
 01 11 12 18  0 59.9930000  0  8G22G20G27G 1G 4G25G 3G13
 -15803732.62449 -12288912.23647  19060671.259    19060670.427    19060681.599
       242.000         209.000
  -8492741.89449  -6599818.06847  19054619.766    19054619.093    19054629.032
       242.000         206.000
 -15820218.05649 -12307029.79746  21727912.270    21727912.240    21727927.125
       227.000         178.000
 -18180880.02649 -14150242.52447  18719501.758    18719501.429    18719511.288
       240.000         209.000
 -11526135.58449  -8963663.61545  22565043.321    22565043.316    22565058.693
       216.000         150.000
   7716598.17449   6010337.39545  22623447.538    22623446.329    22623465.783
       210.000         155.000
   -676095.11649   -506915.10845  23044074.803    23044074.227    23044096.865
       206.000         138.000
 -25526569.99449 -19876881.39547  20205517.345    20205517.742    20205528.379
       236.000         192.000
 01 11 12 18  1 29.9930000  0  8G22G20G27G 1G 4G25G 3G13
 -15806344.27249 -12290947.36647  19060174.327    19060173.517    19060184.699
       242.000         209.000
  -8471004.35649  -6582879.82047  19058756.348    19058755.682    19058765.664
       242.000         207.000
 -15932446.42449 -12394480.43346  21706555.935    21706555.863    21706570.627
       227.000         179.000
 -18243720.02249 -14199208.76747  18707543.734    18707543.402    18707553.281
       240.000         209.000
 -11551610.76749  -8983514.54245  22560195.648    22560195.614    22560211.053
       217.000         149.000
   7757632.50649   6042311.78045  22631256.534    22631255.192    22631274.737
       218.000         155.000
   -790982.78449   -596437.69845  23022212.191    23022211.562    23022234.551
       205.000         135.000
 -25637118.45349 -19963023.00447  20184480.655    20184481.040    20184491.693
       236.000         192.000
 01 11 12 18  1 59.9930000  0  8G22G20G27G 1G 4G25G 3G13
 -15808348.62649 -12292509.27947  19059792.929    19059792.135    19059803.358
       242.000         209.000
  -8448779.53749  -6565561.87147  19062985.676    19062984.998    19062995.023
       242.000         207.000
 -16044514.23049 -12481805.92046  21685230.131    21685230.030    21685244.813
       228.000         181.000
 -18306326.01849 -14247992.67147  18695630.195    18695629.885    18695639.810
       240.000         209.000
 -11576624.99649  -9003006.24745  22555435.642    22555435.628    22555451.056
       217.000         148.000
   7798643.31549   6074267.83845  22639061.054    22639059.633    22639079.175
       210.000         157.000
   -905847.33349   -685942.28745  23000353.879    23000353.657    23000376.419
       204.000         134.000
 -25747558.85549 -20049080.40547  20163464.559    20163464.904    20163475.561
       236.000         191.000
 01 11 12 18  2 29.9930000  0  8G22G20G27G 1G 4G25G 3G13
 -15809748.82349 -12293600.42047  19059526.533    19059525.730    19059536.972
       242.000         208.000
  -8426070.47049  -6547866.58947  19067307.160    19067306.458    19067316.546
       242.000         207.000
 -16156422.70249 -12569007.25346  21663934.607    21663934.516    21663949.255
       228.000         181.000
 -18368698.11349 -14296594.31847  18683761.216    18683760.875    18683770.844
       239.000         209.000
 -11601181.12449  -9022140.98545  22550762.838    22550762.877    22550778.290
       218.000         149.000
   7839628.63049   6106204.01645  22646860.490    22646859.207    22646878.855
       214.000         156.000
  -1020687.17049   -775427.66145  22978500.333    22978500.043    22978523.033
       207.000         136.000
 -25857891.36449 -20135053.73647  20142468.921    20142469.296    20142479.938
       236.000         191.000
 01 11 12 18  2 59.9930000  0  8G22G20G27G 1G 4G25G 3G13
 -15810550.72149 -12294225.35847  19059374.051    19059373.198    19059384.416
       243.000         208.000
  -8402883.61049  -6529799.01147  19071719.529    19071718.833    19071728.976
       242.000         207.000
 -16268175.99649 -12656087.67346  21642668.651    21642668.539    21642683.257
       226.000         180.000
 -18430839.59849 -14345016.27047  18671936.077    18671935.763    18671945.753
       240.000         209.000
 -11625285.06649  -9040923.37245  22546176.157    22546176.114    22546191.728
       219.000         149.000
   7880583.12749   6138116.13945  22654654.248    22654652.902    22654672.721
       214.000         152.000
  -1135503.87249   -864895.05245  22956651.258    22956651.045    22956673.926
       213.000         136.000
 -25968119.41249 -20220945.67647  20121493.164    20121493.535    20121504.191
       237.000         191.000
 01 11 12 18  3 29.9930000  0  8G22G20G27G 1G 4G25G 3G13
 -15810756.01149 -12294385.40047  19059335.102    19059334.211    19059345.401
       242.000         208.000
  -8379220.71849  -6511360.49747  19076222.505    19076221.797    19076231.997
       242.000         207.000
 -16379773.80849 -12743046.91046  21621432.241    21621432.144    21621446.869
       228.000         183.000
 -18492749.14449 -14393257.48647  18660155.088    18660154.787    18660164.788
       240.000         209.000
 -11648938.01849  -9059354.35545  22541675.299    22541675.206    22541690.636
       218.000         148.000
   7921506.61749   6170004.11745  22662442.022    22662440.789    22662460.689
       209.000         150.000
  -1250294.41649   -954342.03345  22934807.198    22934806.964    22934829.953
       206.000         140.000
 -26078241.51249 -20306755.05347  20100537.506    20100537.953    20100548.544
       236.000         191.000
 01 11 12 18  3 59.9930000  0  8G22G20G27G 1G 4G25G 3G13
 -15810360.07249 -12294076.95747  19059410.510    19059409.625    19059420.794
       242.000         208.000
  -8355077.43849  -6492547.64947  19080816.904    19080816.192    19080826.386
       243.000         207.000
 -16491209.77949 -12829880.04046  21600226.647    21600226.559    21600241.266
       227.000         183.000
 -18554419.54849 -14441312.35647  18648419.602    18648419.314    18648429.315
       239.000         209.000
 -11672135.23649  -9077430.22145  22537261.051    22537261.000    22537276.378
       217.000         145.000
   7962404.15549   6201871.89745  22670224.659    22670223.604    22670243.560
       213.000         146.000
  -1365049.47849  -1043761.39845  22912969.818    22912969.706    22912992.737
       211.000         140.000
 -26188250.38149 -20392476.19747  20079603.462    20079603.901    20079614.478
       236.000         191.000
 01 11 12 18  4 29.9930000  0  8G22G20G27G 1G 4G25G 3G13
 -15809374.88549 -12293309.35747  19059598.051    19059597.173    19059608.318
       242.000         208.000
  -8330465.79649  -6473369.85547  19085500.426    19085499.706    19085509.930
       242.000         207.000
 -16602494.14349 -12916595.03846  21579049.879    21579049.787    21579064.496
       228.000         183.000
 -18615859.74049 -14489187.84147  18636727.946    18636727.657    18636737.654
       239.000         209.000
 -11694888.40149  -9095160.06445  22532931.365    22532931.292    22532946.762
       221.000         151.000
   8003265.43649   6233711.49145  22678000.694    22677999.611    22678019.500
       219.000         142.000
  -1479776.43449  -1133158.85445  22891137.894    22891137.842    22891160.756
       209.000         143.000
 -26298155.10849 -20478116.19447  20058689.225    20058689.686    20058700.206
       236.000         192.000
 01 11 12 18  4 59.9930000  0  8G22G20G27G 1G 4G25G 3G13
 -15807790.77649 -12292075.05747  19059899.462    19059898.649    19059909.829
       242.000         208.000
  -8305376.39149  -6453819.77547  19090274.814    19090274.134    19090284.384
       242.000         206.000
 -16713615.31049 -13003182.85646  21557904.182    21557904.099    21557918.828
       227.000         184.000
 -18677057.16749 -14536874.16047  18625082.453    18625082.183    18625092.185
       239.000         209.000
 -11717187.71849  -9112536.26145  22528688.003    22528687.905    22528703.388
       220.000         147.000
   8044100.97349   6265531.04345  22685771.792    22685770.703    22685790.580
       215.000         147.000
  -1594461.21849  -1222523.47745  22869313.892    22869313.925    22869336.823
       206.000         144.000
 -26407942.88449 -20563665.05947  20037797.273    20037797.718    20037808.236
       237.000         192.000
 01 11 12 18  5 29.9930000  0  8G22G20G27G 1G 4G25G 3G13
 -15805611.14849 -12290376.71847  19060314.206    19060313.452    19060324.660
       241.000         207.000
  -8279812.81449  -6433900.20847  19095139.436    19095138.777    19095149.080
       242.000         206.000
 -16824574.91949 -13089644.78346  21536789.221    21536789.137    21536803.857
       228.000         183.000
 -18738012.53949 -14584371.86247  18613483.083    18613482.785    18613492.772
       240.000         209.000
 -11739036.23349  -9129561.20545  22524530.463    22524530.375    22524545.837
       218.000         148.000
   8084908.23849   6297328.51345  22693537.366    22693536.397    22693556.412
       211.000         152.000
  -1709102.48049  -1311854.15445  22847498.294    22847498.269    22847521.226
       204.000         145.000
 -26517614.49749 -20649123.41747  20016927.443    20016927.870    20016938.378
       237.000         193.000
 01 11 12 18  5 59.9930000  0  8G22G20G27G 1G 4G25G 3G13
 -15802839.93149 -12288217.40847  19060841.577    19060840.838    19060852.093
       242.000         208.000
  -8253779.35149  -6413614.49847  19100093.525    19100092.855    19100103.189
       242.000         206.000
 -16935374.91649 -13175982.30946  21515704.503    21515704.518    21515719.310
       225.000         183.000
 -18798726.65249 -14631681.57147  18601929.618    18601929.294    18601939.284
       240.000         209.000
 -11760437.70049  -9146237.78445  22520457.948    22520457.882    22520473.433
       220.000         148.000
   8125684.95649   6329102.09545  22701297.149    22701296.197    22701316.453
       205.000         153.000
  -1823698.95449  -1401149.95545  22825691.068    22825691.125    22825714.274
       205.000         147.000
 -26627170.86349 -20734491.97747  19996079.531    19996079.951    19996090.453
       237.000         193.000
 01 11 12 18  6 29.9930000  0  8G22G20G27G 1G 4G25G 3G13
 -15799482.49649 -12285601.30347  19061480.571    19061479.815    19061491.060
       242.000         208.000
  -8227281.54949  -6392966.96647  19105135.976    19105135.305    19105145.633
       243.000         206.000
 -17046018.82549 -13262198.22846  21494649.660    21494649.645    21494664.387
       228.000         185.000
 -18859202.08549 -14678805.29747  18590421.559    18590421.220    18590431.225
       240.000         210.000
 -11781397.16649  -9162569.93645  22516469.645    22516469.569    22516484.965
       220.000         141.000
   8166426.69249   6360848.41245  22709050.332    22709049.383    22709069.874
       204.000         155.000
  -1938251.30649  -1490411.38945  22803892.176    22803892.418    22803915.589
       204.000         144.000
 -26736614.33949 -20819772.56847  19975253.146    19975253.521    19975264.022
       237.000         194.000
 01 11 12 18  6 59.9930000  0  8G22G20G27G 1G 4G25G 3G13
 -15795545.26249 -12282533.40047  19062229.965    19062229.136    19062240.364
       242.000         208.000
  -8200325.71649  -6371962.52247  19110265.649    19110264.922    19110275.261
       242.000         206.000
 -17156511.20649 -13348296.04446  21473623.526    21473623.552    21473638.307
       227.000         183.000
 -18919442.19749 -14725745.64947  18578958.289    18578957.934    18578967.941
       240.000         210.000
 -11801920.62649  -9178562.36545  22512564.246    22512564.252    22512579.538
       218.000         142.000
   8207128.20049   6392563.37845  22716795.930    22716794.868    22716815.601
       211.000         153.000
  -2052761.53549  -1579639.98945  22782101.387    22782101.673    22782124.971
       198.000         140.000
 -26845948.00049 -20904967.58447  19954447.630    19954448.008    19954458.493
       237.000         194.000
 01 11 12 18  7 29.9930000  0  8G22G20G27G 1G 4G25G 3G13
 -15791017.96449 -12279005.71047  19063091.590    19063090.720    19063101.965
       242.000         208.000
  -8172901.83549  -6350593.36647  19115484.284    19115483.593    19115493.948
       243.000         206.000
 -17266839.79649 -13434266.25846  21452628.636    21452628.650    21452643.335
       227.000         183.000
 -18979433.62149 -14772492.21647  18567542.349    18567541.969    18567551.998
       240.000         210.000
 -11821997.76349  -9194206.96845  22508743.832    22508743.835    22508758.963
       219.000         142.000
   8247801.05749   6424256.04445  22724535.999    22724534.951    22724555.860
       213.000         157.000
  -2167214.77349  -1668824.23445  22760321.510    22760321.758    22760345.015
       205.000         139.000
 -26955158.65149 -20990066.75547  19933665.527    19933665.868    19933676.378
       238.000         195.000
 01 11 12 18  7 59.9930000  0  8G22G20G27G 1G 4G25G 3G13
 -15785900.14549 -12275017.87647  19064065.548    19064064.680    19064075.945
       242.000         208.000
  -8145009.83349  -6328859.44947  19120792.049    19120791.343    19120801.723
       243.000         206.000
 -17377002.23949 -13520106.98546  21431665.295    21431665.340    21431680.029
       227.000         182.000
 -19039172.96249 -14819042.35947  18556174.306    18556173.961    18556184.009
       240.000         210.000
 -11841627.92449  -9209503.31845  22505008.404    22505008.413    22505023.610
       218.000         146.000
   8288446.72349   6455927.57045  22732271.126    22732269.911    22732290.849
       217.000         157.000
  -2281605.31649  -1757959.62745  22738553.753    22738553.933    22738577.046
       210.000         139.000
 -27064242.81149 -21075067.36447  19912907.395    19912907.801    19912918.323
       237.000         195.000
 01 11 12 18  8 29.9930000  0  8G22G20G27G 1G 4G25G 3G13
 -15780202.37349 -12270578.13547  19065149.827    19065148.982    19065160.283
       242.000         208.000
  -8116660.24749  -6306768.97447  19126186.888    19126186.171    19126196.582
       242.000         206.000
 -17487007.20849 -13605825.03546  21410731.916    21410731.985    21410746.604
       228.000         182.000
 -19098667.72149 -14865401.92447  18544852.816    18544852.490    18544862.548
       239.000         210.000
 -11860821.25249  -9224459.28245  22501356.139    22501356.153    22501371.351
       221.000         143.000
   8329056.34249   6487571.04345  22739999.234    22739998.078    22740018.954
       217.000         144.000
  -2395939.01249  -1847050.72645  22716796.671    22716796.866    22716819.829
       211.000         140.000
 -27173208.01149 -21159975.28147  19892171.995    19892172.370    19892182.915
       238.000         196.000
 01 11 12 18  8 59.9930000  0  8G22G20G27G 1G 4G25G 3G13
 -15773931.69049 -12265691.96847  19066343.100    19066342.301    19066353.634
       241.000         207.000
  -8087860.09149  -6284327.40847  19131667.435    19131666.737    19131677.164
       242.000         205.000
 -17596859.54549 -13691424.11246  21389827.624    21389827.702    21389842.366
       229.000         186.000
 -19157921.66149 -14911573.83447  18533577.154    18533576.849    18533586.896
       240.000         210.000
 -11879584.39549  -9239079.99945  22497785.704    22497785.671    22497800.952
       220.000         141.000
   8369623.95149   6519181.85544  22747719.307    22747718.206    22747738.712
       219.000         128.000
  -2510217.70449  -1936099.00745  22695050.105    22695050.266    22695073.227
       210.000         142.000
 -27282057.84849 -21244793.29847  19871458.533    19871458.889    19871469.438
       238.000         195.000
 01 11 12 18  9 29.9930000  0  8G22G20G27G 1G 4G25G 3G13
 -15767078.14549 -12260351.63047  19067647.287    19067646.518    19067657.883
       241.000         207.000
  -8058599.96349  -6261527.41747  19137235.524    19137234.829    19137245.248
       242.000         205.000
 -17706547.53249 -13776895.13946  21368954.636    21368954.674    21368969.341
       228.000         184.000
 -19216921.85349 -14957548.01847  18522349.772    18522349.499    18522359.536
       240.000         210.000
 -11897907.29749  -9253357.68645  22494299.154    22494299.051    22494314.272
       219.000         141.000
   8410160.96949   6550768.87445  22755433.637    22755432.486    22755452.857
       213.000         142.000
  -2624426.77449  -2025092.97345  22673316.749    22673316.863    22673339.838
       206.000         142.000
 -27390779.20249 -21329511.20447  19850769.522    19850769.868    19850780.363
       238.000         196.000
 01 11 12 18  9 59.9930000  0  8G22G20G27G 1G 4G25G 3G13
 -15759649.39949 -12254563.08847  19069060.965    19069060.207    19069071.559
       241.000         206.000
  -8028887.58749  -6238375.03347  19142889.706    19142888.993    19142899.442
       242.000         205.000
 -17816076.79649 -13862242.48646  21348111.765    21348111.864    21348126.491
       229.000         186.000
 -19275673.08349 -15003328.20947  18511169.820    18511169.537    18511179.560
       240.000         210.000
 -11915797.48149  -9267298.22445  22490894.779    22490894.797    22490909.928
       217.000         140.000
   8450660.91649   6582326.85645  22763140.918    22763139.695    22763160.209
       216.000         156.000
  -2738569.21349  -2114035.00145  22651596.090    22651596.239    22651619.122
       206.000         139.000
 -27499376.72049 -21414132.61047  19830104.063    19830104.422    19830114.911
       238.000         196.000
 01 11 12 18 10 29.9930000  0  8G22G20G27G 1G 4G25G 3G13
 -15751657.86849 -12248336.00947  19070581.812    19070581.006    19070592.337
       242.000         207.000
  -7998735.23149  -6214879.79947  19148627.568    19148626.877    19148637.294
       241.000         204.000
 -17925457.44949 -13947474.01746  21327297.319    21327297.377    21327311.968
       229.000         185.000
 -19334184.31849 -15048921.38647  18500035.528    18500035.233    18500045.243
       239.000         210.000
 -11933266.83149  -9280910.84245  22487570.454    22487570.560    22487585.796
       220.000         139.000
   8491113.22049   6613847.68245  22770839.057    22770837.829    22770858.678
       215.000         160.000
  -2852651.93149  -2202930.48945  22629886.742    22629886.890    22629909.713
       203.000         139.000
 -27607859.44949 -21498664.58047  19809460.437    19809460.815    19809471.309
       238.000         196.000
 01 11 12 18 10 59.9930000  0  8G22G20G27G 1G 4G25G 3G13
 -15743101.16449 -12241668.54547  19072210.228    19072209.370    19072220.683
       242.000         207.000
  -7968140.83749  -6191040.13547  19154449.531    19154448.860    19154459.331
       241.000         204.000
 -18034685.32349 -14032586.54046  21306511.818    21306511.891    21306526.387
       229.000         184.000
 -19392450.09549 -15094323.30547  18488947.937    18488947.638    18488957.653
       239.000         209.000
 -11950312.81549  -9294193.46245  22484326.793    22484326.835    22484342.012
       220.000         142.000
   8531521.25749   6645334.05346  22778528.614    22778527.511    22778548.608
       214.000         163.000
  -2966668.03849  -2291774.07745  22608190.029    22608190.218    22608213.052
       200.000         142.000
 -27716221.78049 -21583102.71647  19788839.690    19788840.096    19788850.606
       238.000         196.000
 01 11 12 18 11 29.9930000  0  8G22G20G27G 1G 4G25G 3G13
 -15733972.29049 -12234555.23647  19073947.565    19073946.639    19073957.952
       242.000         207.000
  -7937097.59549  -6166850.70547  19160356.928    19160356.268    19160366.763
       242.000         204.000
 -18143751.38649 -14117572.96046  21285757.181    21285757.250    21285771.669
       228.000         184.000
 -19450460.31949 -15139526.08747  18477908.978    18477908.673    18477918.686
       239.000         209.000
 -11966928.13449  -9307140.59245  22481165.032    22481165.134    22481180.316
       220.000         139.000
   8571893.99549   6676792.87446  22786211.527    22786210.453    22786231.779
       211.000         165.000
  -3080605.30849  -2380556.18245  22586508.379    22586508.492    22586531.460
       204.000         144.000
 -27824453.24249 -21667438.87347  19768243.896    19768244.309    19768254.835
       238.000         196.000
 01 11 12 18 11 59.9930000  0  8G22G20G27G 1G 4G25G 3G13
 -15724277.79149 -12227001.18547  19075792.467    19075791.525    19075802.847
       241.000         207.000
  -7905612.09549  -6142316.67647  19166348.498    19166347.836    19166358.400
       241.000         204.000
 -18252659.91549 -14202436.62546  21265032.394    21265032.521    21265046.926
       228.000         183.000
 -19508218.20349 -15184532.24347  18466917.996    18466917.718    18466927.748
       239.000         209.000
 -11983118.85949  -9319756.83345  22478084.091    22478084.156    22478099.392
       220.000         136.000
   8612226.31149   6708220.21145  22793886.565    22793885.671    22793907.233
       207.000         161.000
  -3194465.25249  -2469278.03845  22564841.414    22564841.550    22564864.602
       203.000         146.000
 -27932557.36049 -21751675.80547  19747672.321    19747672.751    19747683.264
       238.000         196.000
 01 11 12 18 12 29.9930000  0  8G22G20G27G 1G 4G25G 3G13
 -15714025.37449 -12219012.39147  19077743.489    19077742.546    19077753.922
       241.000         206.000
  -7873692.04449  -6117444.02647  19172422.762    19172422.102    19172432.674
       241.000         204.000
 -18361416.74249 -14287182.10146  21244336.536    21244336.690    21244351.036
       230.000         184.000
 -19565728.23849 -15229345.26847  18455974.175    18455973.911    18455983.968
       239.000         209.000
 -11998892.56749  -9332048.16445  22475082.619    22475082.651    22475097.969
       220.000         138.000
   8652511.52249   6739610.82945  22801552.859    22801551.987    22801573.737
       209.000         161.000
  -3308250.74349  -2557941.86845  22543188.578    22543188.782    22543211.867
       200.000         147.000
 -28040538.45049 -21835816.87247  19727124.199    19727124.601    19727135.107
       238.000         196.000
 01 11 12 18 12 59.9930000  0  8G22G20G27G 1G 4G25G 3G13
 -15703217.55449 -12210590.82347  19079800.134    19079799.267    19079810.672
       240.000         206.000
  -7841340.13849  -6092234.87847  19178579.223    19178578.552    19178589.139
       241.000         204.000
 -18470022.22849 -14371809.62346  21223669.419    21223669.618    21223684.009
       228.000         185.000
 -19622989.73249 -15273964.63547  18445077.664    18445077.410    18445087.499
       239.000         209.000
 -12014251.54649  -9344016.32545  22472159.989    22472160.016    22472175.453
       222.000         141.000
   8692748.95049   6770964.23045  22809210.256    22809209.257    22809231.089
       214.000         162.000
  -3421958.94149  -2646545.46545  22521550.539    22521550.710    22521573.862
       210.000         149.000
 -28148395.69349 -21919861.43947  19706599.588    19706600.030    19706610.484
       238.000         196.000
 01 11 12 18 13 29.9930000  0  8G22G20G27G 1G 4G25G 3G13
 -15691851.15949 -12201734.00247  19081963.073    19081962.269    19081973.716
       240.000         206.000
  -7808553.38249  -6066686.88747  19184818.409    19184817.744    19184828.352
       241.000         203.000
 -18578471.10749 -14456315.12246  21203032.206    21203032.395    21203046.801
       229.000         186.000
 -19679996.22249 -15318385.29247  18434229.693    18434229.442    18434239.541
       238.000         209.000
 -12029192.20749  -9355658.51945  22469316.944    22469316.936    22469332.296
       219.000         145.000
   8732943.59049   6802284.33045  22816859.463    22816858.380    22816880.358
       218.000         156.000
  -3535581.73849  -2735082.52145  22499928.932    22499928.996    22499952.036
       209.000         149.000
 -28256122.19149 -22003804.11447  19686099.914    19686100.345    19686110.733
       238.000         196.000
 01 11 12 18 13 59.9920000  0  8G22G20G27G 1G 4G25G 3G13
 -15679933.93049 -12192447.95847  19084230.919    19084230.119    19084241.542
       241.000         205.000
  -7775340.45649  -6040806.81147  19191138.737    19191138.050    19191148.647
       241.000         203.000
 -18686764.87849 -14540699.78147  21182424.585    21182424.719    21182439.062
       231.000         188.000
 -19736749.90649 -15362608.95747  18423429.834    18423429.578    18423439.689
       239.000         209.000
 -12043721.18749  -9366979.93545  22466552.309    22466552.252    22466567.850
       220.000         148.000
   8773088.21349   6833565.45245  22824498.994    22824497.936    22824520.075
       217.000         148.000
  -3649117.51349  -2823551.71245  22478323.663    22478323.754    22478346.735
       213.000         146.000
 -28363718.21649 -22087645.11147  19665625.104    19665625.476    19665635.857
       239.000         196.000
 01 11 12 18 14 29.9920000  0  8G22G20G27G 1G 4G25G 3G13
 -15667464.44149 -12182731.58347  19086603.916    19086603.065    19086614.465
       241.000         205.000
  -7741698.45949  -6014592.39747  19197540.719    19197540.010    19197550.621
       241.000         203.000
 -18794908.08149 -14624967.08646  21161845.539    21161845.682    21161860.072
       231.000         187.000
 -19793250.67849 -15406635.54847  18412678.122    18412677.849    18412687.961
       239.000         209.000
 -12057838.44249  -9377980.52845  22463866.011    22463865.892    22463881.592
       221.000         148.000
   8813187.54049   6864811.32645  22832130.054    22832128.994    22832151.038
       216.000         147.000
  -3762568.19949  -2911954.61345  22456734.608    22456734.669    22456757.564
       211.000         141.000
 -28471187.38449 -22171387.25647  19645174.392    19645174.731    19645185.116
       238.000         196.000
 01 11 12 18 14 59.9920000  0  8G22G20G27G 1G 4G25G 3G13
 -15654436.07149 -12172579.72147  19089083.216    19089082.359    19089093.773
       240.000         205.000
  -7707621.39249  -5988038.96947  19204025.465    19204024.751    19204035.376
       241.000         203.000
 -18902887.88049 -14709107.12346  21141297.652    21141297.733    21141311.972
       229.000         185.000
 -19849486.23149 -15450455.47847  18401976.903    18401976.617    18401986.720
       239.000         209.000
 -12071536.13149  -9388654.19945  22461259.518    22461259.401    22461275.259
       221.000         149.000
   8853248.93049   6896027.63945  22839753.938    22839752.755    22839774.856
       215.000         154.000
  -3875917.78249  -3000278.69645  22435164.739    22435164.875    22435187.620
       207.000         137.000
 -28578515.17749 -22255019.23947  19624750.512    19624750.889    19624761.279
       238.000         196.000
 01 11 12 18 15 29.9920000  0  8G22G20G27G 1G 4G25G 3G13
 -15640858.60049 -12161999.98547  19091667.031    19091666.146    19091677.586
       240.000         205.000
  -7673119.24749  -5961154.31247  19210591.082    19210590.380    19210601.069
       240.000         203.000
 -19010711.86649 -14793125.70047  21120779.362    21120779.426    21120793.670
       229.000         188.000
 -19905463.01049 -15494073.76647  18391324.901    18391324.612    18391334.713
       239.000         209.000
 -12084823.90649  -9399008.41345  22458731.024    22458730.916    22458746.809
       220.000         148.000
   8893264.34749   6927208.06545  22847368.989    22847367.748    22847389.966
       219.000         158.000
  -3989170.81149  -3088527.50945  22413613.208    22413613.371    22413635.946
       204.000         137.000
 -28685707.94649 -22338546.01947  19604352.348    19604352.750    19604363.134
       238.000         196.000
 01 11 12 18 15 59.9920000  0  8G22G20G27G 1G 4G25G 3G13
 -15626727.36049 -12150988.73947  19094356.193    19094355.311    19094366.807
       240.000         205.000
  -7638187.43049  -5933934.84747  19217238.506    19217237.787    19217248.489
       241.000         203.000
 -19118373.10049 -14877017.49146  21100292.061    21100292.095    21100306.312
       230.000         187.000
 -19961172.89749 -15537484.09147  18380723.688    18380723.387    18380733.482
       239.000         208.000
 -12097696.75649  -9409039.31745  22456281.460    22456281.381    22456297.323
       220.000         146.000
   8933240.37749   6958357.80645  22854976.620    22854975.335    22854997.581
       215.000         160.000
  -4102317.57849  -3176693.38545  22392081.845    22392082.020    22392104.731
       203.000         139.000
 -28792757.53649 -22421961.23347  19583981.435    19583981.842    19583992.202
       238.000         196.000
 01 11 12 18 16 29.9920000  0  8G22G20G27G 1G 4G25G 3G13
 -15612051.26149 -12139552.92247  19097149.010    19097148.142    19097159.711
       240.000         205.000
  -7602834.89149  -5906387.54847  19223965.990    19223965.265    19223976.005
       241.000         202.000
 -19225878.24849 -14960787.63347  21079834.439    21079834.466    21079848.684
       233.000         191.000
 -20016621.44649 -15580690.77347  18370172.132    18370171.870    18370181.956
       238.000         208.000
 -12110162.98749  -9418753.39745  22453909.330    22453909.225    22453925.185
       221.000         148.000
   8973169.95949   6989471.36445  22862575.171    22862573.951    22862596.424
       211.000         158.000
  -4215361.64049  -3264779.27445  22370570.158    22370570.264    22370593.075
       204.000         144.000
 -28899669.25449 -22505269.01447  19563636.792    19563637.200    19563647.543
       239.000         197.000
 01 11 12 18 16 59.9920000  0  8G22G20G27G 1G 4G25G 3G13
 -15596828.25249 -12127690.94647  19100045.923    19100045.050    19100056.691
       239.000         205.000
  -7567060.08649  -5878511.21247  19230773.814    19230773.080    19230783.841
       241.000         202.000
 -19333223.27249 -15044432.99647  21059407.388    21059407.346    21059421.608
       230.000         190.000
 -20071803.27449 -15623689.62147  18359671.355    18359671.101    18359681.203
       238.000         208.000
 -12122220.62249  -9428149.08545  22451614.914    22451614.867    22451630.897
       219.000         150.000
   9013056.41549   7020551.27045  22870165.592    22870164.375    22870187.082
       209.000         154.000
  -4328295.71649  -3352779.48945  22349079.321    22349079.404    22349102.236
       210.000         149.000
 -29006437.54949 -22588465.03447  19543319.402    19543319.843    19543330.209
       239.000         197.000
 01 11 12 18 17 29.9920000  0  8G22G20G27G 1G 4G25G 3G13
 -15581053.53749 -12115399.06947  19103047.835    19103046.956    19103058.632
       240.000         205.000
  -7530857.92649  -5850301.88147  19237662.970    19237662.208    19237672.999
       241.000         201.000
 -19440401.06549 -15127948.06947  21039012.023    21039011.997    21039026.228
       231.000         192.000
 -20126710.13849 -15666474.21847  18349222.898    18349222.678    18349232.777
       238.000         208.000
 -12133864.32249  -9437222.22445  22449399.353    22449399.281    22449415.434
       221.000         153.000
   9052906.23949   7051602.64945  22877749.017    22877747.830    22877770.655
       204.000         152.000
  -4441110.02249  -3440686.38945  22327611.217    22327611.431    22327634.143
       213.000         152.000
 -29113054.01149 -22671542.74047  19523030.903    19523031.363    19523041.766
       238.000         198.000
 01 11 12 18 17 59.9920000  0  8G22G20G27G 1G 4G25G 3G13
 -15564758.15249 -12102701.47647  19106148.816    19106147.942    19106159.639
       240.000         205.000
  -7494259.54049  -5821783.78947  19244627.544    19244626.758    19244637.543
       241.000         201.000
 -19547440.31849 -15211355.17747  21018643.080    21018643.052    21018657.304
       230.000         190.000
 -20181369.55749 -15709066.00047  18338821.608    18338821.354    18338831.459
       239.000         208.000
 -12145124.85649  -9445996.78745  22447256.618    22447256.582    22447272.756
       220.000         153.000
   9092690.48849   7082602.98645  22885319.946    22885318.807    22885341.721
       208.000         150.000
  -4553830.19049  -3528519.92345  22306160.895    22306161.288    22306183.922
       213.000         153.000
 -29219545.74949 -22754523.27047  19502766.163    19502766.622    19502777.054
       239.000         198.000
 01 11 12 18 18 29.9920000  0  8G22G20G27G 1G 4G25G 3G13
 -15547925.05749 -12089584.89347  19109352.117    19109351.245    19109362.972
       241.000         205.000
  -7457247.92349  -5792943.69847  19251670.704    19251669.934    19251680.709
       240.000         200.000
 -19654321.65549 -15294639.26946  20998304.146    20998304.131    20998318.320
       231.000         187.000
 -20235761.00049 -15751448.96847  18328471.298    18328471.027    18328481.121
       238.000         208.000
 -12155984.89349  -9454459.26945  22445190.119    22445190.072    22445206.201
       220.000         150.000
   9132428.52249   7113567.28445  22892882.270    22892881.059    22892903.957
       212.000         148.000
  -4666433.88849  -3616262.72045  22284732.949    22284733.316    22284755.878
       211.000         152.000
 -29325892.17249 -22837390.56947  19482529.093    19482529.532    19482539.986
       239.000         199.000
 01 11 12 18 18 59.9920000  0  8G22G20G27G 1G 4G25G 3G13
 -15530540.83249 -12076038.85547  19112660.394    19112659.467    19112671.164
       241.000         205.000
  -7419809.81849  -5763771.29247  19258795.033    19258794.266    19258805.054
       240.000         200.000
 -19761029.52949 -15377788.17647  20977998.223    20977998.217    20978012.302
       230.000         188.000
 -20289867.75049 -15793610.09747  18318175.176    18318174.889    18318184.982
       239.000         208.000
 -12166430.59849  -9462598.91645  22443202.468    22443202.387    22443218.669
       220.000         155.000
   9172135.18749   7144507.17145  22900438.614    22900437.337    22900460.360
       214.000         153.000
  -4778902.41749  -3703900.21045  22263330.610    22263331.010    22263353.598
       208.000         150.000
 -29432076.55149 -22920131.60747  19462322.885    19462323.302    19462333.724
       240.000         199.000
 01 11 12 18 19 29.9920000  0  8G22G20G27G 1G 4G25G 3G13
 -15512614.83549 -12062070.66447  19116071.728    19116070.761    19116082.464
       240.000         204.000
  -7381954.58749  -5734273.84647  19265998.754    19265997.974    19266008.791
       240.000         199.000
 -19867571.06949 -15460807.46547  20957723.927    20957723.949    20957738.053
       231.000         189.000
 -20343695.62549 -15835553.92647  18307932.165    18307931.828    18307941.897
       239.000         209.000
 -12176471.34649  -9470422.99745  22441291.866    22441291.805    22441308.181
       219.000         153.000
   9211802.79149   7175416.60845  22907987.407    22907986.150    22908009.291
       212.000         151.000
  -4891239.98549  -3791435.68245  22241953.192    22241953.673    22241976.140
       208.000         146.000
 -29538104.16449 -23002750.49147  19442146.512    19442146.905    19442157.284
       240.000         199.000
 01 11 12 18 19 59.9920000  0  8G22G20G27G 1G 4G25G 3G13
 -15494145.72849 -12047679.26847  19119586.357    19119585.395    19119597.144
       240.000         205.000
  -7343680.85749  -5704450.28747  19273282.148    19273281.334    19273292.128
       241.000         200.000
 -19973942.40649 -15543694.11647  20937481.994    20937482.046    20937496.165
       230.000         189.000
 -20397239.60049 -15877276.52947  18297743.112    18297742.784    18297752.827
       239.000         209.000
 -12186105.02449  -9477929.89345  22439458.761    22439458.706    22439475.147
       220.000         154.000
   9251434.60249   7206298.16545  22915529.395    22915528.104    22915551.477
       214.000         153.000
  -5003439.75149  -3878863.80645  22220601.975    22220602.414    22220624.999
       204.000         143.000
 -29643969.90549 -23085243.22647  19422000.874    19422001.284    19422011.650
       240.000         199.000
 01 11 12 18 20 29.9920000  0  8G22G20G27G 1G 4G25G 3G13
 -15475144.85849 -12032873.51647  19123202.251    19123201.244    19123213.014
       240.000         204.000
  -7305000.11649  -5674309.58947  19280642.935    19280642.129    19280652.973
       240.000         199.000
 -20080152.87249 -15626455.42147  20917270.793    20917270.836    20917284.952
       231.000         189.000
 -20450507.60049 -15918784.08347  18287606.579    18287606.251    18287616.295
       239.000         209.000
 -12195342.95149  -9485128.40445  22437700.940    22437700.889    22437717.344
       223.000         152.000
   9291021.07949   7237144.41545  22923062.595    22923061.364    22923084.965
       207.000         149.000
  -5115507.65849  -3966189.17345  22199275.744    22199276.309    22199298.819
       208.000         143.000
 -29749681.65149 -23167615.96547  19401884.583    19401884.956    19401895.340
       239.000         199.000
 01 11 12 18 20 59.9920000  0  8G22G20G27G 1G 4G25G 3G13
 -15455618.41849 -12017658.23447  19126918.040    19126917.081    19126928.907
       239.000         204.000
  -7265918.47349  -5643856.49147  19288080.024    19288079.217    19288090.099
       239.000         200.000
 -20186206.31949 -15709094.38547  20897089.447    20897089.471    20897103.526
       231.000         188.000
 -20503502.33449 -15960078.70547  18277522.079    18277521.722    18277531.761
       239.000         209.000
 -12204190.93049  -9492023.07545  22436017.423    22436017.308    22436033.768
       221.000         156.000
   9330558.36349   7267952.29845  22930586.404    22930585.289    22930609.081
       204.000         150.000
  -5227444.26949  -4053412.29045  22177974.650    22177975.270    22177997.708
       209.000         146.000
 -29855241.73849 -23249870.53347  19381797.131    19381797.497    19381807.878
       240.000         199.000
 01 11 12 18 21 29.9920000  0  8G22G20G27G 1G 4G25G 3G13
 -15435582.30149 -12002045.80347  19130730.853    19130729.904    19130741.776
       240.000         204.000
  -7226452.00249  -5613103.54847  19295590.287    19295589.521    19295600.489
       239.000         199.000
 -20292116.11549 -15791621.39747  20876935.417    20876935.447    20876949.484
       230.000         188.000
 -20556236.14549 -16001170.00447  18267487.196    18267486.844    18267496.881
       239.000         209.000
 -12212664.66949  -9498626.10445  22434404.945    22434404.865    22434421.492
       222.000         155.000
   9370032.53649   7298710.99545  22938098.281    22938097.290    22938121.200
       205.000         149.000
  -5339260.39349  -4140541.57045  22156696.554    22156697.149    22156719.421
       214.000         150.000
 -29960662.03449 -23332016.16847  19361736.273    19361736.652    19361747.019
       240.000         200.000
 01 11 12 18 21 59.9920000  0  8G22G20G27G 1G 4G25G 3G13
 -15415024.91949 -11986027.18747  19134642.864    19134641.933    19134653.823
       239.000         204.000
  -7186589.29649  -5582041.83347  19303175.993    19303175.237    19303186.271
       239.000         200.000
 -20397868.54049 -15874025.80747  20856811.354    20856811.364    20856825.307
       232.000         188.000
 -20608693.89149 -16042046.18647  18257504.814    18257504.481    18257514.534
       239.000         209.000
 -12220751.98949  -9504928.05245  22432866.083    22432865.997    22432882.701
       222.000         149.000
   9409456.83249   7329430.84045  22945600.777    22945599.814    22945623.774
       205.000         149.000
  -5450939.25549  -4227563.90345  22135444.775    22135445.267    22135467.287
       216.000         153.000
 -30065927.76449 -23414041.36347  19341704.883    19341705.228    19341715.565
       240.000         200.000
 01 11 12 18 22 29.9920000  0  8G22G20G27G 1G 4G25G 3G13
 -15393947.84849 -11969603.62847  19138653.754    19138652.852    19138664.759
       239.000         203.000
  -7146331.73249  -5550672.45547  19310836.827    19310836.083    19310847.204
       240.000         200.000
 -20503462.64949 -15956306.82647  20836717.415    20836717.403    20836731.359
       232.000         190.000
 -20660873.60349 -16082705.71947  18247575.334    18247575.017    18247585.090
       239.000         209.000
 -12228454.32549  -9510930.01645  22431400.467    22431400.403    22431417.066
       221.000         150.000
   9448831.86549   7360112.31545  22953094.012    22953092.943    22953117.065
       203.000         149.000
  -5562476.47849  -4314475.85545  22114219.872    22114220.299    22114242.289
       214.000         156.000
 -30171035.76049 -23495943.65647  19321703.490    19321703.817    19321714.110
       240.000         200.000
 01 11 12 18 22 59.9920000  0  8G22G20G27G 1G 4G25G 3G13
 -15372351.28749 -11952775.26847  19142763.520    19142762.621    19142774.551
       239.000         203.000
  -7105679.44949  -5518995.48747  19318572.864    19318572.083    19318583.210
       239.000         198.000
 -20608896.28049 -16038462.81147  20816653.968    20816653.986    20816667.906
       232.000         190.000
 -20712771.73649 -16123145.83147  18237699.440    18237699.141    18237709.239
       239.000         209.000
 -12235771.46749  -9516631.80945  22430008.150    22430008.060    22430024.685
       220.000         154.000
   9488159.68649   7390756.99645  22960578.113    22960577.021    22960601.189
       200.000         147.000
  -5673867.18549  -4401273.67145  22093022.822    22093023.177    22093045.148
       212.000         154.000
 -30275982.73549 -23577720.47447  19301732.656    19301733.024    19301743.316
       240.000         201.000
 01 11 12 18 23 29.9920000  0  8G22G20G27G 1G 4G25G 3G13
 -15350232.29449 -11935539.81747  19146972.790    19146971.820    19146983.775
       240.000         203.000
  -7064629.58049  -5487008.72147  19326384.486    19326383.698    19326394.891
       239.000         198.000
 -20714164.05349 -16120489.54747  20796622.053    20796622.103    20796636.052
       231.000         189.000
 -20764381.73149 -16163361.41647  18227878.416    18227878.099    18227888.228
       239.000         209.000
 -12242700.08249  -9522030.87545  22428689.820    22428689.725    22428706.377
       220.000         153.000
   9527445.21049   7421368.70945  22968054.114    22968053.082    22968077.374
       202.000         148.000
  -5785102.77049  -4487950.60545  22071855.215    22071855.599    22071877.493
       209.000         151.000
 -30380761.90749 -23659366.53747  19281793.807    19281794.174    19281804.425
       240.000         200.000
 01 11 12 18 23 59.9920000  0  8G22G20G27G 1G 4G25G 3G13
 -15327591.51949 -11917897.79247  19151281.290    19151280.314    19151292.315
       239.000         203.000
  -7023182.89849  -5454712.74147  19334271.653    19334270.836    19334282.071
       239.000         197.000
 -20819264.34649 -16202385.80147  20776622.094    20776622.121    20776635.985
       232.000         188.000
 -20815700.71049 -16203350.23247  18218112.704    18218112.417    18218122.585
       240.000         210.000
 -12249240.73149  -9527127.62245  22427445.286    22427445.223    22427461.902
       215.000         147.000
   9566689.62649   7451948.43445  22975522.133    22975521.274    22975545.682
       200.000         150.000
  -5896178.54149  -4574503.01345  22050718.078    22050718.418    22050740.268
       209.000         144.000
 -30485369.98549 -23740879.27547  19261887.507    19261887.891    19261898.109
       240.000         201.000
 01 11 12 18 24 29.9920000  0  8G22G20G27G 1G 4G25G 3G13
 -15304451.86849 -11899867.02347  19155684.724    19155683.732    19155695.771
       239.000         203.000
  -6981362.44049  -5422125.50947  19342229.974    19342229.107    19342240.389
       239.000         198.000
 -20924217.74449 -16284167.59247  20756650.080    20756650.096    20756663.852
       231.000         189.000
 -20866747.97649 -16243127.31847  18208398.742    18208398.452    18208408.637
       239.000         210.000
 -12255415.94949  -9531939.63345  22426270.215    22426270.166    22426286.934
       216.000         151.000
   9605872.15349   7482479.90945  22982978.609    22982977.755    22983002.277
       207.000         152.000
  -6007112.05349  -4660944.59745  22029608.056    22029608.237    22029629.994
       207.000         138.000
 -30589826.17949 -23822273.67147  19242010.144    19242010.515    19242020.701
       240.000         201.000
 01 11 12 18 24 59.9920000  0  8G22G20G27G 1G 4G25G 3G13
 -15280805.90549 -11881441.72547  19160184.478    19160183.476    19160195.586
       239.000         203.000
  -6939160.69549  -5389241.17047  19350260.826    19350259.945    19350271.259
       238.000         198.000
 -21029014.27149 -16365827.14647  20736707.945    20736707.930    20736721.621
       232.000         188.000
 -20917512.42849 -16282684.02547  18198738.594    18198738.315    18198748.500
       239.000         210.000
 -12261217.81149  -9536460.72045  22425166.239    22425166.216    22425182.951
       216.000         150.000
   9645002.37349   7512970.64445  22990425.216    22990424.280    22990448.877
       213.000         150.000
  -6117890.28949  -4747265.21345  22008527.404    22008527.653    22008549.275
       209.000         142.000
 -30694118.89949 -23903540.68047  19222163.800    19222164.216    19222174.396
       240.000         200.000
 01 11 12 18 25 29.9920000  0  8G22G20G27G 1G 4G25G 3G13
 -15256645.60049 -11862615.62947  19164782.085    19164781.117    19164793.271
       238.000         203.000
  -6896569.73649  -5356053.54647  19358365.744    19358364.851    19358376.187
       239.000         198.000
 -21133643.45349 -16447356.28047  20716797.546    20716797.583    20716811.284
       231.000         191.000
 -20967982.31449 -16322011.20647  18189134.495    18189134.227    18189144.411
       239.000         210.000
 -12266637.96249  -9540684.36245  22424134.907    22424134.939    22424151.751
       216.000         156.000
   9684090.52049   7543428.69745  22997863.717    22997862.827    22997887.434
       205.000         144.000
  -6228499.85149  -4833454.35645  21987478.989    21987479.268    21987500.821
       212.000         148.000
 -30798236.16549 -23984670.97347  19202350.914    19202351.321    19202361.466
       240.000         200.000
 01 11 12 18 25 59.9920000  0  7G22G20G27G 1G 4G 3G13
 -15231983.48749 -11843398.51347  19169475.195    19169474.256    19169486.441
       238.000         202.000
  -6853601.88549  -5322572.24447  19366542.363    19366541.472    19366552.858
       238.000         197.000
 -21238115.49049 -16528762.97547  20696917.140    20696917.172    20696930.901
       232.000         192.000
 -21018166.45449 -16361115.72447  18179584.784    18179584.514    18179594.687
       239.000         210.000
 -12271688.70449  -9544620.15845  22423173.918    22423173.922    22423190.851
       215.000         155.000
  -6338947.71149  -4919517.47945  21966461.399    21966461.650    21966483.141
       213.000         150.000
 -30902186.62749 -24065671.29047  19182569.737    19182570.156    19182580.271
       241.000         200.000
 01 11 12 18 26 29.9920000  0  7G22G20G27G 1G 4G 3G13
 -15206824.82249 -11823794.47447  19174262.797    19174261.866    19174274.109
       237.000         202.000
  -6810262.52849  -5288801.45347  19374789.648    19374788.786    19374800.185
       239.000         198.000
 -21342433.32049 -16610049.51447  20677066.082    20677066.076    20677079.816
       232.000         191.000
 -21068066.52149 -16399998.89447  18170089.158    18170088.870    18170099.032
       239.000         210.000
 -12276374.92749  -9548271.95245  22422282.228    22422282.236    22422299.311
       214.000         153.000
  -6449233.52949  -5005454.29345  21945474.566    21945474.833    21945496.295
       213.000         152.000
 -31005971.43249 -24146542.53047  19162820.125    19162820.544    19162830.603
       241.000         201.000
 01 11 12 18 26 59.9920000  0  7G22G20G27G 1G 4G 3G13
 -15181166.86149 -11803801.36847  19179145.446    19179144.498    19179156.774
       237.000         201.000
  -6766548.86149  -5254738.99247  19383108.160    19383107.326    19383118.749
       238.000         198.000
 -21446591.67649 -16691211.78847  20657245.302    20657245.324    20657259.030
       232.000         189.000
 -21117676.05249 -16438655.67147  18160648.801    18160648.513    18160658.663
       239.000         210.000
 -12280693.82149  -9551637.48145  22421460.485    22421460.430    22421477.571
       216.000         155.000
  -6559348.94649  -5091258.30845  21924520.277    21924520.482    21924541.859
       214.000         151.000
 -31109583.31449 -24227279.01747  19143103.449    19143103.846    19143113.847
       242.000         201.000
 01 11 12 18 27 29.9920000  0  7G22G20G27G 1G 4G 3G13
 -15155009.50549 -11783419.12747  19184123.079    19184122.168    19184134.479
       238.000         202.000
  -6722460.84849  -5220384.82847  19391497.937    19391497.117    19391508.529
       238.000         198.000
 -21550587.91649 -16772247.74447  20637455.391    20637455.433    20637469.098
       232.000         191.000
 -21166991.25649 -16477083.10747  18151264.464    18151264.152    18151274.305
       239.000         210.000
 -12284644.66549  -9554716.19545  22420708.698    22420708.692    22420725.843
       213.000         152.000
  -6669288.10949  -5176924.98045  21903599.329    21903599.618    21903620.958
       212.000         152.000
 -31213018.79549 -24307878.04547  19123420.298    19123420.692    19123430.691
       242.000         201.000
 01 11 12 18 27 59.9920000  0  7G22G20G27G 1G 4G 3G13
 -15128369.72849 -11762660.97347  19189192.580    19189191.646    19189203.973
       236.000         202.000
  -6678015.37249  -5185752.13147  19399955.683    19399954.915    19399966.368
       238.000         197.000
 -21654436.59349 -16853168.69847  20617693.576    20617693.613    20617707.225
       231.000         190.000
 -21216025.31349 -16515291.46747  18141933.654    18141933.294    18141943.431
       240.000         209.000
 -12288244.14749  -9557521.14145  22420023.834    22420023.836    22420041.128
       214.000         156.000
  -6779062.60249  -5262463.34845  21882709.823    21882710.081    21882731.446
       213.000         148.000
 -31316290.50849 -24388349.45247  19103768.291    19103768.691    19103778.677
       241.000         201.000
 01 11 12 18 28 29.9920000  0  8G22G20G27G 1G 4G 3G 8G13
 -15101245.05449 -11741524.97747  19194354.326    19194353.380    19194365.764
       237.000         202.000
  -6633209.94749  -5150838.94647  19408481.979    19408481.203    19408492.691
       238.000         197.000
 -21758132.67549 -16933970.75147  20597960.814    20597960.860    20597974.442
       231.000         190.000
 -21264771.96649 -16553275.87447  18132657.509    18132657.136    18132667.253
       239.000         210.000
 -12291489.50349  -9560050.14145  22419406.423    22419406.371    22419423.767
       215.000         156.000
  -6888664.32049  -5347867.08845  21861853.172    21861853.411    21861874.702
       212.000         148.000
   -251867.51653                  22733676.421
       210.000          76.000
 -31419392.07049 -24468688.28147  19084148.652    19084149.078    19084159.039
       242.000         201.000
 01 11 12 18 28 59.9920000  0  8G22G20G27G 1G 4G 3G 8G13
 -15073620.10049 -11719999.15947  19199611.262    19199610.332    19199622.769
       237.000         202.000
  -6588029.24449  -5115633.33947  19417079.662    19417078.919    19417090.409
       238.000         197.000
 -21861658.13649 -17014639.84747  20578260.434    20578260.504    20578274.116
       231.000         189.000
 -21313212.04149 -16591021.39547  18123439.641    18123439.308    18123449.430
       239.000         209.000
 -12294364.95549  -9562290.91945  22418859.341    22418859.307    22418876.698
       214.000         155.000
  -6998072.18549  -5433119.76345  21841033.348    21841033.688    21841054.828
       214.000         149.000
    -40276.63543                  22708712.898
       212.000          74.000
 -31522303.72949 -24548879.13247  19064565.163    19064565.598    19064575.541
       241.000         201.000
 01 11 12 18 29 29.9920000  0  8G22G20G27G 1G 4G 3G 8G13
 -15045513.23949 -11698097.82647  19204959.894    19204958.967    19204971.472
       236.000         202.000
  -6542491.64549  -5080149.63647  19425745.322    19425744.552    19425756.094
       238.000         197.000
 -21965029.06549 -17095188.54847  20558589.494    20558589.573    20558603.189
       233.000         190.000
 -21361360.27749 -16628539.51047  18114277.307    18114276.996    18114287.130
       239.000         209.000
 -12296888.54749  -9564257.53145  22418379.257    22418379.175    22418396.553
       214.000         155.000
  -7107299.23449  -5518231.54345  21820247.984    21820248.361    21820269.328
       216.000         151.000
   -142428.52745                  22683766.098
       207.000         153.000
 -31625039.78349 -24628933.16347  19045015.021    19045015.510    19045025.458
       241.000         201.000
 01 11 12 18 29 59.9920000  0  8G22G20G27G 1G 4G 3G 8G13
 -15016924.47449 -11675820.98847  19210400.211    19210399.298    19210411.849
       236.000         201.000
  -6496597.07549  -5044387.77147  19434478.885    19434478.111    19434489.683
       237.000         197.000
 -22068243.01749 -17175614.92447  20538948.520    20538948.565    20538962.140
       233.000         189.000
 -21409213.01549 -16665827.37747  18105171.194    18105170.917    18105181.065
       239.000         209.000
 -12299060.05749  -9565949.76645  22417966.084    22417966.035    22417983.471
       212.000         151.000
  -7216339.90049  -5603198.11145  21799498.156    21799498.509    21799519.303
       216.000         154.000
   -749908.50949   -244510.30645  22658836.463    22658834.380    22658856.176
       206.000         151.000
 -31727596.24349 -24708847.24647  19025499.169    19025499.621    19025509.558
       242.000         201.000
 01 11 12 18 30 29.9920000  0  8G22G20G27G 1G 4G 3G 8G13
 -14987847.92549 -11653164.07147  19215933.370    19215932.462    19215945.047
       237.000         201.000
  -6450339.85349  -5008343.33047  19443281.411    19443280.667    19443292.292
       237.000         197.000
 -22171291.61249 -17255912.44347  20519338.954    20519339.004    20519352.511
       233.000         188.000
 -21456760.52949 -16702877.40447  18096123.224    18096122.945    18096133.071
       239.000         209.000
 -12300873.32149  -9567362.87445  22417621.200    22417621.117    22417638.589
       212.000         154.000
  -7325182.63349  -5688010.44345  21778785.949    21778786.272    21778806.965
       213.000         153.000
   -880814.43759   -346514.61355  22633925.659    22633924.726    22633946.474
       203.000         147.000
 -31829963.09949 -24788613.57747  19006019.364    19006019.812    19006029.765
       242.000         201.000
 01 11 12 18 30 59.9920000  0  8G22G20G27G 1G 4G 3G 8G13
 -14958289.01049 -11630131.29047  19221558.334    19221557.434    19221570.032
       235.000         201.000
  -6403725.40549  -4972020.53847  19452151.999    19452151.222    19452162.888
       238.000         196.000
 -22274177.47149 -17336083.15147  20499760.249    20499760.365    20499773.852
       234.000         190.000
 -21504004.52849 -16739690.93147  18087132.947    18087132.711    18087142.839
       239.000         209.000
 -12302333.35149  -9568500.73745  22417343.605    22417343.381    22417360.934
       212.000         153.000
  -7433827.20249  -5772668.34145  21758111.382    21758111.776    21758132.467
       210.000         152.000
  -1011623.19549   -448443.26645  22609033.394    22609032.555    22609054.467
       208.000         151.000
 -31932141.55249 -24868233.10347  18986575.437    18986575.863    18986585.829
       242.000         202.000
 01 11 12 18 31 29.9920000  0  8G22G20G27G 1G 4G 3G 8G13
 -14928239.21549 -11606716.01347  19227276.711    19227275.800    19227288.406
       236.000         200.000
  -6356744.82349  -4935412.43847  19461092.209    19461091.433    19461103.121
       238.000         195.000
 -22376889.60749 -17416118.47947  20480214.789    20480214.855    20480228.266
       235.000         191.000
 -21550932.59749 -16776258.27547  18078202.826    18078202.594    18078212.736
       238.000         209.000
 -12303431.46049  -9569356.57745  22417134.725    22417134.540    22417152.122
       210.000         153.000
  -7542259.31949  -5857160.68345  21737477.206    21737477.610    21737498.321
       210.000         153.000
  -1142323.04949   -550287.11945  22584161.869    22584161.063    22584182.843
       208.000         152.000
 -32034118.82149 -24947695.87347  18967169.766    18967170.202    18967180.167
       242.000         202.000
 01 11 12 18 31 59.9910000  0  8G22G20G27G 1G 4G 3G 8G13
 -14897701.08349 -11582920.21547  19233088.077    19233087.120    19233099.721
       236.000         200.000
  -6309401.37749  -4898521.59947  19470101.461    19470100.683    19470112.382
       237.000         194.000
 -22479423.75249 -17496015.11547  20460703.148    20460703.201    20460716.581
       234.000         192.000
 -21597540.70249 -16812576.30547  18069333.606    18069333.368    18069343.505
       238.000         209.000
 -12304168.42849  -9569931.03645  22416994.560    22416994.381    22417012.100
       207.000         151.000
  -7650471.37649  -5941481.53445  21716884.869    21716885.311    21716906.157
       208.000         153.000
  -1272908.04149   -652041.49545  22559312.256    22559311.501    22559333.166
       209.000         153.000
 -32135888.83949 -25026997.14547  18947803.510    18947803.970    18947813.933
       242.000         202.000
 01 11 12 18 32 29.9910000  0  8G22G20G27G 1G 4G 3G 8G13
 -14866696.92549 -11558761.28447  19238988.067    19238987.126    19238999.755
       236.000         200.000
  -6261716.25049  -4861364.49847  19479175.757    19479174.957    19479186.682
       237.000         194.000
 -22581808.64349 -17575795.44947  20441219.911    20441219.948    20441233.326
       233.000         191.000
 -21643852.67249 -16848663.58047  18060520.778    18060520.506    18060530.648
       239.000         209.000
 -12304568.72249  -9570243.13745  22416918.537    22416918.311    22416936.026
       212.000         153.000
  -7758489.32549  -6025651.16845  21696329.609    21696330.019    21696350.935
       213.000         159.000
  -1403408.39449   -753729.96545  22534478.718    22534478.063    22534499.689
       209.000         151.000
 -32237478.44049 -25106157.83747  18928471.592    18928472.064    18928482.016
       242.000         202.000
 01 11 12 18 32 59.9910000  0  9G22G20G27G 1G 4G 3G31G 8G13
 -14835231.99949 -11534243.31847  19244975.792    19244974.816    19244987.476
       236.000         200.000
  -6213695.16949  -4823945.63147  19488314.005    19488313.169    19488324.948
       237.000         194.000
 -22684042.42049 -17655458.04547  20421765.349    20421765.419    20421778.768
       234.000         191.000
 -21689867.39649 -16884519.23647  18051764.506    18051764.209    18051774.344
       239.000         209.000
 -12304636.35149  -9570296.01545  22416905.807    22416905.618    22416923.367
       206.000         150.000
  -7866308.23249  -6109665.72545  21675812.332    21675812.666    21675833.506
       216.000         159.000
    -26630.13353                  22539462.809
       199.000          74.000
  -1533820.64649   -855349.84845  22509661.981    22509661.366    22509682.929
       209.000         144.000
 -32338884.43049 -25185175.45847  18909174.641    18909175.102    18909185.040
       241.000         202.000
 01 11 12 18 33 29.9910000  0  9G22G20G27G 1G 4G 3G31G 8G13
 -14803300.82349 -11509362.04547  19251052.172    19251051.209    19251063.929
       235.000         199.000
  -6165332.76549  -4786260.80547  19497517.172    19497516.318    19497528.175
       237.000         195.000
 -22786116.83549 -17734996.45047  20402341.242    20402341.239    20402354.564
       235.000         192.000
 -21735575.52849 -16920135.98547  18043066.591    18043066.265    18043076.370
       239.000         209.000
 -12304365.22249  -9570084.97545  22416957.546    22416957.284    22416975.161
       207.000         149.000
  -7973916.74549  -6193516.34745  21655335.056    21655335.389    21655356.090
       217.000         157.000
   -128683.96844                  22514539.386
       205.000         131.000
  -1664136.28049   -956894.46145  22484863.652    22484863.033    22484884.550
       211.000         146.000
 -32440097.09749 -25264042.43747  18889914.477    18889914.923    18889924.890
       242.000         203.000
 01 11 12 18 33 59.9910000  0  9G22G20G27G 1G 4G 3G31G 8G13
 -14770915.52149 -11484126.91447  19257214.983    19257214.019    19257226.818
       235.000         199.000
  -6116641.06449  -4748319.38147  19506783.070    19506782.160    19506794.064
       237.000         194.000
 -22888041.73749 -17814418.35847  20382945.494    20382945.518    20382958.800
       233.000         192.000
 -21780985.50049 -16955520.40347  18034425.349    18034425.034    18034435.147
       238.000         209.000
 -12303767.38349  -9569619.31445  22417071.489    22417071.206    22417089.047
       208.000         149.000
  -8081321.33849  -6277208.08545  21634896.560    21634896.883    21634917.513
       215.000         155.000
   -322680.80249   -230820.88145  22489596.529    22489594.943    22489619.351
       205.000         135.000
  -1794364.37749  -1058370.84745  22460081.921    22460081.447    22460102.889
       207.000         145.000
 -32541124.05049 -25342764.70847  18870689.611    18870690.091    18870700.059
       241.000         203.000
 01 11 12 18 34 29.9910000  0  9G22G20G27G 1G 4G 3G31G 8G13
 -14738061.97649 -11458526.91147  19263466.872    19263465.942    19263478.791
       235.000         198.000
  -6067605.89749  -4710110.32447  19516114.237    19516113.345    19516125.278
       236.000         194.000
 -22989800.42549 -17893710.73347  20363581.411    20363581.405    20363594.673
       233.000         193.000
 -21826079.22349 -16990658.39447  18025844.288    18025843.994    18025854.088
       239.000         209.000
 -12302828.23549  -9568887.72045  22417250.283    22417250.092    22417267.894
       206.000         148.000
  -8188502.20849  -6360725.49145  21614500.706    21614500.941    21614521.435
       214.000         153.000
   -453844.46349   -333026.03245  22464636.861    22464635.370    22464659.226
       205.000         136.000
  -1924487.50649  -1159765.52045  22435320.245    22435319.830    22435341.212
       213.000         146.000
 -32641946.80049 -25421327.86247  18851503.686    18851504.143    18851514.125
       240.000         203.000
 01 11 12 18 34 59.9910000  0  9G22G20G27G 1G 4G 3G31G 8G13
 -14704747.66549 -11432567.87447  19269806.547    19269805.561    19269818.431
       236.000         198.000
  -6018234.71049  -4671639.43747  19525509.346    19525508.479    19525520.467
       236.000         194.000
 -23091397.75949 -17972877.39547  20344248.014    20344248.007    20344261.245
       233.000         192.000
 -21870860.41749 -17025552.85647  18017322.757    18017322.447    18017332.503
       239.000         209.000
 -12301555.04949  -9567895.86045  22417492.603    22417492.438    22417510.377
       204.000         148.000
  -8295460.99249  -6444069.83945  21594146.896    21594147.170    21594167.634
       211.000         150.000
   -585097.14359   -435300.53855  22439660.055    22439657.718    22439681.861
       201.000         135.000
  -2054510.00849  -1261081.83945  22410577.768    22410577.419    22410598.668
       216.000         149.000
 -32742568.50749 -25499734.36947  18832356.036    18832356.437    18832366.441
       241.000         203.000
 01 11 12 18 35 29.9910000  0  9G22G20G27G 1G 4G 3G31G 8G13
 -14670964.91049 -11406243.81547  19276235.320    19276234.310    19276247.191
       235.000         198.000
  -5968519.75949  -4632900.67547  19534969.864    19534969.018    19534981.011
       236.000         193.000
 -23192823.52949 -18051910.36847  20324947.256    20324947.253    20324960.509
       233.000         194.000
 -21915317.44449 -17060194.72147  18008862.911    18008862.595    18008872.610
       239.000         209.000
 -12299939.72949  -9566637.37645  22417800.170    22417800.027    22417817.857
       206.000         149.000
  -8402184.67149  -6527230.97245  21573837.924    21573838.175    21573858.658
       212.000         151.000
   -716425.81249   -537634.26945  22414668.806    22414666.979    22414691.018
       200.000         137.000
  -2184421.27349  -1362311.42045  22385856.479    22385856.110    22385877.325
       211.000         149.000
 -32842977.56549 -25577975.16847  18813248.827    18813249.200    18813259.209
       241.000         203.000
 01 11 12 18 35 59.9910000  0  9G22G20G27G 1G 4G 3G31G 8G13
 -14636723.13149 -11379562.06847  19282751.371    19282750.415    19282763.318
       235.000         198.000
  -5918470.61649  -4593901.50747  19544493.982    19544493.162    19544505.190
       235.000         193.000
 -23294084.62449 -18130815.03647  20305677.827    20305677.819    20305691.060
       235.000         193.000
 -21959456.03249 -17094588.45047  18000463.678    18000463.334    18000473.311
       239.000         209.000
 -12297991.49149  -9565119.51545  22418171.079    22418170.947    22418188.889
       209.000         150.000
  -8508676.91649  -6610211.76345  21553572.832    21553573.179    21553593.645
       210.000         151.000
   -847834.51649   -640030.36745  22389662.384    22389660.923    22389684.972
       205.000         141.000
  -2314227.37949  -1463459.13745  22361155.190    22361154.794    22361175.987
       211.000         147.000
 -32943178.93649 -25656054.13247  18794181.088    18794181.479    18794191.493
       240.000         203.000
 01 11 12 18 36 29.9910000  0  9G22G20G27G 1G 4G 3G31G 8G13
 -14602012.09949 -11352514.67847  19289356.807    19289355.819    19289368.739
       235.000         198.000
  -5868076.79549  -4554633.77747  19554083.703    19554082.894    19554095.009
       236.000         192.000
 -23395168.01549 -18209581.24747  20286442.259    20286442.243    20286455.463
       233.000         193.000
 -22003262.03449 -17128723.02547  17992127.671    17992127.351    17992137.315
       239.000         209.000
 -12295699.67149  -9563333.91945  22418607.343    22418607.206    22418625.166
       209.000         151.000
  -8614921.48149  -6692999.55545  21533354.924    21533355.301    21533375.752
       211.000         155.000
   -979306.93549   -742476.17645  22364643.790    22364642.513    22364666.385
       206.000         140.000
  -2443914.89849  -1564514.38945  22336476.481    22336476.113    22336497.220
       209.000         149.000
 -33043158.05349 -25733959.91547  18775155.651    18775156.055    18775166.066
       241.000         204.000
 01 11 12 18 36 59.9910000  0  9G22G20G27G 1G 4G 3G31G 8G13
 -14566854.00849 -11325118.92147  19296047.230    19296046.275    19296059.251
       235.000         198.000
  -5817360.66949  -4515114.88247  19563734.810    19563733.995    19563746.118
       236.000         193.000
 -23496093.46849 -18288224.38847  20267236.715    20267236.704    20267249.866
       235.000         192.000
 -22046753.75949 -17162612.70147  17983851.495    17983851.168    17983861.135
       239.000         210.000
 -12293086.39649  -9561297.81145  22419104.844    22419104.640    22419122.684
       208.000         150.000
  -8720934.86549  -6775607.20545  21513181.179    21513181.514    21513201.917
       216.000         158.000
  -1110859.95349   -844984.80045  22339609.812    22339608.849    22339632.673
       198.000         137.000
  -2573502.99549  -1665492.13145  22311816.625    22311816.368    22311837.401
       209.000         150.000
 -33142932.81149 -25811706.45047  18756169.177    18756169.539    18756179.528
       241.000         204.000
 01 11 12 18 37 29.9910000  0  9G22G20G27G 1G 4G 3G31G 8G13
 -14531255.11649 -11297379.67647  19302821.587    19302820.627    19302833.627
       235.000         197.000
  -5766328.42049  -4475349.67747  19573446.039    19573445.232    19573457.415
       235.000         193.000
 -23596864.59049 -18366747.26347  20248060.468    20248060.510    20248073.673
       234.000         193.000
 -22089933.60349 -17196259.35647  17975634.665    17975634.342    17975644.308
       239.000         210.000
 -12290157.42149  -9559015.70045  22419662.189    22419662.060    22419680.222
       206.000         146.000
  -8826717.88449  -6858035.36845  21493051.318    21493051.586    21493071.919
       217.000         157.000
  -1242494.22049   -947556.70445  22314560.565    22314559.663    22314583.486
       201.000         136.000
  -2702994.43449  -1766394.57845  22287175.412    22287175.017    22287195.998
       213.000         159.000
 -33242505.00449 -25889295.14347  18737221.202    18737221.560    18737231.546
       240.000         204.000
 01 11 12 18 37 59.9910000  0  9G22G20G27G 1G 4G 3G31G 8G13
 -14495206.13549 -11269289.70847  19309681.591    19309680.626    19309693.673
       234.000         198.000
  -5714970.52349  -4435330.72747  19583219.225    19583218.433    19583230.694
       235.000         192.000
 -23697469.38149 -18445140.53747  20228916.030    20228916.020    20228929.155
       234.000         193.000
 -22132788.40249 -17229652.72947  17967479.686    17967479.359    17967489.331
       239.000         209.000
 -12286903.23849  -9556480.19545  22420281.724    22420281.543    22420299.769
       210.000         151.000
  -8932255.44849  -6940272.30745  21472968.086    21472968.380    21472988.613
       216.000         154.000
  -1374194.84149  -1050180.33745  22289498.664    22289497.858    22289521.533
       201.000         135.000
  -2832376.93749  -1867212.10146  22262554.802    22262554.354    22262575.372
       218.000         163.000
 -33341860.71349 -25966715.13847  18718314.350    18718314.753    18718324.780
       240.000         204.000
 01 11 12 18 38 29.9910000  0  9G22G20G27G 1G 4G 3G31G 8G13
 -14458718.52149 -11240857.95247  19316625.080    19316624.104    19316637.194
       234.000         198.000
  -5663298.63449  -4395067.09947  19593052.131    19593051.370    19593063.680
       234.000         190.000
 -23797916.74449 -18523411.14247  20209801.452    20209801.447    20209814.601
       234.000         193.000
 -22175325.70649 -17262798.70447  17959385.105    17959384.808    17959394.766
       240.000         210.000
 -12283334.95149  -9553699.93045  22420960.954    22420960.745    22420979.017
       211.000         152.000
  -9037553.17049  -7022322.35545  21452930.460    21452930.820    21452950.907
       216.000         154.000
  -1505967.49849  -1152860.08345  22264423.000    22264422.355    22264445.890
       207.000         145.000
  -2961658.85249  -1967951.19845  22237953.274    22237952.859    22237973.872
       215.000         159.000
 -33441007.01149 -26043971.95447  18699447.426    18699447.824    18699457.875
       241.000         204.000
 01 11 12 18 38 59.9910000  0  9G22G20G27G 1G 4G 3G31G 8G13
 -14421806.72049 -11212095.66447  19323649.300    19323648.307    19323661.459
       234.000         198.000
  -5611327.01649  -4354569.92447  19602942.137    19602941.356    19602953.740
       234.000         191.000
 -23898218.49449 -18601568.28247  20190714.572    20190714.581    20190727.761
       233.000         192.000
 -22217556.00149 -17295705.45547  17951348.999    17951348.675    17951358.624
       240.000         210.000
 -12279466.74549  -9550686.00145  22421697.142    22421696.992    22421715.317
       209.000         149.000
  -9142619.99749  -7104192.47345  21432936.813    21432937.146    21432957.208
       216.000         153.000
  -1637820.99049  -1255602.77845  22239331.892    22239331.460    22239354.958
       205.000         146.000
  -3090851.18549  -2068620.50545  22213368.833    22213368.426    22213389.415
       218.000         157.000
 -33539954.40649 -26121073.77947  18680618.343    18680618.735    18680628.807
       240.000         204.000
 01 11 12 18 39 29.9910000  0  9G22G20G27G 1G 4G 3G31G 8G13
 -14384460.08749 -11182994.54947  19330756.274    19330755.268    19330768.451
       234.000         197.000
  -5559044.96749  -4313830.85647  19612891.224    19612890.413    19612902.834
       233.000         188.000
 -23998361.28149 -18679601.55747  20171657.947    20171657.968    20171671.131
       234.000         193.000
 -22259464.83249 -17328361.71347  17943374.008    17943373.711    17943383.672
       240.000         210.000
 -12275287.77549  -9547429.86245  22422492.601    22422492.410    22422510.662
       209.000         144.000
  -9247439.52549  -7185869.88745  21412990.237    21412990.476    21413010.505
       212.000         152.000
  -1769739.36049  -1358395.99745  22214228.312    22214228.074    22214251.559
       196.000         139.000
  -3219940.27849  -2169209.26545  22188803.938    22188803.568    22188824.632
       216.000         155.000
 -33638687.23449 -26198008.40947  18661830.056    18661830.475    18661840.560
       240.000         205.000
 01 11 12 18 39 59.9910000  0  9G22G20G27G 1G 4G 3G31G 8G13
 -14346677.13249 -11153553.44547  19337946.233    19337945.245    19337958.455
       234.000         196.000
  -5506450.85549  -4272848.61447  19622899.690    19622898.868    19622911.283
       234.000         189.000
 -24098340.92149 -18757507.72347  20152632.525    20152632.478    20152645.487
       235.000         193.000
 -22301046.72749 -17360763.22047  17935461.285    17935460.966    17935470.933
       240.000         210.000
 -12270796.25649  -9543930.17145  22423347.566    22423347.282    22423365.498
       214.000         152.000
  -9352004.44149  -7267348.86645  21393091.976    21393092.271    21393112.249
       214.000         153.000
  -1901715.34449  -1461234.07545  22189113.875    22189113.786    22189137.148
       199.000         138.000
  -3348921.22649  -2269713.70645  22164259.649    22164259.295    22164280.311
       215.000         150.000
 -33737199.87049 -26274771.45247  18643083.707    18643084.118    18643094.227
       241.000         205.000
 01 11 12 18 40 29.9910000  0  9G22G20G27G 1G 4G 3G31G 8G13
 -14308465.86449 -11123778.60147  19345217.713    19345216.712    19345229.981
       233.000         196.000
  -5453552.68349  -4231629.43947  19632966.116    19632965.205    19632977.659
       233.000         189.000
 -24198162.83649 -18835290.95447  20133637.000    20133636.941    20133649.920
       233.000         192.000
 -22342305.73749 -17392913.12547  17927609.980    17927609.671    17927619.635
       239.000         210.000
 -12265999.68849  -9540192.83145  22424260.495    22424260.214    22424278.495
       211.000         151.000
  -9456317.04549  -7348631.25845  21373241.843    21373242.083    21373262.174
       214.000         158.000
  -2033751.22949  -1564118.86745  22163987.968    22163988.061    22164011.368
       206.000         142.000
  -3477799.10849  -2370137.81945  22139734.953    22139734.630    22139755.542
       218.000         151.000
 -33835496.04849 -26351365.82847  18624378.554    18624378.955    18624389.056
       241.000         205.000
 01 11 12 18 40 59.9910000  0  9G22G20G27G 1G 4G 3G31G 8G13
 -14269838.22249 -11093679.31747  19352568.384    19352567.393    19352580.709
       234.000         196.000
  -5400362.39649  -4190182.65847  19643087.948    19643087.083    19643099.615
       233.000         188.000
 -24297836.27149 -18912958.49347  20114669.657    20114669.646    20114682.621
       233.000         193.000
 -22383250.03149 -17424817.79947  17919818.527    17919818.259    17919828.234
       239.000         210.000
 -12260909.90349  -9536227.01145  22425229.208    22425228.928    22425247.283
       213.000         151.000
  -9560383.16149  -7429721.58945  21353438.486    21353438.778    21353458.959
       215.000         158.000
  -2165853.14949  -1667055.12145  22138849.776    22138849.818    22138873.003
       208.000         148.000
  -3606582.42949  -2470488.17845  22115228.201    22115227.894    22115248.868
       216.000         154.000
 -33933582.96849 -26427797.14347  18605713.194    18605713.602    18605723.697
       240.000         205.000
 01 11 12 18 41 29.9910000  0  9G22G20G27G 1G 4G 3G31G 8G13
 -14230792.35549 -11063254.12947  19359998.672    19359997.680    19360011.004
       233.000         195.000
  -5346878.11849  -4148506.78547  19653265.831    19653264.934    19653277.516
       234.000         188.000
 -24397356.78649 -18990506.87747  20095731.510    20095731.482    20095744.435
       236.000         194.000
 -22423874.12949 -17456472.97147  17912088.067    17912087.792    17912097.762
       240.000         210.000
 -12255524.74449  -9532031.00245  22426254.167    22426253.898    22426272.175
       214.000         153.000
  -9664195.49349  -7510614.11645  21333683.579    21333683.870    21333704.024
       218.000         159.000
  -2298013.41849  -1770036.76045  22113700.218    22113700.403    22113723.467
       204.000         150.000
  -3735266.46849  -2570761.09745  22090740.244    22090739.993    22090761.045
       216.000         154.000
 -34031454.13749 -26504060.34347  18587088.867    18587089.293    18587099.375
       241.000         205.000
 01 11 12 18 41 59.9910000  0  9G22G20G27G 1G 4G 3G31G 8G13
 -14191343.94349 -11032515.28147  19367505.613    19367504.576    19367517.916
       233.000         195.000
  -5293115.56949  -4106614.09246  19663496.593    19663495.737    19663508.391
       232.000         187.000
 -24496737.35649 -19067946.21247  20076819.996    20076819.942    20076832.865
       235.000         194.000
 -22464189.63949 -17487887.68147  17904416.316    17904416.033    17904426.021
       240.000         210.000
 -12249859.64449  -9527616.85745  22427332.391    22427332.106    22427350.346
       212.000         153.000
  -9767763.86749  -7591316.57545  21313975.060    21313975.379    21313995.385
       218.000         156.000
  -2430242.28549  -1873071.77945  22088537.761    22088537.896    22088560.930
       205.000         148.000
  -3863863.62649  -2670966.36445  22066268.910    22066268.651    22066289.721
       220.000         153.000
 -34129121.21449 -26580164.51847  18568503.406    18568503.841    18568513.904
       241.000         205.000
 01 11 12 18 42 29.9910000  0  9G22G20G27G 1G 4G 3G31G 8G13
 -14151494.98949 -11001464.32847  19375088.766    19375087.704    19375101.078
       232.000         194.000
  -5239076.63949  -4064506.01547  19673780.066    19673779.164    19673791.816
       233.000         188.000
 -24595977.37249 -19145276.02447  20057935.191    20057935.141    20057948.005
       234.000         194.000
 -22504194.51749 -17519060.33647  17896803.673    17896803.378    17896813.374
       239.000         210.000
 -12243916.33649  -9522985.98345  22428463.602    22428463.270    22428481.604
       211.000         154.000
  -9871084.83549  -7671826.25145  21294313.612    21294313.962    21294333.815
       217.000         154.000
  -2562535.83549  -1976157.18945  22063362.902    22063363.080    22063386.072
       206.000         148.000
  -3992372.72749  -2771102.99745  22041814.180    22041814.044    22041835.058
       217.000         153.000
 -34226581.57849 -26656107.61047  18549957.332    18549957.722    18549967.773
       241.000         205.000
 01 11 12 18 42 59.9910000  0  9G22G20G27G 1G 4G 3G31G 8G13
 -14111251.19349 -10970105.70847  19382747.005    19382745.972    19382759.366
       234.000         195.000
  -5184767.05349  -4022187.04646  19684114.986    19684114.066    19684126.758
       232.000         186.000
 -24695079.77649 -19222498.59947  20039076.567    20039076.509    20039089.398
       233.000         195.000
 -22543890.60549 -17549992.37847  17889249.768    17889249.484    17889259.469
       240.000         210.000
 -12237700.30549  -9518142.58545  22429646.479    22429646.216    22429664.733
       208.000         150.000
  -9974158.19549  -7752142.96045  21274699.326    21274699.652    21274719.417
       216.000         153.000
  -2694894.14149  -2079293.08745  22038175.656    22038175.895    22038198.819
       209.000         145.000
  -4120796.18849  -2871172.84645  22017375.810    22017375.713    22017396.663
       218.000         152.000
 -34323836.41049 -26731890.54947  18531450.298    18531450.708    18531460.762
       241.000         205.000
 01 11 12 18 43 29.9910000  0  9G22G20G27G 1G 4G 3G31G 8G13
 -14070594.59049 -10938425.41847  19390483.858    19390482.807    19390496.204
       233.000         194.000
  -5130168.81949  -3979643.16946  19694504.808    19694503.900    19694516.618
       233.000         187.000
 -24794024.08349 -19299597.96747  20020248.004    20020247.962    20020260.855
       236.000         196.000
 -22583256.11449 -17580666.83147  17881758.766    17881758.490    17881768.472
       240.000         210.000
 -12231193.34249  -9513072.44845  22430884.980    22430884.702    22430903.138
       211.000         153.000
 -10076960.08349  -7832248.11845  21255136.656    21255136.956    21255156.580
       215.000         153.000
  -2827293.53749  -2182461.08845  22012980.748    22012980.884    22013003.654
       208.000         141.000
  -4249113.05449  -2971159.64445  21992957.695    21992957.646    21992978.611
       220.000         148.000
 -34420863.06149 -26807495.69247  18512986.717    18512987.133    18512997.153
       241.000         205.000
 01 11 12 18 43 59.9910000  0  9G22G20G27G 1G 4G 3G31G 8G13
 -14029532.37849 -10906429.07147  19398297.878    19398296.821    19398310.240
       232.000         193.000
  -5075288.90849  -3936879.79946  19704948.319    19704947.372    19704960.129
       232.000         186.000
 -24892814.76249 -19376577.65247  20001448.768    20001448.689    20001461.567
       236.000         197.000
 -22622294.30549 -17611086.22947  17874330.085    17874329.792    17874339.789
       239.000         210.000
 -12224402.23949  -9507780.94045  22432177.490    22432177.168    22432195.689
       208.000         148.000
 -10179492.26349  -7912143.07745  21235625.220    21235625.530    21235645.244
       215.000         156.000
  -2959735.29249  -2285662.07445  21987777.570    21987777.854    21987800.418
       204.000         140.000
  -4377327.08349  -3071066.39045  21968559.224    21968559.171    21968579.935
       217.000         145.000
 -34517664.29649 -26882925.18647  18494566.057    18494566.445    18494576.430
       241.000         205.000
 01 11 12 18 44 29.9910000  0  9G22G20G27G 1G 4G 3G31G 8G13
 -13988073.13149 -10874123.34347  19406187.391    19406186.380    19406199.840
       233.000         193.000
  -5020135.96749  -3893903.67146  19715443.715    19715442.775    19715455.585
       232.000         186.000
 -24991457.67349 -19453442.19747  19982677.627    19982677.540    19982690.353
       234.000         196.000
 -22661009.73449 -17641254.13047  17866962.806    17866962.510    17866972.517
       240.000         210.000
 -12217335.35849  -9502274.52245  22433522.357    22433522.118    22433540.629
       210.000         145.000
 -10281757.49649  -7991830.03345  21216164.519    21216164.921    21216184.672
       214.000         160.000
  -3092222.23549  -2388898.25445  21962565.815    21962566.155    21962588.573
       209.000         147.000
  -4505443.84649  -3170897.32545  21944179.161    21944179.173    21944199.854
       216.000         150.000
 -34614244.21049 -26958182.22747  18476187.491    18476187.861    18476197.828
       241.000         205.000
 01 11 12 18 44 59.9910000  0  9G22G20G27G 1G 4G 3G31G 8G13
 -13946205.66249 -10841499.52847  19414154.574    19414153.596    19414167.090
       232.000         192.000
  -4964698.65049  -3850705.96246  19725993.168    19725992.265    19726005.147
       232.000         185.000
 -25089939.05849 -19530180.86747  19963937.168    19963937.094    19963949.934
       234.000         197.000
 -22699387.38049 -17671158.82247  17859659.873    17859659.519    17859669.527
       239.000         210.000
 -12209981.09549  -9496544.13545  22434921.982    22434921.812    22434940.313
       209.000         144.000
 -10383738.88549  -8071295.79646  21196757.965    21196758.351    21196778.133
       216.000         166.000
  -3224737.33849  -2492156.41245  21937348.848    21937349.181    21937371.481
       212.000         151.000
  -4633448.88349  -3270641.16245  21919820.344    21919820.389    21919841.160
       218.000         154.000
 -34710587.04149 -27033254.53047  18457854.065    18457854.415    18457864.337
       241.000         205.000
 01 11 12 18 45 29.9910000  0  9G22G20G27G 1G 4G 3G31G 8G13
 -13903924.65149 -10808553.46447  19422200.560    19422199.530    19422213.071
       233.000         193.000
  -4908971.71049  -3807282.57146  19736597.777    19736596.887    19736609.798
       232.000         185.000
 -25188250.91449 -19606787.44547  19945228.972    19945228.908    19945241.762
       234.000         199.000
 -22737418.04349 -17700793.14347  17852422.906    17852422.566    17852432.567
       240.000         210.000
 -12202334.16149  -9490585.76645  22436377.318    22436377.117    22436395.774
       210.000         148.000
 -10485425.47949  -8150531.84846  21177407.434    21177407.850    21177427.736
       217.000         168.000
  -3357269.61049  -2595428.01245  21912128.565    21912128.907    21912151.182
       212.000         150.000
  -4761333.73749  -3370291.39445  21895484.424    21895484.483    21895505.264
       215.000         152.000
 -34806682.82849 -27108134.33447  18439567.640    18439567.990    18439577.852
       241.000         204.000
